GFSSGP_925_thetae_000.txt.gz
Theta_e
307 308 318 325 335 334 340 338 332 329 328 325 324 323 322 323 327 327 336 337 337 330 326 324 323 322 323 323 325 325 326 327 328 333 335 335 334 330 333 333 333 331 330 329 329 329 330 331 333
308 312 324 331 340 345 343 335 334 326 325 324 323 320 323 330 330 328 334 334 335 331 325 324 324 324 324 325 326 328 329 330 331 336 337 336 337 336 334 334 335 334 333 332 330 330 329 329 330
312 321 326 338 339 343 342 335 333 328 323 324 325 323 324 327 328 327 330 335 335 332 329 328 327 326 326 326 328 329 330 331 334 339 338 337 336 336 335 335 335 335 335 334 333 332 331 330 331
326 332 332 338 338 336 337 334 330 325 323 323 324 327 326 326 329 329 332 334 332 332 332 331 330 329 327 327 328 330 331 336 338 339 338 337 336 335 333 334 334 334 333 333 335 333 332 331 331
330 331 336 336 337 334 330 329 324 324 324 322 323 327 326 327 330 329 332 332 331 332 332 335 332 330 328 328 326 331 337 337 337 337 338 336 335 333 334 333 333 332 332 333 334 334 332 330 331
332 326 330 331 330 330 327 326 328 326 324 322 326 326 325 328 330 329 331 332 331 332 335 334 329 326 325 323 321 319 320 325 333 334 332 331 331 331 332 332 331 331 331 332 333 333 333 330 330
332 330 332 330 332 329 329 327 328 325 326 323 322 327 327 325 329 328 327 328 330 332 329 327 326 326 324 322 321 321 322 323 323 323 324 324 326 328 329 329 329 329 330 330 330 331 331 331 331
327 327 331 328 330 328 327 323 323 326 326 323 322 329 328 325 327 327 326 326 325 325 325 324 325 324 323 323 323 323 325 325 325 327 326 326 325 324 327 328 328 328 329 329 329 329 330 331 330
327 330 331 330 329 328 327 325 323 324 325 324 323 324 326 327 326 325 326 325 327 327 325 326 325 326 324 326 325 326 327 326 328 327 328 327 325 324 324 324 327 330 331 330 330 331 329 330 330
328 330 334 331 328 327 327 325 323 322 322 324 325 326 327 326 324 323 323 323 324 326 329 328 327 326 326 326 327 329 328 328 329 327 326 324 324 325 324 325 326 328 328 328 331 331 330 330 329
328 332 331 330 329 327 327 327 323 322 322 322 323 326 324 323 322 322 323 324 323 323 325 323 324 325 324 327 328 328 328 328 327 326 325 324 325 324 324 323 325 325 325 325 328 330 331 330 329
330 330 331 330 329 327 326 326 326 323 322 321 323 325 324 323 321 320 321 321 322 323 323 322 322 323 325 326 328 329 328 328 328 327 325 325 327 325 324 325 326 326 325 325 327 327 328 328 329
330 330 330 328 327 327 327 325 324 323 323 322 323 323 324 323 320 322 322 322 322 322 323 324 325 326 325 325 324 326 327 327 327 327 327 326 327 327 325 325 325 325 326 325 325 327 327 328 328
329 330 330 329 328 328 328 328 323 324 324 323 321 321 321 320 320 319 320 321 322 324 325 325 326 325 325 323 327 328 329 328 329 329 328 327 326 327 326 324 325 325 324 325 325 326 326 326 326
322 327 328 328 325 324 325 325 325 324 323 323 320 319 320 320 320 320 321 322 323 323 324 326 325 326 325 325 328 329 330 330 329 329 328 327 326 327 324 324 324 324 324 324 324 325 325 325 326
320 320 322 323 323 324 323 327 325 323 323 323 322 320 319 318 321 321 321 322 323 323 325 325 326 327 326 326 329 330 330 330 330 330 329 328 327 326 324 322 325 324 324 323 324 324 325 325 325
318 321 321 322 322 325 323 327 326 324 323 323 322 322 321 320 319 320 322 323 322 323 325 326 327 327 327 328 330 329 329 330 330 331 330 329 328 324 320 322 325 324 325 322 323 323 324 325 326
320 320 323 324 324 325 325 325 325 324 324 324 322 322 322 321 320 321 322 323 322 324 325 327 328 328 328 330 328 329 329 331 331 330 330 328 327 322 321 325 325 324 324 322 322 323 323 324 326
321 321 322 323 324 325 325 326 326 325 323 323 321 321 322 321 321 323 324 322 323 324 326 328 328 328 330 329 329 330 330 330 329 330 329 328 328 327 324 326 325 324 323 323 323 323 323 324 326
319 322 322 322 323 323 324 325 326 325 324 322 322 322 321 323 324 325 324 323 323 325 326 328 329 329 330 328 330 331 330 330 330 330 329 329 328 327 326 326 325 324 323 323 323 323 325 326 327
320 321 324 324 324 324 324 325 325 327 325 324 323 322 322 323 324 325 324 323 324 326 327 329 329 329 329 330 330 330 329 329 329 330 329 328 327 326 325 326 325 324 324 323 324 324 326 327 328
321 322 323 326 326 326 324 327 323 325 324 323 321 321 322 322 323 324 324 322 324 325 326 329 329 329 328 328 329 331 331 330 330 329 328 328 326 325 326 325 324 324 324 324 323 325 326 326 328
321 321 323 324 325 323 324 322 322 322 324 324 322 322 322 322 323 324 324 323 324 325 327 328 329 328 329 329 330 331 329 330 329 328 327 327 327 326 326 325 325 325 326 325 326 325 325 327 327
321 322 322 323 324 326 325 324 326 323 324 324 322 323 322 321 322 323 325 324 324 327 326 329 327 327 330 331 330 329 328 328 327 328 327 327 326 327 326 326 325 325 326 326 326 326 327 323 328
321 321 324 324 325 328 323 324 325 324 324 323 320 322 322 322 324 326 325 323 324 324 327 327 327 328 328 329 330 329 328 327 326 327 327 326 326 327 326 326 325 325 327 327 327 326 327 325 329
316 317 325 326 326 325 324 325 324 322 322 322 321 323 323 322 325 325 325 323 324 325 326 326 327 326 326 328 329 330 328 325 324 326 327 326 326 326 326 326 325 325 326 328 328 328 329 325 329
316 319 319 323 324 324 323 324 325 323 322 326 327 326 324 323 324 325 324 322 322 324 325 326 328 326 324 329 329 330 328 326 324 326 326 325 325 325 324 325 325 325 327 327 328 329 329 331 331
315 317 321 319 325 326 324 325 326 322 324 328 328 326 324 324 325 325 323 321 321 324 325 325 327 325 326 328 328 330 330 329 327 326 326 324 325 325 325 326 326 325 327 328 328 328 330 331 331
314 317 321 321 321 325 323 323 321 321 321 329 327 326 325 325 326 325 322 322 322 323 322 321 326 325 326 328 328 329 330 330 330 326 325 325 326 326 326 327 328 329 329 329 328 329 330 331 331
315 316 320 324 323 321 322 323 323 321 323 327 326 326 324 325 325 324 322 322 321 321 321 325 326 325 324 326 326 328 330 330 329 327 326 326 327 326 327 328 329 329 329 328 327 328 327 328 328

GFSSGP_925_thetae_003.txt.gz
Theta_e
308 309 321 324 334 333 338 337 330 332 326 323 322 322 322 322 324 324 334 337 331 327 330 323 324 323 322 321 322 324 324 324 324 324 326 329 330 331 332 332 333 332 331 330 330 329 329 330 331
307 314 324 330 337 342 339 336 335 328 323 321 321 321 324 327 330 329 335 336 334 333 331 325 324 322 322 322 323 325 326 327 328 332 333 333 334 334 333 333 334 334 334 333 332 331 330 330 329
313 321 324 336 337 341 339 336 332 329 325 322 321 323 324 327 329 329 334 335 336 335 328 324 323 322 322 323 325 327 329 329 334 336 336 336 337 333 334 334 334 335 335 335 335 334 332 331 330
322 329 329 337 339 336 336 335 332 329 322 321 323 326 324 326 327 331 330 333 335 331 327 324 324 324 324 325 326 327 328 330 334 337 338 338 336 335 334 332 334 334 333 333 334 335 334 333 332
331 329 338 337 337 333 330 329 323 322 323 322 323 326 325 326 328 329 330 334 332 330 328 326 327 327 326 326 326 326 327 328 333 338 338 337 336 335 335 334 333 332 331 331 332 333 336 334 332
330 325 330 331 330 328 326 325 323 324 324 323 325 325 324 325 328 330 331 333 331 329 329 329 329 328 327 326 325 321 318 324 332 335 334 333 333 333 334 334 333 331 330 331 331 332 334 333 330
330 329 332 329 332 330 327 324 326 324 323 323 323 325 324 325 329 331 332 331 330 330 330 331 331 329 327 326 323 319 319 320 323 326 324 322 323 323 328 329 330 330 330 330 330 331 332 331 332
327 327 332 328 329 328 326 324 322 324 324 321 325 327 326 323 328 333 334 332 332 332 332 335 330 327 327 325 322 321 321 323 324 324 325 325 323 324 327 328 328 328 328 328 329 330 330 330 331
324 329 331 329 328 328 325 325 323 323 323 323 321 325 325 326 326 324 328 333 334 335 335 333 328 327 326 325 324 323 323 324 325 326 326 326 326 325 324 323 324 328 329 329 328 329 329 329 331
327 328 329 327 327 326 325 326 326 323 323 321 322 324 326 325 323 322 323 325 332 335 333 329 329 327 328 325 325 325 325 326 326 327 326 326 324 324 324 323 326 328 329 329 330 329 330 330 330
326 329 328 327 327 327 326 326 327 323 325 324 322 322 323 322 321 322 322 323 326 327 328 331 330 328 327 325 325 326 328 327 328 329 327 325 324 324 323 323 323 325 324 325 324 327 330 330 329
329 327 328 327 327 328 327 327 326 325 324 324 323 323 323 321 320 321 321 322 322 323 326 330 330 328 325 324 325 327 327 328 328 327 326 326 324 326 325 323 323 324 325 325 324 326 327 328 328
327 327 327 327 327 327 326 326 326 326 325 323 320 323 324 322 321 322 322 323 322 321 323 326 326 323 323 326 327 328 327 327 327 327 327 326 325 326 326 325 324 325 325 325 324 324 326 327 328
326 327 328 328 329 328 328 328 328 328 326 324 321 322 323 323 321 320 320 321 321 321 322 324 323 323 325 325 325 326 327 328 328 328 328 328 327 326 326 326 324 324 325 324 324 324 325 327 327
318 320 321 324 326 326 326 327 326 325 323 322 321 320 322 322 322 319 321 320 321 321 322 322 324 325 324 323 326 327 328 329 329 329 329 328 328 326 326 327 323 324 324 324 323 324 324 326 326
317 318 320 321 324 326 322 328 325 323 322 322 322 319 320 321 320 321 320 320 320 322 322 324 325 325 325 325 326 328 329 329 329 329 329 329 328 328 327 326 323 323 324 324 323 323 324 324 325
315 318 318 320 320 322 321 324 325 324 322 322 321 320 318 319 318 319 319 320 320 323 324 325 325 326 326 326 328 328 328 329 329 330 330 330 329 328 326 326 322 324 324 324 323 323 323 324 324
315 316 318 320 320 320 322 323 324 324 324 322 322 322 319 318 317 318 319 320 320 323 324 325 326 327 327 328 329 327 329 329 330 329 330 330 329 328 324 321 320 325 324 323 322 322 323 324 324
315 316 317 318 320 323 322 323 324 324 322 322 322 321 320 320 318 318 319 320 320 323 324 326 327 328 328 329 327 330 329 329 329 329 329 329 328 327 324 322 325 325 324 322 322 322 323 323 324
316 317 319 320 321 322 321 322 322 322 322 322 323 320 320 321 321 320 318 319 322 323 326 327 327 327 328 328 327 330 330 328 328 329 329 329 328 327 327 324 325 324 323 322 322 322 322 323 324
317 317 318 320 321 322 322 323 323 323 322 322 321 320 320 321 322 322 319 319 323 325 327 327 327 328 329 328 329 329 328 329 328 329 329 328 327 326 326 326 325 324 323 322 322 322 323 325 325
319 319 320 320 322 325 322 325 322 321 322 321 321 319 320 320 322 322 320 319 322 325 326 327 328 328 327 328 327 329 329 328 328 328 327 327 325 326 325 325 324 323 323 323 323 323 324 325 327
318 319 321 321 321 322 323 323 322 320 322 321 319 318 317 319 321 322 321 320 323 325 326 328 328 328 328 329 330 330 329 328 328 327 327 326 326 325 325 324 324 324 324 324 323 323 325 325 326
316 319 319 319 321 324 323 323 324 322 322 322 321 320 321 319 321 321 320 322 323 324 326 328 329 327 328 329 330 329 327 327 327 327 326 326 326 326 325 325 324 325 325 325 325 325 325 325 326
315 318 320 320 324 326 322 323 324 322 321 321 321 321 319 320 322 322 321 320 322 324 326 328 326 327 329 330 330 328 328 326 326 326 326 325 326 326 326 324 325 325 326 326 326 325 326 324 326
315 318 322 325 324 324 322 325 325 321 322 320 320 319 320 321 323 323 321 320 321 323 326 326 326 327 329 328 329 327 327 324 324 325 326 325 325 325 326 324 324 325 326 327 327 326 327 324 327
315 319 319 320 322 323 323 322 322 321 320 323 322 322 321 322 323 323 322 320 322 323 326 326 326 325 325 327 329 328 327 324 324 325 325 325 324 324 325 324 324 325 327 326 327 328 328 327 328
313 314 316 315 320 323 324 324 324 322 324 326 325 322 321 322 323 323 321 320 322 324 325 325 327 326 324 329 328 328 328 327 324 325 324 324 323 323 323 323 323 324 326 327 328 328 329 330 330
312 314 315 318 320 323 324 324 319 320 321 325 323 322 322 324 324 324 320 320 322 324 324 325 326 326 325 328 327 328 329 328 327 325 323 323 323 323 324 324 325 327 327 329 329 330 330 329 329
314 314 314 317 319 319 322 325 322 318 317 323 323 323 322 323 324 322 320 319 318 321 323 322 324 326 326 327 328 328 329 328 326 325 323 324 324 324 324 326 328 328 328 328 328 329 329 329 328

GFSSGP_925_thetae_006.txt.gz
Theta_e
309 310 318 324 332 332 337 336 330 332 331 322 321 320 321 322 333 328 329 335 332 326 326 318 322 323 321 320 321 321 323 322 322 324 325 327 329 330 331 331 332 332 331 331 331 331 329 329 329
308 322 326 329 335 340 338 335 335 331 329 320 320 321 323 324 328 331 334 335 332 326 330 318 320 323 322 321 321 322 324 324 324 325 329 329 329 330 332 332 332 333 333 334 334 333 332 330 330
315 321 329 336 336 340 338 334 333 330 326 324 321 321 323 326 328 329 334 335 332 327 330 324 321 324 322 322 321 323 326 327 330 334 333 333 332 333 334 333 333 333 333 335 334 334 334 333 331
324 327 328 337 341 336 334 334 333 326 323 319 321 325 323 324 327 330 333 335 333 330 332 327 323 323 322 322 322 324 327 328 329 335 336 336 337 336 334 333 333 334 334 333 332 334 336 335 334
331 328 337 337 338 335 331 330 328 324 320 320 322 324 324 324 327 330 332 335 335 334 333 328 324 323 322 322 323 325 326 326 329 335 336 338 336 336 335 335 332 333 333 332 332 332 332 335 335
329 325 332 335 332 329 326 326 325 323 322 320 324 323 323 324 327 330 331 332 333 333 332 327 324 323 324 324 325 326 325 324 325 333 335 337 337 335 334 334 334 333 333 331 330 331 331 332 334
330 327 330 329 330 329 328 324 323 323 322 323 322 325 322 323 326 328 331 331 333 332 330 327 325 325 326 326 327 326 323 322 321 324 327 329 327 325 328 329 330 331 331 331 331 331 331 331 333
326 325 330 328 328 327 325 323 321 323 325 322 324 324 323 323 326 330 331 332 332 330 329 327 327 328 328 329 329 327 323 321 321 323 324 323 325 324 326 327 327 328 328 328 329 330 330 331 331
322 328 329 327 326 325 323 326 323 324 323 321 322 322 323 325 327 334 335 334 332 332 330 329 329 330 329 330 330 327 323 322 323 325 324 326 325 324 323 323 322 324 328 329 329 328 328 329 331
325 328 327 325 323 325 324 327 326 325 326 321 320 320 322 324 325 327 329 331 334 334 333 332 332 332 330 330 329 326 324 324 324 325 325 326 326 324 323 323 322 327 328 329 330 331 330 330 330
325 329 327 326 325 325 327 326 327 327 328 326 324 323 321 321 321 322 326 330 332 332 334 334 335 333 331 329 326 327 325 324 326 326 327 327 326 324 323 324 323 323 323 324 324 323 327 329 330
327 326 327 326 325 325 326 326 328 327 327 326 324 322 322 320 319 320 322 326 329 330 332 335 338 333 330 327 326 324 324 325 326 327 327 328 326 325 324 325 323 323 323 324 324 324 325 328 329
325 326 326 325 324 325 325 326 327 327 327 325 323 320 318 320 320 321 322 323 324 326 329 333 333 332 329 327 325 324 324 326 327 327 327 326 326 324 325 325 325 323 325 325 325 324 324 327 328
324 325 325 325 326 326 327 327 328 328 327 326 324 321 319 321 320 320 320 321 322 322 323 326 331 330 328 324 324 322 325 326 326 327 327 327 327 326 326 325 326 324 323 325 324 323 324 325 326
316 318 317 318 319 321 323 325 326 326 325 322 321 321 318 320 321 319 321 321 322 320 320 323 329 327 323 324 321 324 326 327 328 328 328 328 328 328 327 325 326 324 323 324 324 323 324 324 326
317 317 318 317 320 320 322 324 323 323 323 322 321 321 319 318 320 321 321 321 320 320 320 323 326 323 324 323 323 326 327 328 328 328 329 329 329 328 327 326 326 324 323 323 323 323 323 324 325
314 316 316 315 317 318 322 321 322 321 322 321 321 320 320 318 317 320 321 320 319 320 320 324 323 324 324 323 325 327 328 328 328 329 329 329 329 328 328 327 326 324 322 324 323 323 322 323 324
315 315 315 316 317 318 318 320 321 321 321 321 320 319 319 318 318 318 319 318 319 320 321 322 324 324 325 325 326 328 327 328 329 329 329 330 330 329 328 326 324 321 323 323 323 322 322 323 323
314 313 313 314 317 318 318 319 320 321 320 318 319 320 319 319 316 316 317 318 320 321 322 324 325 326 326 326 328 327 329 328 328 328 329 329 329 328 327 324 321 320 324 323 322 322 321 323 323
315 314 314 316 319 319 319 320 319 319 320 319 320 320 320 318 319 318 316 318 320 322 324 325 325 326 326 328 327 328 329 328 328 328 329 329 328 328 327 325 322 325 324 323 322 321 322 322 323
315 316 316 316 319 319 320 320 320 320 320 319 318 319 318 317 319 319 316 318 320 322 324 325 326 327 327 328 326 328 328 328 328 327 328 328 327 326 326 326 324 325 324 322 322 322 322 322 323
318 317 317 319 320 319 319 323 320 319 321 319 318 317 318 318 320 318 316 318 321 322 325 326 326 327 328 327 327 327 328 328 327 327 327 327 325 325 325 325 325 325 323 322 321 322 323 323 324
319 318 318 320 320 319 320 320 320 319 320 320 319 318 316 316 320 318 317 320 322 324 326 326 327 327 327 327 328 329 329 327 327 326 326 326 325 325 325 324 324 323 323 323 322 322 323 324 325
316 316 317 317 317 320 319 320 320 320 321 320 319 319 320 318 319 317 318 321 323 325 326 327 327 328 327 328 329 329 327 326 326 326 326 325 325 326 325 324 324 324 325 324 323 322 323 324 325
315 313 315 318 319 321 319 320 319 319 319 319 320 318 319 320 320 319 320 319 320 323 326 327 328 326 327 328 329 328 327 325 325 325 326 325 325 326 325 324 324 325 325 325 325 324 324 324 325
316 315 315 318 322 324 320 324 323 320 320 319 319 318 319 321 320 320 320 319 320 323 326 326 326 326 328 329 329 327 327 324 324 324 326 324 325 325 325 324 324 325 325 326 326 325 325 325 325
315 314 315 319 320 321 321 321 321 320 320 319 319 320 320 321 320 320 319 319 320 323 325 327 325 325 328 327 328 327 327 324 324 324 324 324 324 325 325 324 324 325 326 325 327 326 327 326 325
312 313 316 315 320 323 321 322 323 322 320 322 322 320 320 320 321 320 319 319 321 323 326 325 325 325 325 325 328 327 327 325 324 324 323 324 323 324 324 323 324 324 326 326 327 328 328 328 329
311 313 313 315 315 321 322 322 318 321 319 321 320 319 320 322 322 321 319 319 321 323 325 325 325 324 323 327 327 327 328 327 324 324 322 323 323 323 323 323 323 324 327 328 327 328 327 327 328
313 313 313 316 318 317 320 322 319 318 317 317 319 320 320 321 321 321 319 318 319 322 323 323 324 325 324 327 326 327 328 327 326 324 323 324 323 323 323 325 325 326 328 328 328 328 327 327 327

GFSSGP_925_thetae_009.txt.gz
Theta_e
309 310 319 326 331 335 334 339 334 337 335 326 324 326 328 329 336 330 329 333 333 326 319 319 319 321 320 318 318 318 319 319 319 319 319 318 318 323 322 324 324 322 328 333 333 332 331 330 329
309 319 327 332 335 341 342 339 341 337 335 332 325 324 325 327 328 332 336 334 333 327 317 320 317 321 322 320 319 319 320 321 321 321 323 326 325 328 330 332 332 333 333 332 335 335 334 332 331
318 322 334 339 343 345 343 338 338 336 333 328 328 323 325 328 330 332 335 334 331 327 324 318 317 320 323 321 320 320 321 322 322 324 326 329 327 324 327 333 334 333 333 333 335 335 335 335 333
322 329 333 337 340 341 340 338 338 337 330 324 324 326 326 326 330 330 333 334 331 327 330 327 319 319 323 322 321 321 321 323 324 326 330 332 332 333 334 336 336 335 334 334 335 333 333 335 335
330 335 332 338 337 337 338 338 336 334 331 327 324 326 328 326 326 327 333 335 332 328 329 331 320 320 323 322 322 322 323 324 326 329 334 336 335 336 337 336 335 335 335 334 333 332 332 332 334
331 334 335 331 330 332 332 332 332 330 329 327 325 326 328 325 327 328 333 335 334 332 327 333 327 321 323 323 323 323 324 326 328 328 332 335 336 336 336 335 336 335 335 334 334 332 331 331 331
331 334 330 331 329 329 328 329 330 330 328 329 326 327 328 327 327 329 332 336 334 333 331 333 338 325 324 323 323 324 326 326 326 326 331 333 333 332 331 330 330 331 332 333 333 332 330 331 332
330 333 332 332 329 328 327 327 325 327 329 325 325 328 330 329 325 327 332 335 334 336 336 337 338 340 339 339 326 326 327 326 324 329 331 328 326 324 325 325 326 325 329 330 329 329 330 331 331
326 331 331 329 328 328 326 327 326 326 329 327 325 328 328 326 325 331 335 335 334 335 337 337 338 341 340 340 340 330 330 326 326 328 326 326 328 329 327 326 323 325 327 328 329 329 330 330 330
330 332 331 329 328 328 327 327 328 328 328 329 328 328 325 325 326 329 334 334 334 335 336 336 335 340 339 340 341 340 339 335 334 333 330 330 331 328 327 325 323 323 327 329 330 331 330 332 328
329 331 330 329 328 327 327 328 328 328 329 329 329 329 329 329 327 328 331 332 333 334 336 336 337 335 338 340 340 339 336 334 334 326 325 327 327 328 327 327 327 326 325 326 327 327 327 329 330
328 328 329 329 328 328 328 328 328 329 330 329 329 329 328 329 329 328 330 332 333 333 335 337 337 334 334 339 336 335 333 330 329 328 326 327 329 329 327 326 326 325 325 326 327 327 327 328 330
328 327 328 328 328 328 328 328 329 328 328 327 328 329 329 330 329 327 327 328 331 332 333 337 335 333 335 334 334 330 328 327 326 326 326 327 329 329 328 327 327 327 325 327 328 327 327 327 329
324 326 326 327 328 328 328 328 328 328 328 328 329 329 329 329 328 326 326 326 327 329 330 333 334 335 336 332 328 326 324 323 325 326 327 326 328 328 328 327 327 327 326 326 327 326 326 326 328
324 327 327 327 327 327 324 324 324 325 325 326 326 327 328 328 326 326 326 326 326 326 326 329 333 336 334 330 327 324 322 324 326 327 327 327 327 328 328 329 328 327 325 323 323 326 326 326 327
319 319 320 320 320 320 320 323 323 324 325 326 327 327 326 327 328 326 326 326 327 325 324 325 331 333 332 329 325 322 324 326 327 328 328 328 328 328 329 329 329 328 325 323 325 325 325 325 326
319 320 320 320 319 319 322 322 321 322 323 324 325 325 326 326 328 327 326 326 325 323 323 323 327 330 329 324 322 322 325 327 328 328 329 329 329 329 328 329 329 327 326 325 325 325 325 325 326
320 319 319 320 320 318 319 321 322 322 322 324 325 326 326 326 327 326 325 324 323 323 320 321 326 328 324 324 322 325 326 327 328 328 329 330 330 329 328 328 327 326 326 325 325 325 325 325 326
319 321 322 322 319 318 318 319 322 322 323 324 324 325 326 328 327 322 322 322 323 324 325 327 328 326 325 326 327 329 330 330 330 328 328 330 330 329 328 327 326 323 324 326 325 325 324 324 325
317 319 320 318 317 318 319 320 322 322 322 323 325 326 327 328 327 324 322 322 324 325 327 328 328 325 326 327 328 329 330 330 330 328 329 330 330 329 327 326 325 322 325 326 325 324 324 324 326
316 316 318 318 318 318 319 320 320 321 323 323 323 325 326 327 328 327 323 323 325 325 327 328 328 326 326 326 327 327 328 329 330 330 330 329 328 327 327 326 326 325 325 325 325 324 324 325 325
317 316 316 317 318 319 321 322 322 321 322 322 323 326 327 327 325 326 324 324 325 326 327 328 328 326 326 327 328 330 332 332 330 330 329 328 325 327 327 327 326 326 326 325 324 324 325 325 325
316 316 317 318 320 321 321 322 321 322 322 323 323 324 327 324 325 326 325 324 324 326 327 328 329 328 328 327 329 330 332 330 329 329 329 328 327 327 326 326 326 326 325 326 325 324 325 325 326
317 318 320 320 320 321 320 322 322 322 322 322 324 326 325 326 326 324 324 324 325 327 328 328 329 330 328 329 328 331 331 330 329 329 329 328 328 326 327 326 326 326 326 326 325 325 326 327 325
319 320 319 319 321 321 320 322 322 321 321 322 324 327 326 328 326 325 326 326 326 327 328 328 329 329 329 330 330 330 330 328 329 329 328 328 328 326 327 326 325 325 326 325 326 326 326 327 328
320 319 320 323 323 321 322 322 321 323 323 322 324 326 326 328 327 326 326 327 327 328 328 328 329 329 329 330 331 329 328 327 327 327 328 327 327 327 326 325 325 325 326 327 327 328 327 327 325
318 320 319 318 323 324 325 325 325 325 325 327 326 324 327 329 327 326 326 326 327 328 329 329 329 329 330 331 330 328 328 324 327 326 326 326 326 327 326 326 324 325 327 327 329 329 329 328 328
314 316 318 318 318 319 320 325 327 328 327 327 327 327 328 328 327 326 326 326 326 328 329 329 328 328 330 329 330 329 328 326 327 326 326 327 326 327 326 326 327 329 329 330 329 329 329 330 329
314 318 317 318 318 319 318 319 327 329 329 328 328 328 328 329 327 326 326 326 326 327 328 328 327 327 327 328 330 329 329 327 327 326 326 325 326 326 326 326 327 328 330 328 328 330 329 329 329
315 316 318 317 320 318 322 321 325 328 327 326 326 327 327 328 327 326 326 326 326 326 328 327 327 327 326 329 329 329 330 328 327 326 326 325 325 325 326 327 327 328 329 328 330 328 327 328 328

GFSSGP_925_thetae_012.txt.gz
Theta_e
310 318 324 330 334 329 332 337 337 339 337 332 332 332 332 331 331 333 335 340 339 331 337 327 317 317 318 317 317 317 317 318 318 317 316 316 316 315 315 315 321 327 331 333 334 333 332 331 331
320 321 327 333 331 334 339 340 341 337 336 334 333 333 332 331 330 331 334 338 337 331 337 337 320 318 320 318 318 318 318 319 319 319 319 320 320 320 321 324 328 327 332 333 334 336 335 334 333
319 325 334 333 336 340 340 339 338 336 334 329 332 329 329 331 331 332 338 339 337 332 335 338 323 318 321 320 319 319 318 320 320 321 322 322 322 323 326 331 333 334 334 334 334 336 336 336 335
325 329 332 335 340 340 343 338 337 337 333 329 329 330 330 329 331 333 338 339 337 333 333 337 326 318 321 322 320 320 319 320 322 323 324 325 326 326 327 333 335 336 335 335 334 336 335 335 336
328 333 332 331 331 333 335 338 339 337 334 331 329 331 330 330 330 332 336 338 336 335 335 336 327 320 320 323 322 320 320 321 323 324 326 330 332 332 334 337 337 337 336 336 336 335 333 333 334
334 332 331 329 328 329 332 331 331 333 332 332 330 331 331 330 330 331 334 337 336 335 336 339 336 322 319 322 323 322 321 322 324 325 326 330 333 335 337 337 337 337 337 335 335 335 335 332 332
332 333 331 330 330 330 330 330 331 332 332 331 331 331 331 330 330 330 334 335 336 335 335 340 344 341 319 321 324 323 322 323 326 326 327 330 333 337 334 335 332 331 332 333 334 335 335 333 332
329 331 333 332 333 332 330 329 329 331 331 331 330 331 332 332 330 331 333 334 335 336 336 335 341 343 340 338 327 324 324 325 327 328 329 331 335 332 326 325 326 328 329 330 331 332 332 332 332
329 332 333 333 332 331 330 330 330 330 331 330 330 329 330 329 329 331 333 335 335 335 336 336 338 341 340 337 340 332 328 329 331 331 330 333 331 330 331 330 327 323 326 328 329 330 330 330 331
332 333 332 332 331 331 331 330 330 330 331 331 331 330 330 329 330 331 332 332 334 335 335 337 339 341 340 336 338 343 339 337 336 334 334 334 331 333 331 329 327 324 325 328 329 330 330 331 330
331 334 332 331 331 331 331 331 330 330 331 330 331 331 331 330 330 331 332 333 332 334 335 336 339 342 341 337 339 341 338 337 337 336 334 332 332 332 331 330 329 329 328 327 327 329 329 329 328
331 331 331 331 330 331 331 331 330 330 331 330 330 330 330 330 330 332 333 333 331 332 334 336 337 343 343 338 340 338 337 337 335 333 333 333 333 332 332 330 329 329 328 326 328 328 329 329 329
327 329 330 329 330 330 330 330 330 331 330 330 329 330 330 330 330 329 333 332 331 331 333 336 338 342 343 341 340 338 335 334 332 330 332 333 332 332 332 331 330 329 329 326 327 329 329 329 328
324 325 326 328 328 329 329 330 330 329 329 329 329 327 327 327 329 329 331 331 332 332 333 336 339 342 343 342 340 338 335 332 332 329 332 333 332 332 332 331 330 329 329 329 328 328 328 328 328
325 326 326 326 327 327 328 330 329 328 328 328 327 326 327 327 328 330 329 330 331 333 333 337 339 342 343 342 340 336 333 332 329 331 333 333 333 332 333 332 331 330 331 330 328 328 327 326 327
324 326 328 327 327 327 328 330 327 326 326 326 326 326 326 326 327 328 329 330 332 333 333 335 338 341 344 341 339 334 331 329 329 332 333 334 333 333 333 332 332 331 331 331 329 327 327 326 326
324 327 328 328 327 324 324 327 327 327 326 326 326 326 326 327 327 327 328 329 331 333 333 334 336 340 342 340 336 333 331 330 331 332 333 333 333 333 332 331 331 332 330 330 328 327 327 327 326
325 325 325 327 327 324 325 326 326 326 325 325 325 325 326 327 327 325 328 330 330 332 333 332 336 339 341 338 334 330 330 331 332 332 333 333 333 333 333 331 333 330 330 328 327 327 328 327 326
323 325 326 326 326 326 326 326 326 327 325 325 326 326 326 327 329 329 330 329 330 331 331 332 335 338 337 334 330 329 329 331 332 332 334 334 333 333 332 331 331 331 329 327 327 328 327 326 327
322 324 326 326 326 326 326 325 325 325 325 325 326 325 327 328 328 331 331 330 330 331 332 333 335 336 334 330 328 328 329 331 331 332 334 334 333 332 332 332 331 329 326 326 327 327 326 326 326
320 322 323 323 323 324 324 324 324 324 325 324 325 326 328 327 327 332 332 331 331 331 333 334 335 334 331 330 332 333 333 333 332 333 333 333 333 332 331 330 330 328 327 328 328 327 326 326 327
321 320 319 320 322 324 322 325 325 324 324 324 325 326 327 327 330 332 333 332 332 332 332 333 334 333 332 332 330 330 329 329 331 332 332 331 331 329 329 330 329 328 329 328 327 326 326 327 328
320 318 319 320 321 322 322 323 323 324 325 325 326 327 328 327 331 332 332 331 331 331 332 333 333 333 333 331 330 331 331 331 332 331 332 331 331 330 328 329 329 328 328 328 327 327 327 328 329
318 318 319 320 321 323 322 323 324 325 326 326 326 325 326 331 332 332 331 330 331 331 332 332 333 332 332 332 332 333 334 333 332 331 331 330 331 330 329 328 328 328 328 328 328 327 328 329 329
317 320 323 324 325 324 323 323 324 327 327 325 325 328 332 333 333 333 333 332 331 331 331 332 332 332 332 332 332 334 335 334 333 332 330 331 330 330 329 329 329 329 330 329 328 328 328 329 330
318 321 321 323 323 323 323 324 325 325 324 327 324 326 330 334 334 333 333 332 331 331 331 330 331 331 331 331 333 334 334 331 331 331 329 330 330 329 329 329 329 330 330 330 330 329 329 329 329
320 321 321 320 323 325 325 326 327 326 326 325 329 328 331 334 334 333 332 332 330 331 331 331 331 330 330 330 334 334 334 332 331 331 330 329 330 328 329 329 329 329 329 331 331 331 330 330 330
320 321 322 320 324 323 321 326 329 328 327 326 327 330 333 334 333 333 332 332 331 331 331 331 330 329 330 333 333 333 333 332 331 330 329 329 329 328 329 329 330 330 330 331 331 331 331 331 331
319 322 321 322 320 323 323 323 323 327 328 330 331 333 334 334 333 332 332 331 331 331 332 332 329 329 330 332 332 332 332 332 331 330 328 329 329 328 328 328 329 329 330 332 332 331 331 331 331
318 320 322 321 322 321 321 321 326 328 329 330 331 333 334 334 332 332 332 331 331 331 331 330 328 328 330 331 331 332 331 332 331 330 329 328 328 328 327 328 328 328 331 331 330 329 329 330 331

GFSSGP_925_thetae_015.txt.gz
Theta_e
309 318 325 329 334 330 335 335 336 337 337 335 334 334 333 332 332 333 336 338 336 336 342 325 314 315 315 314 315 315 315 316 317 316 316 316 316 316 315 317 324 328 330 332 334 334 333 333 332
319 321 327 334 331 334 334 335 337 338 337 336 335 334 334 333 332 332 335 339 337 336 343 338 317 316 317 316 316 317 316 317 318 318 318 318 320 320 320 321 327 333 333 333 334 335 336 335 334
324 323 332 333 334 335 338 340 339 337 336 333 333 332 331 332 333 332 339 339 337 335 344 340 324 317 318 318 317 318 317 318 319 319 320 321 322 324 326 329 332 334 335 335 335 334 337 338 336
322 327 332 338 337 336 337 339 337 337 336 333 331 331 332 331 331 332 336 338 336 335 341 341 336 318 318 319 319 319 318 318 320 320 321 322 324 325 327 331 333 335 336 337 336 335 336 337 336
325 331 333 333 331 332 335 335 339 339 336 334 332 332 332 332 332 333 335 337 337 336 336 343 338 323 319 321 320 320 319 319 320 322 323 325 326 328 329 335 337 338 338 338 336 336 336 336 335
330 331 337 334 331 330 331 332 332 333 334 333 332 332 332 331 331 332 334 336 336 336 336 338 339 334 320 321 322 321 320 320 321 323 324 327 328 330 335 339 338 338 338 337 337 335 336 336 334
330 335 335 333 331 330 331 332 332 331 332 332 332 332 332 333 333 332 332 334 335 336 336 337 347 341 332 322 323 323 321 321 321 323 325 327 326 331 338 337 337 335 333 332 332 334 335 334 335
329 332 333 334 333 331 332 332 331 331 331 332 332 332 332 333 332 330 330 332 333 335 336 337 340 348 345 340 333 325 323 322 322 324 326 327 327 333 332 330 327 326 328 327 327 330 332 333 334
327 331 333 333 333 332 331 331 331 331 332 331 331 332 332 330 331 331 331 331 332 334 335 336 337 342 344 339 340 331 327 324 325 329 330 330 334 334 336 334 332 329 327 324 327 328 330 331 332
327 332 333 332 332 332 332 332 332 332 332 331 331 331 331 331 331 332 331 329 331 332 335 336 337 339 343 339 337 344 340 339 339 337 336 339 336 334 334 334 331 328 327 323 323 324 328 330 329
329 331 333 333 332 332 333 333 332 332 333 331 331 331 332 331 331 331 329 329 330 332 334 336 339 339 341 340 337 344 342 340 339 339 338 337 334 333 335 334 333 332 332 331 330 331 331 330 329
331 331 332 332 332 332 332 331 332 332 332 331 330 331 332 331 331 331 330 330 330 333 333 336 338 341 343 340 337 339 342 339 338 339 339 337 334 335 335 333 333 332 331 331 329 328 328 331 330
328 329 330 331 331 331 331 331 332 332 331 331 330 331 331 331 329 328 328 329 330 334 333 334 338 343 345 344 338 339 339 338 338 336 336 335 334 335 334 334 333 332 331 330 329 329 330 331 331
327 327 327 328 328 330 331 331 331 331 331 330 330 331 331 330 328 328 328 329 329 333 334 334 339 342 345 345 343 341 340 337 336 334 332 334 336 335 334 334 333 331 331 331 331 329 329 329 329
328 329 329 329 328 328 328 330 331 330 330 330 330 330 330 329 328 329 327 329 330 332 334 336 339 342 345 347 344 342 340 337 335 334 332 334 336 336 335 333 334 333 331 333 332 331 330 329 328
328 329 331 329 328 328 329 331 330 330 330 330 329 329 328 328 328 328 328 328 331 332 335 336 338 343 347 347 345 342 338 337 333 331 333 336 336 336 335 334 335 333 334 333 330 331 330 328 327
329 331 330 329 329 329 330 331 330 329 329 330 330 329 328 329 329 329 328 328 330 332 335 337 339 341 347 347 345 342 338 335 331 331 333 334 335 335 334 334 335 335 334 333 331 330 330 329 328
327 329 328 329 328 329 330 331 330 328 328 328 329 329 329 328 329 329 328 328 329 333 335 338 340 342 347 347 344 340 336 334 331 332 333 334 335 334 335 335 335 334 333 332 331 330 330 329 329
325 326 327 327 328 328 328 329 329 328 328 328 329 330 330 328 329 329 328 332 334 334 337 340 340 342 347 345 341 336 334 333 332 332 333 335 335 333 334 335 334 332 332 332 330 330 328 329 329
322 324 326 327 328 329 329 329 329 329 329 328 328 329 329 328 329 329 329 336 335 336 337 338 340 343 345 342 338 333 332 332 332 332 334 335 334 334 333 334 334 333 333 331 329 329 329 329 329
323 324 325 326 327 328 329 329 329 328 328 327 327 327 328 329 329 330 330 337 336 337 337 338 340 343 341 337 334 332 332 334 334 331 333 335 334 333 333 333 332 332 331 329 329 329 329 329 329
322 323 324 325 327 328 327 331 328 328 327 327 327 327 328 328 329 330 330 338 337 337 338 339 341 340 336 333 334 335 333 331 331 333 331 334 332 332 331 331 331 331 330 330 330 329 328 327 329
321 322 324 325 325 326 325 327 326 326 327 327 327 327 328 328 329 329 334 337 336 337 338 339 339 337 335 335 333 333 330 330 332 331 333 334 333 332 331 330 330 330 330 330 330 329 329 330 330
319 321 323 325 325 327 325 326 327 326 326 327 328 328 328 329 330 332 337 336 336 336 338 338 337 336 336 334 334 334 333 332 331 332 333 333 333 333 332 329 330 330 331 330 329 330 329 331 332
320 323 325 327 328 329 325 326 326 326 326 327 328 328 328 332 335 337 337 337 336 336 337 337 336 336 334 333 334 334 334 335 335 334 332 333 332 333 331 330 331 331 331 331 330 329 330 331 332
320 323 325 329 328 326 325 326 326 326 327 326 327 327 334 336 336 337 336 337 336 336 335 335 335 335 333 333 333 333 334 333 332 333 332 331 333 332 330 331 331 332 331 331 330 330 330 330 331
320 323 323 326 326 328 327 326 327 328 329 327 328 327 334 337 337 337 337 337 335 335 334 334 334 333 333 332 333 333 334 333 334 334 332 331 332 330 330 331 332 331 331 332 332 332 331 331 332
320 321 323 327 328 328 327 328 326 329 328 327 329 329 332 337 337 337 337 336 334 334 333 334 333 333 332 332 332 333 333 333 333 333 332 330 331 329 330 331 332 332 332 333 332 334 333 333 333
319 321 322 324 325 327 328 326 326 329 329 328 328 331 336 337 337 336 336 335 334 334 334 334 333 331 331 332 331 332 332 333 332 332 330 331 329 328 329 329 330 330 333 332 333 333 332 332 333
319 321 323 326 327 324 325 327 328 327 329 332 332 335 337 336 336 335 335 335 334 334 334 334 331 330 331 331 331 331 332 333 333 331 330 330 329 328 328 329 328 329 332 332 331 331 331 332 332

GFSSGP_925_thetae_021.txt.gz
Theta_e
319 309 317 326 325 326 329 331 330 337 335 331 331 332 332 331 334 339 338 341 339 332 323 320 319 316 315 315 315 314 313 315 315 314 314 314 315 315 317 318 319 323 328 329 330 330 332 333 332
318 315 321 326 327 331 330 328 336 337 337 333 330 331 330 339 339 337 341 339 337 332 323 320 318 316 315 316 316 315 314 316 316 316 316 317 318 319 318 318 321 329 331 331 332 333 334 336 336
319 322 319 326 332 332 330 330 340 340 339 335 333 331 330 333 336 337 339 339 339 334 325 322 317 315 315 316 316 316 315 316 317 317 318 319 321 322 323 324 326 331 333 335 335 335 335 335 338
322 325 320 329 334 334 332 333 340 340 338 337 334 331 331 333 333 336 340 338 340 338 331 322 316 315 315 316 316 316 316 316 318 318 319 320 322 323 324 327 331 332 334 335 337 337 337 336 336
325 322 322 327 330 332 330 329 339 340 339 338 336 334 333 332 334 335 341 338 336 338 337 329 319 316 316 317 316 317 317 317 318 319 319 320 321 322 324 327 330 334 336 338 338 339 338 336 335
320 320 326 329 330 331 331 330 329 333 329 329 331 334 333 333 333 334 335 338 336 336 338 336 324 318 317 317 317 317 318 318 318 319 320 320 321 321 322 325 329 334 339 338 338 337 336 335 334
322 320 325 327 329 330 331 329 329 329 329 330 330 332 331 332 332 333 334 334 338 336 337 340 332 322 319 318 318 318 318 318 318 319 320 321 321 321 322 322 329 334 332 332 328 327 328 331 332
322 320 323 324 329 331 331 330 328 330 330 330 330 331 331 332 333 332 331 331 331 338 337 339 340 334 321 318 319 319 319 320 320 320 321 323 323 322 322 327 331 331 329 326 329 328 326 325 330
325 320 321 324 327 329 329 329 330 330 331 331 331 331 330 331 330 330 331 331 331 334 339 340 341 338 333 322 319 320 320 321 321 321 322 325 325 323 323 334 336 336 333 332 330 328 326 320 323
334 322 321 322 324 327 328 328 329 330 331 332 332 331 331 331 330 329 329 328 330 330 338 338 340 338 337 333 324 320 321 322 324 324 323 325 325 324 330 336 335 335 333 332 330 328 323 323 325
334 334 326 324 324 325 327 329 330 331 331 330 331 331 331 329 329 330 330 330 330 330 331 341 338 338 338 339 337 329 323 323 327 327 325 326 326 332 336 335 334 333 333 331 331 330 330 328 329
328 327 329 327 325 325 326 328 329 329 328 328 328 328 330 329 329 328 328 329 330 330 328 337 339 340 342 341 339 334 330 328 329 329 327 331 335 338 338 336 335 336 335 333 332 331 331 330 332
325 325 326 327 326 326 326 327 328 329 329 328 327 327 327 327 326 329 330 330 330 330 329 331 338 344 343 343 341 340 339 338 335 330 331 334 337 339 337 333 334 335 334 333 332 332 331 331 332
323 325 325 325 326 327 328 328 327 327 326 326 326 325 326 327 327 328 329 329 330 330 328 331 337 342 344 344 342 341 341 340 339 340 338 338 338 338 335 335 337 336 334 333 332 332 331 330 330
318 320 323 327 325 325 325 326 327 326 326 326 326 326 326 326 326 326 329 329 330 329 328 330 337 340 344 344 343 342 342 342 343 341 341 340 340 338 335 336 336 335 334 333 331 331 331 331 330
318 319 320 320 324 326 326 328 326 326 327 327 328 327 327 326 327 329 328 330 330 329 328 330 337 339 340 345 344 343 344 345 344 342 342 341 339 335 335 336 335 335 334 335 333 332 331 330 330
320 320 320 321 322 323 325 327 327 327 327 327 328 327 327 327 326 328 330 329 328 328 328 332 337 339 341 342 344 346 343 343 343 339 336 336 334 335 336 335 335 334 334 335 334 332 331 330 330
321 322 321 321 322 324 325 326 326 326 326 327 327 327 327 327 325 326 327 330 330 328 329 332 337 342 345 346 345 344 345 343 339 338 336 334 333 334 335 336 335 334 335 334 332 331 330 330 328
319 321 322 322 322 324 325 325 326 326 325 325 325 326 326 326 325 326 330 331 328 333 334 337 340 348 349 349 347 346 345 342 340 336 335 335 335 336 337 334 333 334 333 333 332 330 330 329 328
317 317 318 321 323 323 324 325 326 327 326 325 325 326 326 326 327 326 327 327 332 336 340 344 346 351 350 349 348 345 344 338 337 334 333 334 336 335 334 333 332 332 332 331 330 329 329 329 328
316 317 317 318 321 321 321 322 322 323 324 326 326 324 326 325 325 324 323 325 338 339 343 345 351 351 350 348 347 346 341 338 336 334 333 333 334 335 334 333 332 331 330 330 330 329 329 328 327
316 317 318 319 320 321 321 323 322 322 324 325 326 325 326 324 324 325 324 335 339 341 343 345 352 350 350 347 346 342 338 337 336 334 335 335 335 334 331 331 330 330 331 331 330 329 328 328 328
317 318 317 319 318 318 320 322 322 324 325 323 324 324 324 324 324 325 326 337 341 341 341 343 350 348 347 345 342 340 336 336 334 335 334 336 335 333 332 331 331 330 329 329 329 329 329 328 327
315 317 317 317 317 318 319 322 322 322 323 325 325 324 324 323 324 329 338 339 340 342 343 347 347 345 342 341 336 334 334 335 336 334 335 334 334 333 333 332 330 329 329 330 330 329 329 329 328
313 313 317 319 319 320 318 321 323 323 324 324 324 324 328 332 337 339 339 339 340 342 344 345 343 341 339 336 335 335 334 335 335 334 334 334 334 332 332 332 329 329 330 331 331 329 327 329 329
308 313 315 320 321 319 319 322 322 323 324 324 324 323 336 338 337 338 338 338 340 341 342 341 340 337 338 336 335 335 334 333 333 333 332 333 332 332 330 330 330 331 332 332 332 329 329 329 328
309 310 314 316 319 319 320 321 321 321 322 324 324 325 336 337 338 338 336 337 340 340 339 340 337 336 337 334 336 334 334 334 335 333 332 332 332 330 330 330 332 332 332 332 331 330 329 329 328
311 312 315 315 318 321 322 321 323 325 324 325 325 335 336 337 337 336 336 337 338 339 339 339 337 336 336 335 334 334 335 333 333 333 332 332 330 331 330 329 331 332 331 330 330 329 329 330 328
313 310 312 315 316 320 322 323 323 325 326 326 327 336 336 336 337 336 337 337 337 338 338 338 337 336 335 336 333 331 331 332 331 331 331 330 329 330 329 330 332 330 329 330 330 329 329 328 328
314 316 313 316 318 319 321 324 326 329 328 323 329 336 335 336 335 336 337 335 336 336 338 337 336 336 333 335 333 330 332 331 331 330 330 330 327 327 329 329 330 330 330 330 330 330 327 326 325

GFSSGP_925_thetae_024.txt.gz
Theta_e
323 312 319 326 324 324 327 329 327 330 335 333 328 330 332 331 334 336 335 339 340 336 323 321 319 315 315 316 316 314 313 314 314 313 313 314 314 314 314 314 313 315 319 321 323 327 330 330 331
319 316 321 325 325 329 329 325 327 336 336 336 333 329 337 339 337 340 340 341 337 327 323 321 319 316 316 316 316 315 314 315 314 314 315 315 316 316 316 316 318 321 327 329 330 331 332 334 335
318 320 318 324 328 329 329 330 335 338 337 336 335 333 333 337 337 338 338 341 333 327 323 321 319 316 316 316 316 316 314 316 316 316 316 317 317 318 319 319 321 327 332 332 333 334 334 334 337
321 323 318 324 331 331 332 332 336 338 336 334 334 333 330 332 334 338 339 338 334 328 324 321 319 316 316 316 316 316 315 316 316 316 317 318 318 319 320 321 323 326 332 335 336 337 337 336 335
323 319 320 324 327 329 330 330 332 336 336 336 334 334 332 334 337 337 337 337 336 329 324 321 319 316 316 316 316 317 316 316 317 317 317 318 318 320 320 321 324 327 331 335 337 338 338 337 336
320 317 323 325 325 327 328 329 330 337 337 334 335 333 332 334 339 339 337 337 337 334 328 324 320 318 316 317 317 317 317 316 317 318 318 318 319 320 321 321 324 329 334 336 339 338 335 333 333
321 318 322 325 327 328 329 329 328 333 330 330 329 331 331 331 335 338 337 336 336 336 335 329 322 317 317 316 317 317 318 317 317 318 318 319 320 321 322 321 323 330 334 335 334 331 327 328 328
319 317 321 322 325 326 329 327 327 327 329 329 329 332 332 329 332 335 338 339 337 337 337 335 330 318 317 316 317 317 318 318 317 318 319 320 320 322 322 322 324 330 331 329 328 328 328 328 327
322 320 319 322 324 325 326 330 331 328 329 329 330 329 330 331 332 331 331 329 337 339 338 338 335 324 318 317 317 317 318 318 318 318 319 320 322 323 323 322 330 333 334 332 331 330 329 326 325
331 326 321 320 322 323 322 325 326 327 328 330 330 330 330 330 329 327 326 326 329 339 340 339 339 334 323 322 321 319 318 319 319 319 319 321 323 324 324 323 333 335 336 334 332 330 328 324 323
332 334 326 323 324 323 322 323 324 325 326 328 331 329 328 329 327 326 328 329 329 329 333 338 338 339 335 328 325 325 321 320 322 322 322 322 324 326 325 327 335 334 335 335 332 330 329 328 327
331 331 334 333 331 327 324 323 324 324 325 326 326 326 328 328 326 325 326 328 329 329 330 331 337 340 340 338 329 328 328 324 328 327 325 323 326 326 326 334 335 334 333 334 333 331 330 331 329
318 327 327 327 327 328 327 327 325 325 325 326 326 325 324 324 323 325 327 328 329 329 327 330 337 339 340 340 337 335 331 328 331 330 327 325 327 326 332 337 336 335 335 334 333 332 331 331 330
315 318 322 324 323 324 325 326 326 327 327 327 325 324 323 322 322 324 326 327 328 329 329 330 336 338 341 341 339 338 337 333 332 332 328 327 327 328 335 338 336 333 334 334 332 332 332 330 330
314 315 316 317 320 324 324 325 325 325 325 325 324 324 323 322 323 323 326 326 328 329 328 329 333 338 340 341 340 340 340 338 335 332 329 327 328 330 336 337 334 335 335 333 333 331 331 331 330
317 316 317 318 318 319 323 327 326 324 324 324 324 325 325 324 324 325 326 327 328 328 329 328 332 337 341 343 341 341 341 340 339 338 336 338 336 336 338 336 336 336 335 334 333 333 331 331 331
315 319 317 318 318 320 321 323 324 325 325 324 324 324 325 325 325 324 326 327 328 329 328 328 332 334 338 344 343 342 342 342 341 339 340 340 339 339 338 335 336 335 335 333 334 334 332 331 330
317 318 318 319 319 320 320 321 321 322 322 323 323 324 324 325 324 324 326 327 328 329 329 329 330 335 340 344 343 342 343 343 342 342 342 341 341 340 337 335 334 334 334 334 333 333 332 331 330
317 318 319 319 319 320 321 322 322 322 323 322 322 323 324 324 323 324 324 325 328 329 328 330 335 340 341 343 346 343 344 344 344 342 340 339 339 334 335 335 335 335 334 334 332 331 330 330 329
313 315 317 316 317 320 320 321 321 322 323 323 323 323 322 322 322 323 324 327 328 328 329 332 335 341 344 344 344 344 341 340 338 336 336 335 334 335 335 336 334 333 333 332 331 330 329 329 328
314 314 315 316 316 315 316 318 319 319 319 320 321 322 321 322 323 323 323 323 324 331 335 336 339 345 347 346 344 344 341 337 336 335 335 335 334 336 335 334 333 332 331 330 329 329 329 328 327
314 314 315 315 316 317 317 319 318 318 319 319 320 319 319 321 321 322 322 321 331 335 342 346 347 348 348 347 345 342 337 335 335 334 333 336 336 335 334 333 331 330 329 330 330 329 329 328 326
312 315 315 316 316 315 316 317 318 319 320 320 320 321 320 320 321 321 319 325 335 341 347 349 349 349 347 347 345 343 338 337 337 335 334 335 334 334 333 331 330 330 330 329 329 329 329 328 327
309 313 314 315 314 316 316 316 317 317 319 320 320 320 321 320 319 319 330 337 338 342 349 349 349 348 347 346 344 342 338 335 335 335 335 335 334 333 332 332 331 328 328 329 329 329 329 328 328
307 309 312 315 316 318 316 316 317 317 318 319 319 320 320 321 330 336 337 338 340 343 345 345 346 344 343 340 338 335 335 335 335 334 335 334 333 333 333 332 331 329 329 330 329 330 329 328 328
305 306 311 315 318 317 316 317 317 317 317 318 319 320 331 335 335 336 337 338 341 342 342 340 340 339 338 335 335 334 334 334 334 333 333 333 333 332 331 331 329 328 330 331 331 330 328 328 328
310 306 307 311 313 316 317 317 317 317 317 317 318 330 335 334 336 337 338 339 339 338 339 338 338 336 335 335 334 333 333 333 332 332 332 332 331 332 328 329 330 331 332 331 332 330 329 328 328
311 311 310 309 314 315 318 318 318 320 319 319 318 332 335 336 336 337 338 338 337 337 338 336 337 334 335 334 334 333 334 333 332 331 330 330 331 328 329 329 331 331 331 331 330 329 329 329 328
310 311 308 309 312 316 318 318 316 317 319 322 320 335 337 337 336 337 337 336 336 337 336 335 335 334 335 334 333 333 332 331 331 330 330 330 329 329 329 329 331 330 329 330 329 328 328 327 327
311 311 313 312 310 314 316 318 317 318 318 321 334 337 336 335 335 337 336 335 336 335 335 335 335 334 335 333 332 333 331 331 330 330 330 329 329 330 328 329 331 330 330 329 330 330 328 328 327

GFSSGP_925_thetae_027.txt.gz
Theta_e
324 313 320 324 322 323 326 325 325 329 334 332 331 327 331 332 334 333 334 337 337 332 329 320 316 315 314 314 313 313 314 313 312 312 312 312 312 312 312 310 310 310 313 316 319 320 323 326 326
322 317 321 323 323 326 324 324 325 329 335 333 329 332 336 337 335 339 336 338 339 334 323 320 316 315 315 315 315 313 314 314 313 313 313 314 314 314 314 313 313 313 317 323 327 327 328 331 333
318 320 319 323 325 326 326 326 329 335 335 333 333 332 335 337 337 338 337 337 340 336 324 320 317 315 315 316 316 314 314 314 314 314 315 315 315 315 315 316 317 318 327 329 331 332 333 334 335
321 321 317 323 327 328 327 329 331 331 331 333 332 329 331 335 337 337 338 339 339 334 325 321 318 315 316 316 316 315 314 315 315 315 315 316 316 317 317 318 320 324 332 333 335 335 335 336 336
323 316 319 322 324 327 328 328 325 328 334 335 332 332 331 333 336 337 338 339 334 328 325 322 319 316 316 316 316 316 314 315 315 315 316 316 317 318 319 320 321 324 333 335 336 337 337 338 338
320 317 321 321 322 325 327 325 326 333 335 335 334 331 333 333 338 336 337 337 334 330 326 323 320 318 316 316 316 316 315 315 316 316 316 317 318 319 320 321 322 326 331 334 337 338 338 336 334
319 318 321 323 326 326 327 326 328 328 328 329 330 332 330 333 337 338 338 338 336 333 328 325 322 319 316 316 316 316 316 315 316 317 317 317 318 319 319 320 322 326 331 334 335 337 335 334 333
318 317 321 321 324 325 327 328 327 327 328 327 329 332 332 330 336 339 341 340 339 336 331 328 325 321 316 315 316 316 316 316 316 317 318 318 319 320 320 321 321 326 331 331 329 329 330 332 333
317 318 319 321 322 324 325 328 328 328 328 327 327 329 329 332 332 333 339 340 341 339 335 330 327 324 320 317 316 315 316 316 316 317 318 319 321 322 322 322 321 327 331 332 331 330 330 330 330
324 318 318 318 320 322 321 322 327 330 328 327 325 329 330 330 328 327 325 326 338 340 339 336 332 329 324 322 319 317 316 317 317 317 318 321 323 323 323 322 322 330 333 334 333 332 330 330 328
329 332 321 320 319 320 324 323 322 323 324 323 325 327 325 326 325 324 324 325 328 332 337 338 337 335 331 327 325 321 319 318 319 319 320 322 323 325 325 324 323 331 334 335 335 333 331 330 328
332 330 330 328 326 329 329 327 326 322 323 323 323 323 324 325 324 323 324 326 326 327 330 334 337 338 337 332 329 324 325 320 322 323 323 323 325 326 326 325 324 333 333 333 335 334 331 330 330
319 326 328 327 328 330 332 333 331 328 324 324 323 324 324 323 322 324 325 325 327 325 326 330 334 338 339 337 332 329 325 325 324 325 326 325 325 325 325 325 326 334 334 333 334 334 332 330 330
314 318 318 320 323 324 325 325 325 325 325 325 325 325 323 322 321 321 322 323 324 326 327 326 331 334 340 340 337 333 329 330 329 329 328 327 326 324 325 325 331 335 334 334 334 333 332 331 331
313 313 315 315 315 318 322 323 324 324 324 324 324 322 321 321 321 320 324 325 326 327 327 326 326 331 339 339 339 338 336 334 332 330 331 330 327 325 325 326 334 336 334 333 334 333 332 331 331
315 313 314 316 316 316 319 324 323 323 323 324 323 323 323 321 320 323 324 325 326 326 326 327 326 329 337 340 339 339 339 338 336 334 333 331 329 327 328 328 337 336 334 335 334 333 332 331 331
314 318 316 316 317 318 318 323 322 321 322 324 324 323 322 323 321 322 324 325 325 326 326 326 326 329 334 338 340 340 339 339 338 337 335 332 330 328 329 331 337 335 336 335 333 333 332 332 331
317 317 318 318 316 318 318 319 320 320 320 321 320 320 320 320 321 322 323 324 324 325 325 326 326 331 336 340 341 340 340 340 339 339 336 336 334 334 333 336 336 335 334 334 333 333 333 332 331
312 315 317 317 316 317 318 318 319 318 319 319 320 320 321 321 320 321 323 324 324 324 325 327 326 329 338 342 341 340 340 340 340 340 340 338 339 337 337 337 335 335 334 333 333 333 331 331 330
310 312 313 315 316 316 317 319 318 318 319 320 320 320 320 320 320 320 320 322 324 325 326 327 327 329 336 340 341 341 340 339 341 341 340 341 340 340 339 337 334 334 334 334 333 331 330 329 328
310 312 313 314 315 315 314 316 315 316 318 319 319 319 319 319 319 319 319 321 324 324 326 327 328 332 338 341 343 341 339 339 339 340 341 339 339 336 338 333 335 334 333 332 331 329 328 328 327
308 311 313 314 314 315 314 317 315 315 315 316 317 316 315 317 318 318 319 318 320 324 325 331 334 338 343 342 343 340 337 335 334 337 337 334 335 335 334 335 334 332 331 330 329 329 328 327 325
309 310 312 313 314 313 314 314 315 314 315 315 316 315 317 317 316 317 317 316 319 323 330 340 342 344 345 344 343 339 335 335 335 335 335 334 334 335 335 334 331 330 329 329 329 328 328 328 327
308 311 310 311 312 314 314 315 315 314 315 315 316 316 317 316 315 315 319 324 332 338 344 345 345 345 345 344 342 340 337 334 333 333 335 335 335 334 332 331 331 330 327 327 328 328 328 328 328
307 305 310 313 314 317 314 315 315 315 315 315 315 315 315 315 315 322 335 334 338 342 343 344 344 342 344 343 341 340 338 337 335 334 334 333 333 332 332 332 331 330 328 328 329 329 329 328 328
304 304 308 315 316 314 314 316 315 314 314 315 315 314 314 319 330 333 334 336 339 340 341 342 341 340 342 341 339 339 337 335 334 334 334 334 333 332 332 331 330 328 328 328 330 329 329 327 327
310 305 305 306 310 311 314 314 315 315 315 315 314 314 317 326 332 335 336 337 338 337 338 340 337 335 335 335 334 334 334 334 333 333 333 332 332 331 330 329 328 328 330 331 330 329 329 328 328
308 309 306 305 311 314 314 315 316 316 316 316 315 315 321 332 335 337 337 335 336 335 336 338 336 334 333 333 333 333 333 333 332 332 332 332 331 330 327 328 329 330 331 330 330 330 329 329 328
309 311 309 306 308 313 315 316 314 315 315 315 315 316 330 334 336 338 336 334 335 334 334 333 333 333 332 332 332 332 332 332 331 330 330 330 328 327 328 328 330 330 329 329 329 329 329 328 327
309 310 311 309 309 309 312 313 314 313 313 314 324 324 334 334 336 336 335 334 334 332 333 332 333 333 333 332 332 331 331 330 329 330 330 329 329 329 328 329 329 331 329 329 330 329 327 328 326

GFSSGP_925_thetae_033.txt.gz
Theta_e
325 320 318 323 325 325 323 323 323 329 332 331 331 337 339 338 337 341 335 336 332 335 330 321 318 317 316 314 313 313 313 312 312 313 313 313 312 312 312 311 310 309 310 311 312 313 317 318 321
323 314 322 325 323 322 321 324 327 327 334 333 333 333 337 340 335 336 337 335 331 333 328 321 318 317 315 314 312 313 313 312 312 312 311 311 311 310 310 310 311 314 314 318 322 322 321 320 322
316 319 323 328 323 320 321 324 326 328 329 330 334 333 335 336 337 338 334 332 330 332 328 321 318 317 315 314 312 312 313 312 312 311 311 311 311 311 311 311 311 315 323 323 324 326 327 326 328
321 322 321 325 326 325 323 329 330 329 329 330 333 334 333 335 337 337 332 332 332 332 328 322 318 317 316 314 313 312 313 312 312 312 312 313 313 313 313 314 315 322 331 330 330 330 330 332 333
320 320 322 324 322 323 327 327 327 327 328 331 332 334 335 334 335 336 332 332 334 332 329 324 319 318 316 315 313 312 313 313 313 313 313 314 314 315 315 316 318 323 330 332 333 333 332 333 336
320 321 321 319 320 322 324 325 325 328 329 333 335 333 336 333 340 337 334 333 335 334 332 332 321 318 317 315 314 313 313 313 313 313 314 315 315 315 316 317 320 324 329 332 334 334 334 334 335
320 322 318 320 320 321 320 321 324 326 330 332 333 334 334 334 339 339 339 340 338 338 335 333 334 321 317 315 315 314 313 314 314 314 314 315 316 316 317 318 320 323 326 331 332 332 333 335 333
320 322 319 319 319 320 324 327 328 328 331 329 331 334 335 335 339 341 341 341 340 341 339 335 332 337 331 334 317 315 314 313 314 314 315 316 317 317 318 319 320 322 327 330 330 331 333 333 331
318 321 321 319 319 319 323 325 327 326 330 328 329 331 330 331 339 341 341 341 341 339 336 334 333 331 336 338 337 317 315 314 314 315 315 316 327 327 329 326 321 321 327 330 330 330 331 331 330
322 324 322 319 319 321 320 323 325 326 327 327 329 328 327 327 329 331 334 337 340 341 339 336 333 332 335 338 337 337 336 334 329 330 331 328 334 333 331 330 320 321 326 330 331 331 331 332 334
327 325 322 320 318 320 321 321 322 325 326 327 328 326 326 326 327 327 327 327 328 333 340 338 337 335 333 340 339 337 337 336 336 335 334 334 335 332 332 332 332 332 329 336 337 337 337 337 335
323 325 325 323 319 319 319 319 320 321 323 325 326 328 327 327 328 329 327 327 328 329 330 334 334 337 336 337 339 338 337 336 334 336 336 335 334 333 333 332 332 334 333 336 338 338 339 338 336
323 322 324 325 325 322 323 325 325 327 327 329 330 330 330 329 327 326 327 327 326 328 326 325 325 327 333 337 339 338 337 337 334 334 336 334 333 333 332 333 332 331 332 333 338 338 339 338 336
318 321 322 323 328 329 329 329 329 329 328 328 328 328 328 327 327 326 327 327 327 325 324 324 324 324 327 331 334 336 336 337 337 335 334 335 333 333 332 332 329 323 322 331 335 338 338 337 335
314 316 318 321 323 326 327 329 329 327 327 327 327 327 327 327 327 327 326 327 327 325 323 324 324 324 324 326 328 336 337 337 337 336 336 337 335 335 328 330 330 322 322 323 328 333 334 335 335
314 315 317 318 317 320 322 325 325 324 324 325 325 326 327 327 327 325 325 326 324 322 323 323 322 322 323 323 326 334 338 337 337 337 336 337 336 335 332 330 328 321 322 325 329 334 334 335 335
314 316 317 317 318 318 320 323 323 323 324 326 327 327 326 326 326 326 325 325 323 322 322 322 322 322 322 323 329 336 338 337 337 337 336 337 336 335 332 330 324 321 325 327 331 335 334 336 335
314 315 315 317 317 318 319 321 322 323 323 324 325 325 325 325 326 325 325 324 321 321 321 322 322 321 321 327 337 339 339 337 337 337 337 337 336 334 334 333 330 329 330 329 335 336 335 335 336
314 314 316 316 317 318 319 320 321 320 321 322 322 323 323 324 323 322 323 322 322 321 322 322 322 322 323 336 338 339 339 339 338 338 337 337 337 337 336 334 333 330 331 333 336 334 336 335 331
313 313 314 314 315 316 319 320 319 319 319 320 321 321 321 322 322 324 323 323 323 323 321 321 321 321 325 336 339 340 340 339 339 338 339 339 338 337 337 335 333 329 332 335 335 336 333 332 331
311 313 314 314 315 315 316 319 319 319 319 319 319 320 320 322 323 324 325 324 324 325 322 322 320 321 324 335 340 340 339 336 339 340 340 339 338 337 336 336 333 332 336 337 334 334 332 333 330
311 311 312 314 315 318 316 319 319 319 319 318 319 319 320 320 320 322 324 327 325 324 324 319 319 321 329 338 340 340 341 339 339 339 340 340 338 338 336 334 334 336 336 334 333 334 332 331 331
309 310 310 311 312 314 315 317 317 317 317 318 319 318 319 320 320 320 321 323 322 322 320 319 323 329 334 339 340 341 341 341 341 340 339 339 339 338 337 337 337 336 334 333 333 332 331 330 330
307 309 310 311 312 314 314 315 317 316 317 317 317 317 318 318 318 319 319 318 319 324 334 336 337 339 338 339 340 342 342 340 340 341 341 340 339 339 338 337 336 334 333 333 331 331 331 330 329
307 308 310 311 314 315 313 314 316 316 316 316 317 317 318 319 321 322 322 321 327 336 339 337 340 340 340 340 340 341 341 341 341 341 339 337 337 337 336 335 335 334 332 330 330 330 330 330 330
307 308 310 309 311 312 311 314 315 315 316 317 316 318 319 320 321 321 320 330 337 340 339 340 342 341 340 340 339 339 340 341 341 339 337 336 336 336 334 335 333 332 331 330 330 330 330 330 330
308 308 309 310 311 311 311 312 313 313 315 316 317 320 324 325 326 322 331 339 340 340 340 343 342 341 340 338 338 338 338 338 337 337 336 335 335 335 334 333 332 331 331 331 331 330 331 331 328
310 309 309 309 310 311 312 312 313 314 314 317 319 323 327 336 328 334 337 340 339 340 342 342 341 340 338 338 337 337 337 336 335 335 335 335 334 334 333 332 331 330 330 331 332 332 332 331 328
312 312 310 310 310 312 314 315 316 317 316 317 317 322 333 337 335 337 337 338 339 342 341 340 338 338 337 337 336 335 335 335 334 335 334 334 333 333 331 330 330 331 332 331 332 332 332 329 327
309 310 312 313 311 310 311 313 315 316 315 316 316 317 327 336 334 336 338 339 340 341 339 339 338 337 336 335 335 335 334 334 334 334 333 332 332 330 330 330 331 332 332 332 331 331 330 327 327

GFSSGP_925_thetae_039.txt.gz
Theta_e
316 321 323 323 327 325 327 326 329 330 331 334 336 336 338 340 341 344 340 335 337 340 349 323 318 318 317 316 317 321 329 336 338 339 340 341 341 338 335 327 321 320 321 320 316 313 313 316 317
324 327 319 326 326 327 326 327 328 334 335 337 338 338 340 340 340 341 340 338 338 343 347 337 318 318 318 316 315 316 324 330 336 335 334 335 334 329 323 318 317 318 316 322 322 322 324 326 325
332 322 322 323 327 326 327 328 332 335 338 336 338 338 339 340 340 340 340 339 339 345 347 341 318 318 318 316 315 314 318 321 327 327 327 326 324 320 317 316 315 313 324 328 329 331 328 323 324
325 322 322 325 324 326 326 331 333 336 336 336 336 337 338 339 340 340 339 339 342 345 346 342 325 318 318 317 315 314 315 315 317 318 318 317 317 316 315 313 312 315 329 332 333 330 323 327 331
325 324 323 323 324 326 327 328 332 336 336 336 336 338 337 338 339 341 338 339 342 344 345 344 337 319 318 318 316 314 314 314 314 314 315 315 314 313 312 312 312 317 331 333 333 331 328 331 331
327 322 322 324 325 326 326 327 328 332 334 333 336 337 338 338 340 339 336 337 339 342 344 348 342 323 319 319 316 314 313 314 314 313 314 313 312 312 313 313 314 319 329 333 334 332 330 330 332
330 328 325 324 324 325 325 326 327 329 332 334 335 337 338 341 340 337 335 335 337 339 342 346 351 335 321 320 317 315 313 314 314 313 313 312 312 313 314 314 316 320 327 331 333 334 333 333 333
328 329 329 327 325 324 325 325 326 326 329 333 336 338 339 339 337 335 335 336 337 338 340 341 351 344 340 339 321 317 315 313 314 314 313 313 313 314 315 315 317 320 326 330 333 335 335 334 335
328 330 330 329 327 325 325 325 325 328 328 332 335 337 338 339 339 336 336 336 337 338 341 342 345 347 342 338 340 324 319 315 314 315 315 315 329 330 329 326 327 320 324 330 333 333 333 332 332
330 332 331 329 328 326 325 324 325 325 328 333 335 335 337 341 339 338 338 338 338 339 341 343 345 346 346 340 339 343 340 337 335 332 333 332 329 329 330 329 326 329 323 328 331 330 330 332 336
328 332 330 330 329 328 327 324 325 325 328 332 335 335 336 341 339 339 338 338 337 338 338 340 348 347 346 344 339 344 344 341 339 336 334 335 330 331 332 331 331 333 329 334 334 336 337 337 337
326 327 329 330 329 329 327 325 325 326 326 327 334 335 334 335 337 337 335 334 334 334 334 335 344 352 350 345 344 341 343 345 342 341 338 335 335 333 333 332 333 333 333 333 336 337 338 339 339
324 325 326 327 328 329 329 327 326 326 326 327 330 333 333 332 334 333 333 334 334 334 334 336 341 348 351 351 345 345 343 343 344 343 341 339 338 336 334 334 333 335 333 334 335 337 339 340 340
319 322 323 324 325 327 329 330 329 328 326 327 326 327 330 331 331 333 332 332 332 333 333 333 335 340 351 349 346 347 347 345 345 345 344 342 339 339 337 336 335 334 334 333 335 336 337 339 338
318 319 319 321 323 325 326 328 328 329 329 329 328 328 328 330 332 333 331 332 332 332 333 333 334 338 341 346 349 348 345 348 345 345 344 345 343 340 340 338 337 334 333 334 334 335 336 338 337
316 318 319 320 321 322 323 327 327 327 329 330 330 331 331 332 333 331 330 331 331 332 333 334 333 334 338 345 346 345 343 343 344 344 344 345 345 343 342 339 338 336 334 334 334 334 336 337 335
313 317 319 318 319 320 322 325 325 326 327 330 331 330 331 332 333 332 330 330 331 332 334 335 335 335 337 338 340 341 342 343 341 342 343 345 345 345 343 341 338 337 335 334 334 333 336 336 334
312 313 316 317 318 319 320 322 323 324 326 327 329 330 331 331 332 332 331 331 331 332 334 334 336 336 336 335 339 339 338 340 342 342 343 344 346 345 345 342 341 338 336 334 333 334 335 332 335
313 312 313 316 318 319 319 321 322 323 324 325 328 329 331 331 331 330 330 331 330 330 331 334 335 336 335 335 337 335 338 340 344 344 344 344 346 345 343 343 342 340 336 336 335 334 334 336 337
311 313 314 314 315 319 320 321 321 323 323 324 325 327 329 329 330 331 330 329 330 331 332 332 335 337 339 336 337 336 339 341 344 344 344 346 346 346 344 344 343 340 338 338 335 334 334 337 340
311 312 312 313 315 317 320 321 322 322 322 323 323 324 326 327 329 330 330 331 330 331 332 332 335 337 340 338 336 341 344 346 345 346 346 346 346 344 344 342 344 342 340 336 336 336 338 340 338
312 312 311 312 313 315 318 323 322 322 323 323 324 324 325 326 326 327 328 332 330 330 329 330 333 337 340 342 337 342 345 345 346 347 347 344 344 344 343 342 343 341 339 336 336 338 340 339 337
311 311 311 311 312 314 314 318 319 321 323 323 324 324 325 325 327 327 327 327 326 327 329 330 333 338 339 340 340 342 346 344 345 346 348 344 344 343 342 341 342 341 338 340 340 340 340 339 336
313 311 311 312 312 314 314 317 318 320 321 322 323 324 324 324 325 325 325 326 325 324 325 329 334 337 339 338 344 347 347 347 347 347 344 343 342 341 343 342 342 341 340 342 340 339 339 338 335
312 311 311 311 312 313 314 318 318 319 320 321 322 323 324 324 324 324 324 325 325 325 324 326 329 334 337 340 344 346 349 351 351 346 343 344 343 344 343 343 343 343 343 341 339 339 338 336 334
314 311 311 311 311 311 313 315 317 319 321 321 321 321 321 324 324 324 326 326 327 326 326 327 331 340 343 345 347 348 349 349 350 346 347 346 345 345 344 343 343 341 340 337 339 337 335 333 333
314 313 313 315 314 315 313 314 317 317 319 320 321 322 323 325 327 329 330 332 332 326 327 336 340 342 345 346 347 349 349 349 348 350 348 346 345 345 344 343 341 338 337 338 337 335 334 333 332
313 315 318 316 314 313 313 315 317 316 318 320 321 324 325 325 333 336 335 334 331 335 343 344 344 346 347 348 349 349 351 350 350 347 346 344 343 341 341 339 338 338 337 336 335 333 333 333 333
314 315 315 318 316 315 313 317 317 319 318 320 321 323 324 330 340 340 341 341 344 344 347 348 347 347 347 348 350 349 349 348 346 344 342 342 340 339 338 338 337 336 334 334 334 335 335 334 334
311 311 314 317 315 318 317 316 317 321 323 321 322 322 323 334 341 340 342 344 346 346 347 348 347 348 348 347 347 347 346 344 342 341 340 339 338 337 335 335 333 332 332 335 335 334 333 333 333

GFSSGP_925_thetae_042.txt.gz
Theta_e
317 316 324 323 325 325 325 325 326 328 329 330 331 334 337 340 345 347 337 341 345 335 326 320 318 318 317 316 317 323 330 337 340 341 342 343 343 339 338 336 331 324 319 317 317 316 314 316 316
323 321 325 323 326 326 326 325 327 328 332 334 335 336 338 340 342 339 338 342 342 333 326 321 318 318 317 316 316 321 328 335 338 339 339 340 340 336 333 328 321 319 318 315 315 316 318 320 320
328 332 323 322 324 327 326 328 327 329 334 336 337 337 338 340 342 340 339 343 343 337 327 324 318 318 318 316 315 317 324 330 335 338 338 338 337 331 325 320 318 317 316 322 326 325 325 325 323
326 327 322 322 324 324 327 328 329 331 338 337 336 338 338 340 341 340 339 341 343 339 331 328 319 318 318 317 315 315 319 323 327 332 333 334 330 325 319 317 316 314 320 329 331 331 327 327 328
329 326 323 322 322 324 326 327 328 334 336 336 336 337 339 339 341 339 339 343 346 347 341 335 319 318 318 317 316 314 315 318 321 322 325 325 323 319 316 315 313 313 321 329 332 330 327 328 332
327 324 325 324 324 324 325 326 327 331 333 335 336 337 338 338 341 338 339 343 344 346 346 341 332 318 318 318 317 315 314 314 315 317 318 317 316 315 314 313 312 313 322 329 331 329 328 328 329
333 330 327 323 322 323 325 327 326 327 328 333 334 335 338 339 341 339 338 339 341 344 346 345 339 322 318 318 317 316 314 314 314 314 315 315 315 314 313 312 313 314 319 327 331 328 327 328 330
331 331 332 330 329 327 325 326 326 326 327 330 333 335 338 342 340 338 336 337 340 342 346 351 346 338 321 320 319 317 315 314 314 315 314 314 314 313 313 313 314 315 318 326 329 328 329 330 329
325 330 332 330 329 328 327 326 326 327 326 327 330 334 338 338 339 338 335 335 337 340 342 350 352 347 337 338 327 319 317 315 314 314 314 314 314 315 315 314 315 316 318 326 328 329 331 331 331
324 329 330 329 329 329 328 327 326 326 325 328 329 334 337 338 338 338 336 336 337 339 340 346 350 349 341 339 340 331 319 318 316 315 317 316 316 324 323 325 319 324 320 324 327 329 332 333 336
324 328 328 329 329 329 329 328 327 325 325 326 329 334 336 339 340 340 336 336 338 339 341 344 346 348 347 342 340 340 336 330 328 324 326 327 325 326 332 330 330 326 329 325 329 331 333 336 335
321 324 326 328 329 329 330 330 329 327 325 326 328 332 335 336 342 341 338 337 338 339 338 343 343 348 348 346 344 343 344 343 341 338 332 335 333 331 331 333 333 330 331 329 333 334 336 336 337
318 320 323 324 325 326 328 329 329 328 327 327 327 328 335 336 341 339 338 336 335 336 337 341 351 347 347 347 348 344 346 347 344 343 340 335 338 334 333 335 334 334 332 334 330 337 337 338 338
318 318 319 321 323 325 326 327 329 330 329 328 327 328 334 334 335 336 336 335 335 334 335 335 349 348 347 340 347 349 343 345 347 345 344 341 337 339 337 335 336 337 335 336 334 335 339 340 341
317 317 318 319 319 322 324 325 327 329 330 330 330 328 328 335 334 334 334 335 334 333 333 333 333 342 344 343 341 342 351 345 347 347 346 345 342 340 338 339 336 335 338 334 337 333 335 339 341
313 315 318 318 319 320 320 324 325 326 328 330 330 331 330 330 330 331 332 334 335 335 334 335 335 339 339 341 343 347 344 348 349 346 349 348 346 342 342 340 340 338 335 338 334 339 338 338 340
313 312 313 315 318 319 320 322 323 324 325 328 329 330 331 331 332 331 331 333 332 330 330 332 334 335 340 342 340 343 347 348 346 347 347 348 349 345 343 345 342 340 339 335 337 336 335 336 339
313 313 313 313 314 316 319 321 322 323 323 325 327 329 330 333 332 333 335 334 334 334 338 336 337 336 337 342 339 341 344 342 344 344 344 345 348 349 345 345 343 342 339 339 337 336 335 336 338
315 314 314 315 315 315 316 320 321 323 323 323 326 328 328 329 331 333 331 335 334 334 334 334 335 333 336 342 340 341 342 340 342 344 344 345 348 348 347 344 346 341 342 339 337 336 336 336 335
314 314 314 314 314 315 316 317 319 322 322 324 326 326 327 330 332 331 332 336 335 336 335 335 335 335 333 335 337 339 339 338 340 343 345 345 348 348 348 347 345 343 344 339 338 337 336 336 336
313 314 314 313 313 313 314 316 319 319 323 323 324 326 328 328 329 331 335 336 337 334 334 335 334 333 331 331 338 340 335 338 346 346 346 346 347 348 347 345 344 345 342 340 338 337 336 336 337
311 311 312 313 313 312 313 316 319 319 322 323 323 325 326 327 327 327 330 335 335 333 332 335 334 332 331 333 344 342 343 344 345 347 348 348 347 347 347 345 344 346 342 341 340 337 334 335 340
312 312 313 312 313 313 312 313 315 317 319 322 325 325 326 326 327 326 325 328 329 328 327 328 330 334 335 339 340 343 346 345 345 348 349 348 347 347 346 343 342 345 342 341 338 337 337 340 338
314 314 314 313 314 314 312 313 315 316 318 319 322 325 325 326 326 327 328 326 325 325 328 331 333 331 336 337 344 344 347 345 348 349 350 346 345 344 343 342 341 342 341 341 338 337 340 337 336
316 315 317 314 315 314 312 313 316 316 316 317 320 323 324 325 328 328 328 328 328 327 326 327 335 338 341 342 347 341 345 344 353 351 348 345 344 343 342 341 341 342 340 343 341 339 337 338 337
314 318 321 315 312 311 312 313 314 315 316 318 320 321 323 325 326 327 328 330 328 328 328 328 330 340 343 343 341 345 341 352 353 347 345 344 343 342 343 341 343 343 343 340 338 338 338 336 335
315 312 316 318 317 319 312 311 312 314 316 316 320 321 324 324 325 328 328 328 329 328 332 329 331 333 334 340 345 349 350 352 350 347 344 344 343 344 343 344 344 342 341 339 338 337 335 335 334
316 313 316 319 321 315 313 311 312 314 317 316 319 323 323 326 327 330 333 336 335 335 333 331 332 342 347 348 350 351 353 352 351 348 349 347 347 345 345 344 342 340 338 338 336 335 334 332 332
314 315 315 317 317 316 316 314 316 322 321 319 320 322 325 325 325 331 338 339 337 341 345 345 344 348 349 348 349 351 351 352 352 350 347 346 345 344 344 341 338 336 335 335 336 334 334 332 331
312 312 317 313 315 316 315 317 318 318 316 315 316 324 323 326 338 338 339 346 343 343 346 349 349 348 349 349 350 352 350 349 347 345 345 343 342 340 339 337 335 336 334 332 335 333 335 334 334

GFSSGP_925_thetae_045.txt.gz
Theta_e
318 316 317 323 319 319 320 322 321 321 322 323 327 332 338 340 344 345 340 343 330 324 319 319 319 318 316 316 317 322 327 333 337 340 342 341 340 336 333 331 329 323 320 319 319 318 315 315 315
320 321 320 322 319 321 321 322 321 323 323 328 332 333 335 342 338 344 347 339 327 324 319 319 319 318 317 316 316 319 324 329 333 339 340 340 339 335 329 327 321 317 316 315 314 313 316 318 318
323 326 329 317 318 322 322 323 322 324 325 333 335 334 336 341 337 339 345 336 327 325 319 319 319 318 317 316 316 318 320 325 329 334 336 337 336 331 327 322 316 315 314 313 314 317 318 318 319
324 326 322 316 317 319 322 323 323 324 327 334 334 336 338 339 339 345 345 334 327 325 321 319 319 319 317 316 316 317 318 322 326 329 332 332 330 327 323 317 315 315 313 316 320 320 320 322 323
329 325 320 317 317 319 321 322 322 323 325 334 334 335 339 340 339 344 344 333 327 327 325 319 319 319 318 317 316 316 316 319 323 326 327 326 325 323 319 316 315 314 313 319 322 320 323 324 327
329 322 323 322 322 322 322 320 321 322 329 330 330 334 336 339 340 347 343 336 329 328 328 319 319 318 319 317 316 315 315 316 318 321 323 322 322 320 317 315 314 313 314 319 321 322 325 326 327
327 327 323 321 321 322 323 321 321 322 322 326 329 332 336 337 338 343 342 339 335 333 332 325 319 318 318 318 317 316 315 315 315 315 317 318 318 316 315 315 313 313 314 320 321 323 325 326 326
320 330 333 331 330 329 327 326 323 321 323 324 327 329 334 338 339 341 343 344 344 342 338 334 322 319 318 318 318 316 315 315 314 315 315 315 315 314 314 314 313 313 314 318 320 324 324 326 327
321 322 332 332 330 329 328 326 326 325 323 324 325 327 337 340 337 338 339 342 346 345 343 338 334 321 319 318 318 317 316 315 314 314 315 315 315 315 314 314 313 313 315 317 320 324 326 327 329
319 322 324 327 328 328 327 326 326 327 323 323 324 328 338 338 337 334 335 335 344 350 347 342 338 333 322 320 319 318 318 317 315 315 315 315 316 315 315 314 313 314 315 316 319 324 328 329 330
318 322 322 323 325 326 328 328 328 329 325 323 323 324 333 336 336 335 334 334 338 347 350 347 344 340 334 325 321 320 319 318 317 316 316 317 318 318 317 317 316 317 319 319 321 325 329 329 330
314 317 321 322 322 323 325 326 327 327 327 324 324 324 325 328 335 334 334 334 337 342 352 352 347 345 341 331 333 332 330 322 319 318 318 319 320 320 320 323 326 324 324 324 323 323 326 328 329
313 315 316 319 322 323 324 324 324 325 326 327 326 326 325 325 332 337 336 336 336 338 345 350 346 345 345 342 340 339 339 338 337 332 328 324 325 323 321 325 330 331 329 327 326 325 326 327 329
310 312 314 315 316 317 321 323 324 324 325 327 327 326 325 324 330 333 336 336 336 336 337 337 338 341 346 346 342 342 341 341 341 342 342 340 334 330 327 325 331 333 333 331 330 328 328 332 333
311 310 312 314 315 316 317 318 321 323 324 325 328 327 326 324 326 330 335 335 336 335 334 336 339 338 348 348 347 346 344 344 345 345 345 343 341 337 335 332 329 334 335 335 333 332 330 336 336
310 310 310 313 314 316 315 317 318 318 321 324 326 327 327 326 326 331 332 335 335 334 334 337 343 344 346 347 347 349 348 347 347 347 346 345 344 342 338 337 335 333 336 337 335 334 334 334 340
310 309 309 310 311 313 314 316 317 318 319 321 323 325 327 326 325 327 330 332 333 335 334 335 345 347 348 348 344 338 337 340 348 350 348 348 346 345 341 340 338 338 336 337 337 336 337 335 337
309 309 310 311 311 311 310 312 315 317 318 320 320 321 326 326 326 325 327 330 330 332 332 332 336 342 343 340 341 343 343 339 339 342 346 349 348 348 344 342 341 339 339 337 337 337 339 338 336
312 313 314 314 313 312 311 312 313 314 314 317 319 319 321 325 325 325 326 327 330 333 333 332 334 335 337 340 345 343 341 341 345 346 344 346 347 349 347 342 343 342 342 338 338 336 337 336 336
311 311 311 313 314 312 312 312 312 313 313 315 317 319 319 323 324 324 324 325 326 331 337 338 335 335 336 336 340 340 340 343 343 339 337 342 344 348 349 345 344 345 343 342 339 338 337 335 336
309 310 310 311 312 312 312 312 311 312 313 314 316 318 320 320 322 323 325 327 330 332 339 337 335 334 334 333 338 338 337 337 339 343 341 341 344 349 349 347 345 344 345 342 341 339 337 337 336
309 311 312 313 311 310 312 312 311 311 312 313 314 316 316 317 320 321 322 324 329 339 339 336 335 333 332 331 330 330 338 340 337 335 341 344 346 349 348 347 346 344 345 343 342 339 339 336 334
313 313 314 314 313 312 311 310 311 311 312 312 312 313 315 317 319 321 319 319 323 328 337 335 333 333 332 331 332 332 336 338 338 340 348 347 348 348 348 347 346 345 345 345 341 339 337 335 336
313 313 313 313 312 314 312 312 312 310 311 312 312 314 314 315 319 319 319 321 321 324 325 329 334 335 333 332 332 334 340 342 343 347 349 348 347 348 348 346 344 343 345 343 341 341 338 335 336
311 313 319 314 312 314 312 313 312 310 311 313 313 313 314 313 317 319 319 320 321 322 324 325 327 332 333 333 333 334 338 341 343 350 349 348 347 347 346 344 342 342 343 342 341 339 337 338 338
310 315 315 318 319 319 313 314 311 311 311 315 315 314 314 315 315 317 319 320 321 323 323 324 324 328 334 337 339 339 339 342 348 350 348 347 346 345 343 342 341 341 341 340 342 338 339 337 336
310 315 316 318 317 318 314 313 312 315 317 316 315 315 315 315 317 317 318 320 321 322 323 323 324 325 331 337 340 340 342 342 350 350 347 346 345 343 342 341 341 340 341 341 339 337 337 337 336
310 312 315 317 320 317 313 312 315 319 317 315 314 314 316 318 321 318 318 319 321 323 326 327 328 335 341 342 341 343 344 344 350 348 346 344 342 341 341 341 340 342 341 339 338 337 336 334 334
311 316 316 316 316 316 315 314 320 317 315 314 314 314 316 319 320 323 321 331 334 332 333 331 333 337 339 340 340 343 348 352 349 346 343 342 342 343 344 342 343 341 339 338 336 334 334 334 333
312 315 315 318 319 317 317 315 316 314 313 314 314 315 315 317 318 320 324 336 342 341 343 340 343 346 346 347 348 349 349 352 348 346 347 344 346 345 343 342 339 338 334 333 334 334 333 333 331

GFSSGP_925_thetae_048.txt.gz
Theta_e
320 317 318 321 318 315 318 319 319 320 320 321 320 325 334 338 341 342 341 341 331 322 321 320 318 317 317 318 320 324 329 332 334 336 335 334 332 331 330 329 327 323 320 317 317 316 315 314 313
319 322 320 318 317 318 318 319 321 320 320 320 322 331 338 342 338 344 343 339 324 321 320 319 317 317 317 318 318 322 325 327 330 333 333 331 329 327 326 325 322 318 316 315 314 313 316 316 316
322 325 327 319 314 317 319 321 320 321 321 322 324 330 337 339 343 343 342 334 324 321 320 318 317 317 317 318 318 319 321 324 327 329 329 328 328 326 323 321 318 315 314 313 312 313 316 318 318
324 324 325 317 315 315 319 319 319 320 320 321 328 335 338 338 340 343 341 329 324 321 320 318 317 317 317 318 318 319 319 321 323 326 326 327 327 324 322 319 316 315 314 313 313 315 318 319 320
327 321 321 317 316 315 317 317 317 318 319 320 327 334 338 338 343 342 335 330 324 321 319 318 317 317 317 317 317 318 319 320 321 322 323 324 322 323 320 317 315 314 314 313 315 318 320 321 323
331 319 322 322 322 321 320 319 318 318 318 322 327 336 338 343 345 341 331 327 325 322 319 318 317 317 317 317 317 317 318 319 319 321 322 320 320 321 319 317 315 314 313 314 316 321 322 323 326
327 324 320 321 322 323 323 324 325 321 321 321 323 329 336 342 345 340 332 329 327 322 320 319 318 317 317 317 317 317 317 317 318 320 321 320 320 319 318 316 315 314 313 314 317 321 323 324 327
319 328 333 331 330 331 328 327 324 324 325 322 324 327 339 336 347 345 340 335 330 325 322 320 320 318 317 317 316 316 316 316 316 318 320 321 321 319 318 316 315 314 313 314 317 322 323 325 327
318 319 329 334 334 331 327 327 326 325 324 325 323 325 335 337 344 344 343 340 342 336 326 321 322 320 318 317 316 316 315 315 315 317 320 321 319 318 317 316 315 314 313 314 316 322 323 325 328
315 318 322 324 329 329 327 326 326 327 326 327 326 324 330 336 340 341 343 343 345 343 338 326 323 321 319 318 317 317 316 315 315 316 316 317 316 316 316 315 315 314 313 314 315 320 324 326 327
314 316 319 321 322 323 324 324 324 324 326 325 326 323 324 326 330 336 341 342 345 340 342 336 324 321 320 319 320 318 318 317 316 316 315 315 316 317 317 316 317 315 315 316 316 319 324 325 326
311 313 314 318 319 320 321 321 321 322 324 324 325 324 324 324 325 328 332 337 344 348 347 344 338 333 327 322 319 320 319 319 318 317 317 317 317 319 320 318 318 317 316 317 317 317 320 323 325
310 311 312 313 314 319 320 321 322 322 322 323 324 324 325 324 327 335 336 339 340 349 350 347 343 340 333 332 324 321 320 319 319 319 318 318 319 319 318 319 319 319 320 320 320 321 320 321 324
308 309 309 310 311 313 314 316 318 321 322 322 323 324 324 325 327 335 335 337 345 349 352 350 347 345 342 338 335 326 323 323 323 322 323 321 321 321 320 319 320 320 324 325 325 325 324 323 324
309 309 309 310 312 312 314 315 316 317 318 320 322 323 324 325 324 333 335 335 339 344 348 347 345 339 336 336 341 337 336 336 337 337 337 337 335 333 332 327 323 321 323 329 329 330 329 328 328
309 308 308 310 310 312 314 315 316 316 316 318 319 322 323 324 325 326 331 336 335 337 338 337 337 337 337 338 343 342 342 340 340 340 341 341 342 342 340 337 332 328 325 329 332 333 332 331 331
307 308 308 308 308 309 312 313 314 314 315 316 317 318 320 321 323 325 327 332 336 334 335 336 336 336 338 340 345 345 344 345 343 343 344 344 345 344 342 341 338 336 332 330 333 334 334 333 333
310 308 308 309 310 310 310 310 310 311 312 312 313 315 318 320 322 324 325 326 330 333 335 335 335 334 335 342 347 347 346 347 347 347 347 346 346 346 344 343 340 339 336 334 335 335 335 335 335
311 311 310 310 311 311 310 311 311 310 311 310 311 312 314 316 318 321 325 326 325 327 333 332 332 332 338 347 349 349 348 348 346 344 345 347 348 348 347 345 342 340 339 337 335 336 335 336 336
307 308 308 309 310 310 310 311 311 310 310 309 310 311 312 314 316 318 320 324 324 325 327 330 334 339 347 345 344 347 347 344 340 339 339 342 344 346 347 347 344 342 340 339 338 337 336 337 337
308 308 312 312 313 311 309 310 309 310 310 310 310 310 311 313 316 317 320 322 323 323 324 326 331 335 346 344 348 348 346 342 343 343 342 341 342 343 345 346 345 344 342 340 340 338 338 336 336
312 313 313 313 312 312 311 313 311 310 310 310 309 308 309 311 312 314 316 317 322 327 328 328 332 336 344 346 343 342 339 339 338 337 337 336 340 341 344 346 346 345 343 343 342 341 339 338 335
311 313 312 313 312 311 312 310 311 309 310 310 310 309 309 309 308 311 313 317 319 322 327 327 330 337 339 340 337 337 338 336 333 334 334 334 334 339 345 347 347 346 344 345 344 342 340 338 336
313 311 311 312 311 313 312 311 311 310 310 310 312 313 312 313 311 311 313 317 318 320 326 331 336 337 336 335 336 335 335 333 333 334 337 340 342 347 348 348 348 346 344 344 344 343 340 338 336
310 309 310 313 310 313 311 312 311 310 313 314 315 314 313 313 313 315 315 312 315 317 321 329 335 335 334 334 333 332 331 330 331 334 341 345 348 348 348 347 347 346 343 344 343 341 339 337 335
308 309 309 315 315 316 314 314 312 315 315 314 313 312 312 313 314 316 317 317 313 316 319 322 329 333 333 332 331 332 334 334 333 337 342 346 347 347 347 347 346 343 341 343 341 340 340 337 336
310 312 311 311 317 320 314 311 310 315 314 313 312 312 311 311 313 315 317 318 322 316 317 319 321 325 328 331 332 333 334 336 336 340 345 346 346 347 346 345 342 341 340 341 340 340 338 338 338
309 309 311 311 317 319 314 312 311 317 315 313 312 311 311 311 312 314 316 317 320 325 319 319 320 321 324 326 330 333 337 338 340 344 347 347 346 346 344 342 341 340 341 341 340 339 338 337 336
309 311 315 314 317 318 317 311 315 316 314 312 312 311 311 312 313 315 315 316 318 322 328 321 320 320 323 329 333 338 341 343 344 346 348 347 345 344 342 341 341 340 341 341 338 337 336 336 335
310 312 314 315 319 319 319 315 310 313 312 311 311 312 312 313 314 315 314 314 319 320 325 332 325 328 331 335 339 344 344 344 344 346 347 345 342 341 341 341 340 342 340 338 337 335 334 333 334

GFSSGP_925_thetae_051.txt.gz
Theta_e
322 319 319 319 317 313 317 318 317 318 319 319 319 319 321 330 340 341 337 333 326 323 327 323 320 326 325 327 328 328 331 334 334 333 333 332 332 331 330 329 327 323 320 318 316 315 313 312 311
321 323 320 314 315 317 315 316 319 318 319 318 318 320 332 338 337 342 338 331 326 321 326 320 318 321 322 324 326 326 328 330 330 330 329 329 328 328 328 326 322 318 316 315 314 313 313 314 315
324 325 322 318 313 317 316 318 319 318 317 318 319 320 328 339 341 341 338 330 324 323 322 319 317 319 320 322 323 323 325 327 327 328 327 327 326 325 324 322 319 315 315 315 313 313 314 317 317
323 323 319 322 319 315 317 317 315 317 319 317 319 323 334 336 341 341 336 333 323 324 323 318 317 318 319 320 320 321 322 324 324 324 324 325 323 322 321 319 317 315 314 313 313 314 316 318 319
325 319 324 319 318 316 316 316 317 318 317 318 322 325 337 337 341 342 339 335 324 328 324 318 317 317 318 319 319 320 320 321 321 321 322 323 322 322 321 319 316 315 315 313 313 315 317 319 322
330 319 322 323 322 320 320 319 318 320 322 321 320 322 337 342 343 341 339 330 323 323 323 319 317 317 318 319 319 319 319 319 319 320 321 322 324 323 320 318 316 315 314 314 314 316 318 320 323
330 320 322 322 323 322 322 322 326 324 323 323 319 323 334 347 344 339 335 332 331 328 323 319 317 317 318 318 319 319 320 320 319 320 321 322 323 322 321 318 316 315 315 314 315 317 320 321 324
318 327 332 326 324 325 328 326 324 325 325 323 323 322 324 336 342 337 334 333 332 331 329 320 317 317 317 318 318 319 319 319 319 320 320 321 321 320 321 319 317 315 314 314 315 318 322 323 325
316 320 329 331 331 328 327 326 325 324 325 324 325 324 326 344 342 338 335 334 334 334 332 324 319 318 318 320 319 318 318 319 319 320 320 323 322 322 323 321 318 315 315 314 314 317 320 324 327
313 318 322 324 327 327 324 323 323 324 323 323 324 324 325 342 342 339 337 339 338 335 332 326 321 319 319 322 325 324 319 321 322 321 321 322 320 321 322 321 318 316 315 314 313 315 318 325 326
311 316 319 320 319 321 322 321 320 320 321 322 322 323 322 327 334 337 337 338 337 334 329 324 323 320 321 323 326 324 322 321 321 320 321 320 321 321 322 320 317 316 316 315 314 315 318 321 325
311 312 313 315 316 317 317 318 318 319 319 320 321 322 322 323 323 328 329 335 338 337 339 331 326 321 321 324 322 321 322 321 321 319 320 321 320 319 319 318 317 317 317 317 316 316 316 318 323
309 310 310 310 310 311 315 317 319 319 319 319 320 321 322 322 321 330 331 332 337 341 339 337 326 324 323 325 325 323 322 320 322 320 318 319 318 318 318 319 318 319 318 318 317 317 317 319 320
308 309 309 309 310 309 312 313 314 315 316 316 317 319 321 322 323 333 335 335 337 343 342 341 333 326 325 327 325 324 323 322 324 323 323 321 319 319 318 320 320 321 320 318 319 318 319 321 321
309 308 307 308 309 311 312 312 314 315 316 316 317 317 320 322 326 332 335 337 338 345 344 344 340 335 330 326 322 322 323 323 323 322 324 324 321 322 321 321 321 321 320 320 322 323 325 327 327
308 305 306 307 308 309 312 312 313 313 313 315 315 316 317 320 323 331 334 339 342 343 348 347 345 342 338 333 332 330 334 339 338 336 328 328 328 327 327 328 329 329 327 323 323 326 327 329 330
305 307 308 307 307 307 310 310 310 309 311 311 311 312 314 315 318 323 331 335 339 343 346 348 348 345 343 341 341 339 336 335 337 341 339 338 338 338 336 338 338 337 335 330 327 327 329 331 332
309 309 309 309 309 309 308 309 310 310 310 310 310 310 311 312 313 317 321 327 334 339 342 345 346 344 338 337 337 338 337 335 336 340 342 340 340 341 341 341 341 339 337 335 332 330 330 332 333
309 310 308 308 308 309 308 309 309 309 309 308 308 309 310 311 312 314 316 319 327 333 335 337 338 337 337 339 341 340 337 337 336 341 343 343 343 344 344 343 342 340 339 339 335 333 332 333 334
307 307 309 309 312 311 311 311 310 308 308 308 308 309 309 309 311 312 314 316 320 324 332 334 334 335 334 334 341 343 343 344 343 345 346 346 347 347 347 346 345 343 340 338 336 335 333 334 335
310 312 312 312 312 311 310 310 309 309 308 308 308 308 307 308 309 310 311 313 315 319 322 326 328 328 332 333 341 345 346 346 346 346 346 346 347 343 342 344 345 344 343 340 339 337 335 335 335
310 312 312 312 312 311 311 310 309 310 309 308 307 306 306 306 306 307 308 309 311 313 317 320 324 328 327 331 338 343 344 344 343 344 344 342 339 337 340 343 345 345 344 341 341 339 337 335 335
309 312 311 311 311 311 311 311 309 308 309 309 309 309 311 310 310 311 311 312 313 314 315 317 322 325 326 329 339 344 344 342 342 342 340 339 339 341 340 341 342 344 343 343 343 340 338 338 336
311 310 307 309 309 312 310 310 310 307 307 307 313 313 312 311 311 311 313 314 316 317 316 315 320 328 331 331 336 344 343 340 338 337 337 336 335 335 336 341 343 344 345 344 343 342 341 340 337
308 306 307 309 310 313 310 312 310 310 311 314 314 312 311 310 310 311 311 313 315 316 319 317 316 328 333 333 338 341 340 339 339 336 333 333 334 336 339 344 345 346 345 344 344 343 342 340 338
308 307 306 309 311 308 309 313 311 314 313 313 313 311 310 310 308 309 310 312 314 316 320 320 315 317 328 334 336 338 339 338 336 334 332 331 332 333 340 346 347 347 345 344 343 343 343 340 337
309 311 308 306 311 313 311 311 309 313 313 312 311 311 309 308 308 309 309 311 314 316 317 319 322 320 318 329 335 335 337 335 333 331 330 331 334 339 344 347 347 346 345 342 343 341 340 339 337
308 307 309 308 315 315 313 312 312 309 310 312 312 310 308 308 309 311 311 311 313 315 315 319 322 327 320 320 330 332 332 332 333 333 333 336 339 343 346 346 346 344 342 341 341 340 339 338 336
308 309 312 310 313 314 314 312 309 311 312 312 311 310 308 308 310 311 311 311 313 314 314 318 320 326 325 318 323 330 331 332 333 334 335 338 342 344 346 346 344 341 341 340 340 339 338 337 337
309 309 311 314 313 314 315 314 310 310 308 310 310 310 309 310 311 311 311 312 313 312 313 316 320 326 330 319 321 327 330 333 336 338 338 342 344 344 345 343 341 340 340 340 340 338 337 336 335

GFSSGP_925_thetae_057.txt.gz
Theta_e
322 320 319 319 321 321 321 321 319 322 320 321 321 321 323 324 327 329 340 341 336 332 345 342 343 341 338 338 346 349 349 349 347 346 342 335 333 336 336 331 330 329 326 325 322 321 319 316 314
323 324 320 319 319 319 319 319 321 321 321 320 321 321 323 324 323 327 336 340 334 331 331 348 341 342 338 335 333 337 340 341 340 336 329 328 329 328 327 326 326 324 322 319 317 315 313 313 314
324 326 326 325 319 317 318 318 321 320 319 319 322 323 323 328 337 329 338 334 333 339 344 342 341 342 338 334 330 329 329 328 328 326 323 325 324 324 324 324 322 320 318 315 314 313 314 315 316
324 327 323 325 319 318 318 320 321 319 320 320 322 327 326 337 333 342 340 335 331 340 343 335 338 342 339 334 330 327 326 325 323 322 322 322 321 321 322 320 319 316 316 315 315 316 316 317 318
324 326 326 326 322 320 318 319 319 319 321 322 325 328 327 330 338 340 340 335 334 339 342 329 335 340 338 335 331 327 327 324 321 322 322 321 321 321 321 320 317 316 315 316 316 316 317 318 320
326 325 328 327 324 319 320 320 321 323 326 327 328 328 328 327 340 338 338 335 336 339 342 344 334 338 338 335 331 329 328 324 321 321 320 321 321 320 320 319 317 316 315 315 315 316 317 318 320
327 326 324 325 324 324 323 326 328 327 327 327 326 328 327 329 338 336 335 334 337 339 340 344 343 342 337 335 332 330 329 326 321 321 321 321 321 320 319 318 317 316 316 315 315 315 317 318 320
328 327 325 324 323 324 325 327 327 326 326 325 324 327 325 329 338 336 335 336 337 339 338 342 346 347 348 345 332 331 331 329 325 324 323 322 322 321 321 320 319 316 315 317 316 316 317 318 320
320 327 326 326 325 325 326 326 325 324 324 324 324 324 322 331 337 338 336 335 335 337 340 343 346 348 348 346 342 331 331 331 328 329 328 327 335 334 331 326 321 318 316 317 317 318 319 320 322
320 322 322 324 326 326 325 323 324 322 323 323 323 321 321 320 329 339 338 336 334 335 339 342 346 346 348 347 347 344 343 343 343 343 341 342 344 343 341 337 324 321 318 317 319 320 323 326 332
316 318 320 321 318 319 321 322 319 321 322 322 320 320 319 321 323 333 339 337 336 334 336 339 344 345 346 344 346 347 346 347 346 345 343 345 343 334 339 340 336 332 327 331 329 330 331 332 333
313 314 315 318 315 314 316 316 316 317 319 318 317 318 319 320 323 324 330 337 336 335 335 338 337 339 337 344 344 345 344 346 343 339 334 338 333 333 341 340 339 336 335 335 333 332 332 332 333
312 312 311 312 311 312 311 314 317 315 315 315 317 317 317 318 320 321 324 334 337 336 335 333 332 332 337 340 341 341 339 335 332 328 327 329 331 331 333 336 336 334 335 332 332 331 332 331 332
310 311 311 311 312 312 312 313 313 314 314 314 316 317 318 319 320 321 324 330 335 336 335 332 327 328 330 333 338 333 335 328 326 326 327 327 326 329 329 327 331 329 327 330 328 331 331 330 330
310 311 310 310 311 311 311 311 312 312 313 314 315 315 315 316 316 317 318 324 332 331 334 334 330 328 325 324 326 332 332 331 331 328 322 324 327 325 324 329 328 331 328 324 323 325 327 330 330
310 309 310 310 310 310 311 311 312 311 312 312 313 314 314 315 316 316 316 318 320 325 332 334 338 335 331 330 326 322 329 330 326 323 324 322 321 322 321 321 323 323 322 326 330 331 331 330 330
310 311 311 311 311 312 311 312 312 312 311 313 313 313 313 315 316 316 316 316 314 315 325 338 342 338 339 333 330 330 327 324 322 322 322 321 321 323 324 325 327 326 325 326 331 332 331 332 332
310 310 310 310 310 312 311 312 311 312 311 312 312 312 313 314 315 315 315 315 314 313 314 326 335 339 341 336 332 330 331 325 325 322 322 323 329 333 330 330 330 330 332 330 332 333 334 334 333
310 310 310 311 311 311 311 311 311 311 311 312 312 312 313 314 314 313 314 314 314 313 313 314 332 345 346 344 340 336 333 332 332 327 324 325 334 333 333 333 334 333 334 336 336 336 336 336 335
310 310 311 311 311 310 310 311 311 311 311 312 313 313 313 313 312 313 313 315 316 315 314 315 316 323 341 346 345 343 341 337 333 334 329 334 337 336 334 336 336 334 336 338 338 337 338 337 336
311 311 311 310 311 310 311 309 310 309 311 311 312 312 312 312 312 313 315 316 317 318 316 316 316 316 318 334 343 344 343 342 341 339 336 335 336 336 336 337 339 340 339 341 340 339 339 341 338
310 311 311 310 310 308 310 307 310 310 310 311 311 313 312 313 312 315 315 315 315 315 314 313 315 317 318 317 330 340 343 344 343 342 339 342 338 338 340 338 341 342 341 342 341 340 340 340 341
309 311 311 310 311 311 309 311 310 311 310 311 312 313 314 315 315 315 315 313 312 313 314 312 312 316 318 319 320 329 340 342 343 343 342 342 341 341 340 341 343 343 343 343 341 340 340 340 340
310 310 310 309 311 310 310 311 310 310 311 311 311 313 315 315 315 314 313 313 313 313 313 314 315 313 317 318 324 325 329 336 338 340 341 340 341 342 342 342 344 345 343 343 341 341 340 340 339
310 311 310 309 309 309 312 310 310 311 311 310 311 312 315 315 315 315 314 314 313 314 315 315 315 316 315 317 318 327 329 330 334 337 339 339 341 343 344 343 345 344 341 343 340 340 340 340 340
310 311 311 310 309 309 309 310 311 311 311 312 313 314 315 315 313 314 314 313 313 314 315 315 315 316 318 319 318 323 329 332 334 337 337 337 337 339 341 340 344 343 342 338 339 341 341 341 341
311 313 310 313 312 313 311 311 311 311 311 312 313 313 314 313 313 314 314 313 313 315 316 316 315 316 317 319 320 322 326 333 334 338 338 337 337 339 339 341 341 340 339 337 341 343 344 342 340
311 311 315 315 315 313 311 311 312 311 311 311 311 312 312 312 314 315 314 312 313 316 316 317 317 316 317 318 319 321 324 331 333 336 340 338 339 340 341 339 337 342 337 344 344 345 345 343 341
311 312 313 313 314 314 313 312 312 312 311 312 312 312 312 313 314 314 314 313 315 316 318 319 321 319 316 317 318 321 324 329 333 334 336 339 340 340 341 340 342 340 345 346 346 343 342 341 341
311 312 313 316 315 316 317 314 311 312 311 312 312 312 311 313 313 313 313 313 317 316 315 317 318 321 318 316 317 320 324 328 331 333 334 337 339 340 340 341 343 346 347 347 345 343 341 339 338

GFSSGP_925_thetae_060.txt.gz
Theta_e
327 323 321 324 324 323 328 326 324 324 324 324 324 324 326 328 329 333 342 343 337 338 349 341 341 340 343 343 347 348 349 348 348 347 345 342 338 338 339 338 335 334 332 329 327 325 322 320 316
326 325 323 322 323 325 327 324 323 323 323 323 325 325 325 327 329 334 330 342 337 342 349 345 340 340 344 345 347 348 349 349 348 346 344 338 334 337 337 332 332 330 327 325 322 320 316 313 311
326 326 326 321 322 325 324 322 323 323 322 324 325 328 328 329 333 336 339 342 338 343 349 347 336 340 343 349 348 348 349 349 346 344 339 332 330 331 329 327 327 324 323 321 318 315 313 313 315
327 326 324 324 322 320 320 323 323 323 323 323 325 330 330 332 333 340 342 342 338 344 346 349 334 339 338 349 349 349 349 346 343 337 329 327 328 326 324 324 323 320 318 316 315 314 316 317 318
325 327 327 327 324 321 319 321 322 322 323 323 328 331 331 329 333 339 343 343 338 343 343 353 334 336 338 339 346 347 344 342 336 328 324 326 325 322 322 321 320 317 316 316 316 316 318 320 320
326 326 329 329 328 324 322 324 325 327 327 326 328 330 332 328 333 337 341 342 338 340 342 350 340 334 338 337 336 340 339 336 331 325 322 322 322 322 321 320 318 317 318 318 317 317 320 322 323
327 327 328 328 328 326 326 326 328 329 329 328 328 329 331 328 333 337 340 340 338 338 341 348 348 340 338 336 335 334 334 333 330 326 323 321 321 322 322 321 319 316 317 317 316 317 318 321 323
326 327 328 327 327 328 326 326 327 329 329 327 327 330 330 327 324 335 340 338 337 338 339 344 346 347 346 344 337 334 334 333 331 330 327 324 323 325 324 323 321 317 317 317 316 316 317 319 321
323 328 328 327 327 327 326 326 326 327 327 326 327 327 326 324 323 332 341 338 338 338 338 341 343 345 344 342 344 338 334 335 331 335 330 328 337 337 339 333 334 320 318 318 317 316 317 319 321
322 325 326 326 326 327 327 327 326 327 328 327 326 326 324 323 324 327 333 341 337 338 338 340 342 344 344 340 342 345 344 344 344 343 344 341 339 340 338 337 331 325 320 318 320 319 320 324 329
319 322 323 323 324 326 327 327 325 326 327 327 327 324 323 323 323 325 329 333 338 335 338 340 344 346 344 341 342 343 342 343 344 345 345 344 343 343 341 339 340 336 330 332 330 331 331 330 331
316 318 319 320 322 322 323 323 324 324 326 324 322 321 321 322 323 323 325 328 334 338 334 338 343 347 347 344 344 343 341 343 344 345 347 346 346 345 343 339 338 339 336 335 333 332 332 332 333
314 315 316 317 319 319 319 319 320 319 321 317 317 319 320 321 322 322 324 327 333 338 339 336 340 346 348 346 342 343 342 343 343 343 346 345 343 343 341 340 338 337 337 335 335 333 332 333 333
314 314 315 315 316 316 316 316 317 317 317 318 318 318 319 319 321 321 323 327 333 336 339 338 338 342 345 345 343 344 344 343 344 342 342 345 342 341 340 341 339 337 336 334 333 333 333 333 331
313 313 314 314 314 315 315 316 316 316 315 315 318 318 318 318 318 319 321 324 326 334 338 339 339 341 342 341 344 343 341 342 342 340 344 344 344 342 341 338 337 336 336 337 335 334 334 333 333
313 313 313 313 313 313 313 315 314 314 314 315 315 316 317 318 318 318 319 321 323 324 330 338 340 338 342 341 339 338 336 337 337 338 339 342 343 340 335 337 337 334 335 335 335 335 335 335 335
315 313 313 314 314 314 314 314 315 314 314 314 314 316 316 316 317 318 318 319 320 322 326 339 345 340 340 343 340 339 338 338 335 337 337 335 334 325 333 336 334 334 334 334 335 335 337 339 339
315 314 313 314 314 314 314 314 315 314 314 314 314 314 315 316 316 317 317 318 319 322 323 326 341 345 339 341 342 340 338 338 335 334 333 333 331 332 334 335 331 331 333 335 336 337 340 340 341
312 313 313 313 313 314 314 314 315 315 315 315 315 315 315 315 316 315 316 318 319 322 324 324 326 338 349 342 340 340 339 337 336 333 331 331 328 333 329 334 334 334 337 336 336 342 343 343 342
312 313 313 313 313 313 313 314 313 314 314 314 315 316 315 315 315 315 315 317 320 321 323 324 326 327 333 347 348 344 341 338 336 337 334 332 326 329 329 340 339 335 335 339 342 343 344 345 344
312 313 313 313 312 312 313 314 313 313 313 313 314 315 314 314 314 315 316 317 318 319 319 320 323 326 327 329 339 349 350 349 345 340 337 334 334 328 331 341 341 334 336 337 344 345 346 345 344
313 312 311 311 312 313 312 312 313 313 313 313 313 314 314 314 316 316 317 317 316 316 317 319 321 323 325 327 327 334 345 348 348 348 345 341 342 342 342 344 340 342 344 343 347 347 346 347 345
311 311 312 312 312 313 313 313 313 312 312 313 313 313 315 316 317 316 317 316 316 316 317 319 320 322 323 328 329 329 333 336 342 346 347 345 344 348 345 346 347 347 347 346 347 348 347 346 344
312 312 313 314 313 312 313 312 312 314 313 313 313 313 314 316 317 317 315 315 315 316 318 319 320 321 322 324 327 330 331 332 335 340 346 347 348 350 349 347 348 350 350 349 349 350 348 347 345
312 314 315 313 315 312 314 313 313 314 313 313 313 313 314 317 317 316 316 317 316 316 317 318 319 320 321 322 323 326 329 333 333 337 338 343 344 345 347 348 348 349 351 351 351 349 348 347 346
314 314 315 314 313 313 313 313 316 313 313 313 313 314 315 316 316 316 316 316 316 316 317 318 319 320 321 321 322 324 326 328 332 333 333 335 337 339 341 345 349 351 351 352 350 349 347 346 346
313 314 313 314 314 314 314 313 313 314 314 313 313 313 315 316 315 316 316 316 316 316 317 319 320 321 322 322 322 323 326 326 329 334 336 337 338 339 342 342 346 349 351 350 350 346 346 346 347
313 313 316 315 315 314 313 314 314 315 314 314 313 314 315 315 315 316 316 316 315 316 318 318 319 321 323 324 322 321 323 325 328 333 339 340 341 341 339 342 348 350 350 349 347 346 348 349 349
315 314 313 314 315 317 316 314 316 315 315 314 314 314 314 314 314 315 316 315 315 314 317 318 318 318 320 324 324 321 322 323 326 330 335 339 343 343 343 344 347 348 348 347 348 348 350 350 348
312 313 313 317 317 318 318 318 315 315 314 314 315 315 315 315 315 315 315 315 314 314 314 317 317 317 318 321 325 323 322 323 325 329 334 337 339 344 344 346 346 346 345 348 349 350 349 347 346

GFSSGP_925_thetae_063.txt.gz
Theta_e
324 327 321 323 326 326 332 333 330 327 326 327 327 328 331 331 331 336 338 340 338 348 348 344 335 339 340 345 348 347 344 343 342 343 343 341 340 343 342 338 336 338 335 332 330 328 326 323 319
324 326 325 325 326 330 331 332 328 328 326 326 326 326 326 328 330 335 338 342 337 350 350 347 338 337 339 343 347 348 347 346 344 345 344 342 340 339 339 334 333 333 329 327 323 321 318 315 312
325 326 328 327 325 330 331 328 328 327 325 324 326 327 329 330 334 336 339 343 339 347 351 348 340 333 337 343 348 348 348 347 346 346 344 340 337 336 335 332 330 326 324 323 322 319 314 312 313
326 328 327 328 327 327 327 325 325 325 325 325 325 328 330 332 333 336 339 344 343 345 350 349 339 333 335 342 348 349 349 348 348 346 343 337 334 334 332 328 326 323 322 323 320 315 314 316 317
325 327 330 330 328 327 326 324 324 324 325 324 325 328 331 332 332 335 343 344 344 342 348 350 338 336 332 339 346 350 349 349 348 345 341 333 331 332 328 325 323 321 319 320 317 316 317 318 319
329 328 330 331 330 328 325 324 326 326 326 326 326 329 332 331 329 334 343 344 343 342 346 355 339 338 333 336 345 350 350 349 349 346 340 332 330 327 324 324 322 318 318 318 316 317 319 319 321
328 330 330 330 330 330 328 324 327 328 329 329 329 329 332 331 327 329 343 343 341 342 344 354 346 345 337 333 342 349 350 350 348 347 341 335 332 326 324 324 321 319 321 320 319 318 320 320 321
326 329 329 329 330 330 329 328 326 329 329 329 328 328 332 329 326 328 339 342 343 341 342 350 345 347 346 344 336 342 348 348 346 344 340 336 331 328 325 324 322 319 319 322 321 319 319 320 322
323 327 329 329 329 329 328 329 327 327 329 329 328 328 328 327 326 328 334 342 341 341 341 346 344 345 344 342 344 336 337 340 340 340 337 332 337 337 337 331 334 321 318 320 320 320 319 319 320
322 325 326 327 328 328 328 328 328 327 329 330 329 328 328 326 325 327 329 338 341 341 340 343 345 344 343 339 343 343 343 342 343 342 343 341 338 340 337 336 331 333 322 319 320 322 323 324 328
321 322 323 325 326 327 328 328 328 329 328 328 330 329 328 325 325 326 326 330 341 341 340 340 345 346 343 339 342 342 341 342 343 343 343 342 339 340 340 340 339 338 333 333 330 332 332 331 331
320 321 321 322 324 324 325 327 328 329 329 326 327 328 326 325 325 325 325 326 334 338 339 339 344 346 346 341 341 343 339 342 342 343 344 345 342 343 344 340 341 341 337 337 333 335 335 335 334
319 320 320 320 321 322 323 325 325 325 325 325 324 327 327 325 324 322 324 326 330 335 339 338 342 348 349 348 341 342 340 341 341 343 345 345 346 344 346 343 340 339 339 338 339 335 335 335 336
316 317 318 319 318 320 321 322 321 322 322 322 322 324 326 324 323 322 323 324 331 334 339 339 339 345 350 350 348 345 344 341 343 342 344 348 346 345 344 343 342 340 338 337 336 337 336 336 336
316 316 317 317 318 318 318 318 318 319 320 320 320 322 324 325 322 321 322 324 328 334 339 341 340 341 348 350 350 347 345 344 344 344 344 347 347 345 344 342 342 339 338 338 337 337 336 336 336
315 315 316 316 316 316 317 317 318 319 319 319 319 319 320 323 323 321 321 323 325 327 330 333 341 341 345 348 348 347 345 345 344 344 343 344 347 344 344 341 340 339 338 338 339 338 338 337 339
316 316 317 316 316 315 316 316 317 318 318 318 319 318 319 320 321 320 321 321 322 325 328 337 340 342 344 344 347 347 344 342 341 341 341 343 345 346 344 343 338 338 337 337 337 338 339 340 341
317 318 317 317 317 316 316 317 317 318 317 318 318 318 318 319 319 319 320 319 321 325 327 328 339 347 343 347 347 344 343 341 340 339 338 340 343 344 344 334 338 339 338 336 336 339 340 340 343
316 317 318 317 316 315 317 317 317 318 318 317 318 318 318 318 318 318 318 319 321 324 327 328 330 339 347 341 345 345 344 342 341 340 336 339 339 341 337 340 339 340 339 334 339 338 338 343 345
315 315 315 316 316 316 317 317 317 317 317 318 318 318 318 318 318 317 317 318 322 323 324 325 328 331 336 349 341 342 342 341 343 341 339 338 338 340 340 340 336 338 338 338 342 335 343 345 346
314 314 315 315 316 316 315 316 316 316 317 317 317 317 317 318 318 317 317 318 320 321 322 322 325 327 331 331 341 349 345 339 339 341 340 338 339 339 339 339 335 338 340 342 344 340 344 341 344
315 315 315 314 314 315 316 316 318 317 315 315 316 317 317 317 317 318 318 318 318 318 320 322 324 326 326 330 329 330 348 350 347 346 344 342 339 340 339 337 336 332 334 342 342 344 345 348 346
314 314 314 314 315 316 315 316 316 317 316 316 316 316 317 318 318 318 318 318 318 317 319 321 323 324 326 327 330 331 331 335 346 350 350 350 347 342 341 339 333 338 344 345 345 346 351 349 350
314 314 314 315 316 317 316 316 316 316 315 316 315 315 315 317 319 318 317 317 317 317 318 320 321 323 324 325 326 330 333 334 335 335 343 351 345 345 344 344 341 338 345 347 352 350 353 352 350
314 315 316 317 318 318 316 316 316 317 315 316 315 315 315 317 318 319 318 317 318 318 317 318 319 321 322 323 324 325 327 331 334 337 334 338 347 350 350 349 348 350 352 353 352 353 353 354 352
316 318 320 323 319 316 317 316 317 316 316 315 315 315 316 317 318 319 318 317 317 317 317 318 319 320 321 323 324 324 325 326 327 329 333 332 333 340 347 354 352 352 353 354 353 354 354 353 352
315 317 316 317 317 318 317 316 318 316 315 316 316 315 315 316 318 318 317 317 317 317 317 318 319 320 321 322 324 326 326 326 327 329 332 336 337 336 338 347 354 353 353 352 354 355 354 352 351
315 316 321 319 318 317 316 316 317 318 317 316 316 316 316 317 317 317 317 316 316 317 317 317 319 320 320 320 321 323 325 324 325 328 331 333 336 341 340 342 347 349 349 353 355 354 353 351 349
315 317 316 318 317 322 320 318 318 318 317 316 316 316 316 317 317 317 316 315 316 316 316 316 316 318 319 319 320 321 325 326 324 326 328 331 336 340 342 344 343 345 349 354 355 353 350 349 350
316 318 319 324 320 316 316 316 317 317 317 316 316 317 317 317 317 317 317 316 316 316 316 316 315 316 317 318 318 319 322 326 327 326 327 329 334 340 344 344 344 345 350 353 353 352 347 350 350

GFSSGP_925_thetae_069.txt.gz
Theta_e
321 321 325 326 319 321 322 324 325 328 328 322 324 324 339 339 343 347 347 346 332 336 339 346 346 345 346 343 339 337 338 337 339 337 335 338 338 339 339 339 338 337 333 328 325 325 323 319 314
320 324 327 323 321 322 323 325 326 322 322 322 324 324 331 337 337 337 346 344 328 329 337 343 346 346 346 345 341 338 338 339 340 337 335 338 339 340 337 334 332 330 325 323 321 319 316 313 312
319 322 324 324 323 322 324 325 323 322 322 321 323 325 331 336 335 336 347 348 332 331 333 341 345 345 345 345 343 339 339 340 341 339 335 336 340 337 331 329 327 323 321 319 317 315 314 314 315
317 322 323 325 325 325 325 326 324 323 323 323 322 327 331 333 333 335 345 350 344 332 330 338 343 344 342 343 344 341 340 341 342 341 336 333 336 332 327 326 323 319 318 317 315 315 315 316 317
318 320 323 326 325 324 325 324 324 323 322 323 323 325 331 328 328 332 342 349 349 337 330 335 340 342 342 341 344 344 342 342 343 342 339 335 334 331 327 325 321 318 317 316 315 315 316 317 319
316 320 325 325 325 326 327 325 325 323 323 324 326 326 329 326 327 327 338 343 351 346 337 333 338 340 343 341 342 345 345 345 344 344 341 336 334 333 328 325 321 318 316 316 316 316 317 318 319
316 319 323 324 326 325 326 325 324 324 324 325 327 328 328 325 326 326 329 339 348 349 345 333 336 340 342 343 341 345 347 347 346 345 342 338 334 332 329 325 322 319 316 316 316 316 317 317 318
317 318 321 323 325 326 325 325 322 323 324 325 328 328 328 325 326 326 326 339 351 349 348 339 333 339 345 349 343 344 346 347 347 347 343 338 335 333 328 325 323 320 317 316 316 316 316 317 317
315 318 319 321 324 324 323 324 322 323 324 325 327 328 327 326 326 326 325 325 352 352 348 345 333 337 343 350 351 345 346 347 347 348 345 339 333 331 327 324 323 320 318 317 317 317 316 316 317
314 315 318 319 320 321 321 322 323 324 324 325 328 328 328 326 326 324 324 323 341 355 352 347 337 334 342 347 354 347 347 348 348 347 344 340 333 330 325 323 323 323 322 318 318 317 318 319 318
314 315 317 319 319 320 320 321 322 325 324 325 326 326 326 326 324 324 324 323 323 341 349 347 338 333 339 351 346 349 348 348 348 347 342 338 332 329 335 331 335 331 330 327 323 319 318 318 319
312 315 317 317 319 319 319 319 319 321 326 326 326 325 326 326 322 323 323 323 323 334 344 346 345 334 335 345 344 344 347 347 346 344 340 334 329 331 337 339 338 338 337 336 333 325 324 331 334
314 314 316 316 317 317 318 318 319 319 322 327 327 327 325 325 323 325 323 323 323 331 339 345 345 343 338 343 343 340 334 339 337 337 335 332 328 328 340 342 339 339 340 341 337 335 335 333 336
313 313 314 315 315 315 317 318 317 318 319 325 326 325 324 324 324 325 324 323 325 330 337 348 347 344 343 345 345 342 340 336 334 332 332 334 333 331 337 344 343 341 343 343 340 338 338 336 337
313 313 313 313 313 314 315 315 317 317 318 318 323 322 323 322 323 323 324 324 330 334 340 342 349 345 342 349 350 349 342 344 341 339 336 334 337 339 339 343 341 345 346 344 343 342 340 339 339
312 312 312 312 313 314 315 314 315 316 316 317 318 317 317 319 321 323 324 327 327 332 333 341 350 350 344 344 345 349 348 343 342 342 342 342 340 342 346 343 346 344 342 342 339 341 339 337 337
311 311 312 313 313 314 313 314 315 316 315 315 315 317 316 316 317 321 325 327 327 326 328 333 342 350 348 343 344 345 347 347 345 342 344 345 344 342 346 348 347 346 343 342 341 340 338 337 338
311 312 313 314 315 314 314 314 315 315 315 315 317 318 318 317 318 321 324 325 326 326 324 327 343 346 347 346 346 344 349 347 346 347 346 348 348 346 344 345 345 346 344 344 340 340 339 340 339
313 313 314 314 316 316 315 315 315 315 314 315 315 316 316 316 317 321 324 325 324 324 323 319 336 344 347 346 343 344 342 345 347 345 345 344 347 348 346 346 345 345 344 341 342 339 338 339 338
314 313 314 315 315 316 315 317 316 316 316 316 316 315 315 316 316 318 324 324 325 327 326 322 330 345 344 347 345 343 345 344 344 345 344 342 341 341 346 346 343 343 345 345 342 339 339 339 336
313 313 314 314 314 314 314 315 317 317 315 315 315 315 315 315 316 315 320 326 326 325 324 323 324 330 337 346 348 346 345 345 343 342 341 336 337 335 340 343 344 342 339 341 342 340 337 338 339
312 314 314 316 314 313 314 314 315 316 315 315 315 315 315 315 316 316 316 320 326 326 324 322 322 322 324 331 339 345 341 338 340 344 343 342 341 339 339 339 342 343 343 343 339 337 335 340 342
313 315 315 315 314 313 313 312 313 315 314 314 315 315 314 314 315 316 314 317 319 320 323 323 323 323 322 325 330 332 337 342 343 343 343 338 337 340 340 339 339 339 341 341 340 337 338 339 344
314 314 314 313 312 313 312 313 313 313 314 314 315 314 314 313 315 316 318 318 318 318 319 320 323 324 324 324 322 325 329 332 334 335 337 340 344 342 342 341 340 339 341 343 342 340 338 342 343
318 313 312 313 313 315 317 321 318 317 317 315 315 314 314 315 315 315 314 314 317 319 318 319 321 322 323 322 323 323 323 325 327 330 331 332 333 335 339 339 342 342 341 342 342 340 340 342 345
321 321 317 318 316 317 320 323 319 319 317 315 315 313 314 316 315 314 313 313 317 318 319 319 319 321 323 324 324 323 322 323 323 324 325 328 331 332 332 335 340 340 331 336 339 342 342 343 344
322 321 319 321 321 321 318 319 319 319 319 315 314 313 312 313 315 314 315 315 316 318 318 317 317 317 318 322 322 323 323 324 324 324 323 323 325 326 325 339 338 338 338 339 331 334 343 345 343
320 318 323 320 326 323 317 316 324 320 320 319 316 314 313 313 314 315 314 315 317 317 318 318 318 318 317 317 318 319 323 323 323 327 326 325 324 324 324 323 329 333 341 342 336 338 344 346 346
317 318 321 320 320 319 320 317 319 319 318 319 317 316 313 312 313 312 313 316 317 318 318 318 318 318 317 317 318 319 320 320 321 320 325 328 326 325 325 327 327 327 326 341 346 347 350 351 351
317 319 317 322 317 319 318 319 316 317 316 317 316 316 315 315 312 311 311 313 315 316 316 317 318 318 317 318 320 322 321 321 320 318 322 324 328 327 326 325 326 331 335 334 346 351 352 354 354

GFSSGP_925_thetae_072.txt.gz
Theta_e
321 321 325 324 318 317 321 323 324 324 320 320 329 338 340 339 344 346 346 347 343 340 343 345 348 344 340 336 336 335 335 334 332 333 335 336 336 336 336 335 335 333 329 326 323 322 319 315 313
319 321 325 320 319 320 321 324 325 322 320 319 328 332 335 338 340 348 347 347 333 336 344 345 348 344 340 337 337 337 337 336 333 334 336 336 336 336 334 332 330 326 323 320 319 317 314 313 311
318 319 323 321 319 321 322 323 323 321 321 320 321 330 334 336 335 344 346 344 332 339 341 344 347 345 341 337 337 339 338 337 333 335 337 337 336 331 328 327 324 321 319 317 316 315 314 315 314
315 318 320 323 324 323 324 325 323 323 321 321 323 329 327 330 331 344 341 330 331 339 340 342 346 346 342 338 338 339 339 339 334 333 337 338 335 327 325 325 322 319 317 316 315 315 316 317 317
316 315 322 324 324 323 324 324 324 325 321 322 325 328 327 326 333 347 344 331 331 337 340 341 343 346 344 340 338 339 340 341 336 332 333 337 334 328 326 324 320 318 317 316 316 316 317 318 319
314 316 322 323 323 324 324 324 324 322 322 325 327 327 326 324 325 332 347 338 332 332 340 341 341 345 345 343 340 340 340 342 340 335 332 334 332 328 326 324 320 318 317 316 316 316 317 318 318
314 315 320 323 324 324 325 323 323 323 324 326 325 327 326 324 325 325 337 347 337 335 336 342 343 344 345 345 342 341 342 342 342 338 334 333 332 329 325 323 320 318 318 316 316 316 317 317 318
314 315 318 318 321 322 323 323 321 319 324 324 325 327 325 323 326 325 343 349 344 342 339 340 340 342 346 348 345 343 343 342 342 341 336 334 332 329 325 323 320 319 317 317 316 316 316 316 317
313 314 317 318 319 321 321 321 321 321 321 324 325 325 325 325 327 327 348 349 350 350 346 346 339 339 346 354 350 346 344 343 342 341 338 334 331 329 325 321 320 319 318 317 317 317 317 316 316
311 310 314 316 317 317 318 319 318 320 320 322 325 326 325 324 326 322 333 350 352 351 348 346 349 344 341 351 354 349 347 346 345 344 340 333 329 327 324 322 320 319 319 318 317 317 317 317 317
311 314 313 314 315 316 318 319 319 318 320 321 324 324 324 322 322 321 321 344 351 351 349 344 345 347 342 347 353 357 352 348 346 344 341 335 329 326 326 323 322 321 320 323 324 322 320 318 319
310 311 313 314 315 316 316 318 318 317 318 321 323 324 323 322 321 320 321 328 350 353 351 349 340 346 347 337 346 354 352 349 347 345 341 337 329 325 324 327 326 329 333 335 335 334 330 324 324
309 310 311 313 314 315 316 316 317 317 318 321 323 325 324 320 320 323 323 322 342 348 346 348 346 341 347 346 338 340 345 347 347 346 343 337 330 324 323 327 336 337 336 337 339 339 334 333 333
311 311 311 311 311 312 314 315 315 317 318 322 325 326 324 322 321 322 322 322 327 337 342 346 346 341 343 346 344 336 338 343 345 344 341 337 331 326 324 330 338 339 339 338 341 342 339 337 336
311 311 310 311 312 312 313 312 314 315 316 316 319 321 324 322 322 321 324 323 327 335 342 343 345 340 340 344 343 342 337 336 339 339 337 335 331 327 325 331 340 342 341 341 343 343 342 340 338
310 310 310 310 312 312 312 313 313 312 314 315 315 319 321 321 320 322 323 325 332 340 346 346 346 344 338 343 344 342 340 337 334 331 332 330 328 327 328 331 337 341 343 345 345 344 342 341 340
307 309 310 310 310 311 312 313 313 312 313 313 314 313 314 315 317 320 323 327 331 335 341 347 348 348 343 345 346 346 344 342 340 338 335 334 330 330 331 333 336 341 344 344 343 342 342 340 339
309 309 310 311 312 312 311 312 313 313 312 313 311 314 315 314 315 319 325 326 327 330 332 339 348 350 347 349 350 349 347 344 342 342 340 340 339 339 339 340 342 344 346 346 344 342 341 341 340
310 311 311 312 312 314 313 312 312 313 311 311 312 313 313 314 314 321 326 327 326 324 322 330 334 343 350 350 349 348 350 349 347 344 343 343 343 343 343 343 346 346 347 346 344 343 343 341 340
313 312 312 311 313 313 312 312 311 313 312 312 313 312 311 313 313 321 325 327 326 323 321 324 335 344 342 348 350 348 346 347 348 347 346 347 350 346 346 344 344 345 345 345 345 343 342 341 339
313 313 312 312 314 312 312 312 311 314 314 313 313 313 313 312 312 320 323 325 327 325 322 321 324 332 337 343 344 347 345 344 345 345 346 344 343 345 347 346 346 345 344 344 343 344 344 341 339
311 311 313 314 313 312 314 313 312 313 313 312 312 311 311 312 312 316 320 321 325 322 322 322 321 321 321 323 333 344 345 341 342 342 342 342 343 342 340 337 336 340 345 344 342 343 341 340 339
315 314 313 314 312 311 312 311 311 311 312 311 311 311 311 311 313 312 316 323 324 324 323 321 321 321 320 319 324 330 334 338 340 342 340 343 342 340 339 339 341 341 339 340 341 343 341 340 339
317 315 311 310 309 312 312 311 313 311 311 311 312 314 312 311 311 312 318 322 323 323 322 321 320 320 319 320 321 323 326 328 332 334 337 339 340 339 338 334 336 337 338 338 341 341 341 341 339
319 319 318 313 311 314 312 316 313 315 316 317 316 313 312 313 314 314 316 314 316 321 323 322 321 320 320 321 322 322 322 324 325 325 327 331 333 337 340 341 340 341 340 332 341 342 342 342 340
320 319 318 321 317 315 318 319 316 316 317 316 316 311 312 314 315 314 313 312 313 316 318 319 320 320 321 321 321 321 322 322 322 323 324 325 327 330 333 333 334 336 339 341 342 342 342 340 341
321 320 318 321 321 323 318 316 315 317 317 317 317 315 312 313 313 313 311 311 315 316 317 318 319 320 320 321 322 322 322 322 323 323 323 324 324 324 322 325 327 337 336 337 338 335 334 337 335
320 319 317 323 325 325 319 318 317 320 319 318 317 315 314 313 312 312 311 311 315 316 318 319 319 319 318 318 319 322 320 320 323 322 321 324 322 325 325 324 325 325 329 333 338 337 338 336 331
318 319 318 319 322 325 321 314 316 319 318 319 318 317 314 314 314 313 310 311 314 316 317 317 316 316 317 317 316 316 316 318 320 319 319 319 319 323 325 326 326 326 327 329 331 333 340 341 330
317 318 318 319 320 321 320 317 315 315 315 316 316 317 315 314 313 313 314 314 314 311 315 316 316 316 317 317 316 316 317 319 320 321 321 322 319 320 323 323 323 327 327 326 327 335 335 341 339

GFSSGP_925_thetae_075.txt.gz
Theta_e
321 320 324 321 319 318 320 321 322 321 319 325 333 338 340 340 343 342 346 345 340 342 346 348 343 339 336 335 334 334 335 336 339 340 340 339 337 336 335 334 334 333 330 326 324 322 319 315 313
319 320 323 318 318 321 322 321 324 321 320 317 323 331 334 339 343 347 347 347 343 341 345 348 343 339 336 335 334 334 333 334 335 336 336 335 335 334 332 331 329 326 323 322 320 317 314 312 311
317 321 321 320 318 320 322 323 323 322 321 320 325 328 332 335 342 345 346 345 343 342 344 347 344 340 336 335 335 334 333 333 334 335 335 335 334 331 329 327 325 321 320 318 317 315 314 313 312
315 317 317 322 325 323 322 323 323 324 322 321 326 328 325 325 326 342 347 345 339 344 345 347 344 340 336 336 336 336 334 333 335 335 336 335 332 329 327 325 321 320 318 317 315 315 316 316 314
315 314 320 324 325 323 324 324 325 325 323 323 326 326 325 324 341 345 345 346 337 341 347 347 344 341 337 336 337 337 336 332 335 336 337 335 330 327 327 324 321 319 318 317 315 316 317 318 318
313 314 320 323 323 323 323 323 323 323 323 325 325 325 325 323 343 345 338 342 338 338 345 348 346 342 338 337 338 339 337 331 333 337 337 334 328 327 327 323 320 318 317 317 316 316 317 318 318
314 315 319 321 322 322 324 322 323 322 322 322 323 326 324 322 328 343 340 335 340 345 347 349 348 343 340 337 338 339 339 333 329 332 334 330 327 325 325 321 319 318 317 317 317 317 317 317 318
312 312 316 317 320 321 321 322 320 320 323 321 325 326 324 322 327 337 345 341 342 346 350 354 350 346 343 339 338 339 340 337 331 328 329 329 327 325 323 321 319 318 317 317 317 316 316 317 317
311 313 314 316 318 319 318 319 320 320 319 320 322 324 324 325 343 340 347 344 346 348 351 354 355 350 345 342 340 340 341 340 335 330 326 327 326 325 323 321 320 318 317 316 316 317 317 317 316
311 310 313 314 316 316 316 316 317 317 317 318 318 323 324 324 333 346 348 348 348 348 351 353 354 353 349 347 343 341 342 343 341 335 330 326 325 324 322 321 320 319 318 317 317 317 317 317 317
310 312 311 313 314 314 315 316 316 317 316 316 318 321 323 321 322 341 348 349 349 348 348 349 351 352 349 351 350 347 345 345 344 340 333 328 326 325 324 322 321 320 319 319 320 321 321 320 320
311 310 311 312 312 314 314 315 316 316 317 315 316 319 322 321 318 321 338 349 350 349 345 344 345 348 348 349 349 351 350 349 347 344 339 332 328 326 325 322 321 320 320 321 326 331 333 331 327
309 309 310 310 310 311 312 313 314 315 315 315 316 318 322 320 319 320 332 344 350 349 348 344 342 342 345 346 348 349 351 351 346 345 343 338 330 325 325 323 322 321 323 330 334 337 338 336 333
310 310 309 309 310 310 312 313 312 314 314 315 316 321 321 320 318 319 320 332 349 349 349 347 341 338 340 344 346 348 352 351 346 344 343 340 335 329 326 325 325 331 334 336 336 337 339 341 338
310 310 308 310 311 311 310 311 312 313 315 315 315 316 321 320 320 319 320 328 341 346 349 348 347 342 337 338 340 342 347 346 346 345 344 343 339 334 328 325 325 328 334 338 339 339 341 342 341
308 308 309 309 311 310 311 312 312 311 312 314 313 313 315 316 320 322 322 321 334 335 342 344 347 346 342 343 336 337 338 341 343 343 342 341 340 336 333 327 324 325 333 340 341 343 344 343 342
306 307 308 308 309 310 311 311 311 311 311 310 311 312 314 315 317 321 322 322 325 333 336 342 345 346 342 342 344 343 342 344 344 344 342 339 338 336 332 328 326 327 333 339 342 343 343 342 341
308 308 308 309 309 310 309 310 310 310 311 310 311 310 312 312 314 317 321 322 329 335 339 341 344 345 341 342 344 344 343 339 341 340 341 340 335 332 332 330 327 329 335 341 343 344 344 342 341
309 309 309 310 311 311 311 311 310 310 309 309 309 308 311 312 312 315 320 324 330 335 341 344 347 346 343 345 347 347 344 339 339 339 340 340 337 331 331 332 333 334 336 340 344 346 344 343 342
310 310 311 311 311 310 310 310 310 310 310 310 309 309 310 312 312 319 324 325 327 330 334 339 345 349 348 345 348 349 348 345 342 341 336 339 342 340 339 339 339 342 344 346 346 345 344 343 341
311 311 311 312 312 312 311 311 310 311 312 312 312 311 311 310 311 318 322 324 325 324 324 330 337 342 346 348 348 347 346 344 345 345 345 344 344 343 344 344 343 343 344 345 346 345 345 343 341
314 313 313 312 313 311 312 312 311 310 311 311 309 309 309 310 310 312 321 322 324 323 323 327 333 337 340 341 343 343 344 343 342 343 343 344 344 343 345 341 342 344 343 345 343 345 344 343 342
317 316 312 312 311 310 311 310 309 311 311 310 309 309 309 307 308 309 317 322 324 323 322 323 323 323 322 321 320 324 337 342 342 341 341 340 340 340 341 339 334 336 338 336 335 338 344 342 342
317 316 313 309 308 311 311 310 311 312 310 311 312 314 313 312 310 308 311 320 321 322 322 322 321 320 320 319 320 323 327 330 331 333 335 338 339 339 340 340 340 338 334 333 330 330 339 341 341
317 318 317 316 314 317 310 311 312 311 312 314 315 314 311 311 310 308 315 319 320 321 321 321 320 320 320 321 321 321 321 323 325 326 327 328 330 334 337 338 339 338 337 338 338 335 339 336 334
319 318 319 325 321 316 316 317 313 313 315 316 314 311 310 310 309 310 316 319 320 319 321 320 319 318 319 319 319 320 321 322 322 322 323 324 324 325 328 331 331 333 336 338 340 340 340 339 338
320 320 320 320 318 319 316 315 314 315 316 316 315 314 312 310 310 310 310 311 316 319 320 320 319 318 319 318 319 320 320 321 320 322 323 323 323 324 323 323 323 324 331 336 337 340 340 339 339
317 318 321 320 323 323 318 317 316 316 317 317 315 313 313 312 312 310 309 310 312 312 318 320 319 318 319 319 319 320 321 322 320 322 322 320 323 320 323 325 325 325 326 328 332 334 336 335 335
314 318 321 319 321 318 317 318 316 319 317 316 315 315 313 313 312 312 312 312 313 313 313 314 317 317 318 319 320 319 320 322 320 321 323 320 322 322 322 322 324 324 323 326 326 327 329 333 335
314 316 318 319 320 321 319 316 316 316 314 313 313 314 314 313 313 312 312 312 313 312 311 314 314 313 316 318 318 317 316 317 316 317 319 320 320 321 320 322 325 324 319 319 326 329 328 330 332

GFSSGP_925_thetae_078.txt.gz
Theta_e
321 320 323 319 317 317 320 320 321 321 321 321 323 336 341 339 341 340 346 346 339 339 345 344 342 338 338 339 342 345 346 346 346 345 346 345 341 338 336 336 335 334 333 329 325 323 320 316 316
319 320 322 317 318 320 321 320 322 322 321 318 318 328 334 337 346 347 347 347 341 339 346 344 341 337 337 337 337 340 343 345 345 346 345 343 339 336 336 334 332 331 326 323 322 319 315 314 314
317 322 319 319 316 320 321 322 323 321 322 319 322 327 332 332 335 346 346 343 344 342 349 346 341 337 336 335 335 335 339 341 343 344 342 338 336 336 334 330 329 325 323 322 319 315 313 312 313
315 316 316 322 323 322 320 322 324 323 322 320 324 326 324 323 324 340 347 344 343 342 349 346 341 337 336 335 334 333 334 336 337 337 336 336 336 334 330 328 324 322 322 319 316 314 314 313 313
315 314 320 324 324 323 322 323 323 323 322 321 322 325 324 323 341 346 347 347 342 342 345 347 342 337 336 335 334 333 333 334 334 335 335 335 334 330 326 323 321 319 318 317 315 316 317 317 315
313 313 319 322 323 323 322 322 322 323 321 321 322 322 324 323 344 347 347 347 344 340 344 348 343 338 336 335 335 334 333 333 334 335 335 333 331 326 323 321 319 318 317 316 316 317 317 318 319
313 315 318 320 322 322 323 321 323 321 321 322 320 325 322 322 327 346 344 346 344 343 349 350 344 340 336 336 336 336 334 333 334 335 334 331 325 322 322 320 319 317 317 316 316 317 317 318 318
310 312 316 318 321 321 320 321 319 320 321 320 323 324 321 320 323 345 346 346 341 341 349 352 352 343 338 337 337 337 335 333 335 334 333 328 324 323 322 320 318 318 317 317 317 317 317 317 317
310 312 314 316 318 319 317 318 317 318 318 319 318 319 320 323 330 343 343 346 348 348 348 351 353 351 342 338 338 338 338 333 334 336 332 328 323 323 323 321 319 318 317 317 317 317 317 316 316
310 310 314 313 315 315 315 315 315 316 315 316 316 317 322 325 340 344 343 345 348 351 350 350 350 350 349 340 338 339 340 337 334 334 334 329 325 323 323 322 320 319 318 317 317 317 317 317 317
309 311 310 312 314 314 314 314 314 315 315 314 316 316 319 322 324 344 344 344 345 348 349 349 350 350 350 343 340 340 341 341 339 335 331 330 327 326 324 322 321 321 320 320 319 319 320 321 321
311 309 311 312 312 313 314 314 314 314 314 314 314 314 315 318 319 336 345 346 345 345 348 349 349 349 350 347 343 342 342 343 343 341 337 332 330 328 326 323 321 321 321 320 321 323 329 333 330
308 309 309 309 308 308 309 310 311 312 313 313 313 314 314 317 317 327 342 346 347 346 347 348 348 350 350 348 346 344 343 344 346 347 341 336 331 327 327 326 323 322 322 321 323 331 336 337 336
308 309 309 309 309 309 310 310 310 311 312 312 312 312 312 316 317 319 324 341 348 348 346 347 347 347 347 348 346 347 344 345 347 346 342 338 333 328 327 326 326 324 323 323 329 334 336 339 340
309 309 307 309 310 310 308 310 310 311 311 312 312 312 314 319 319 318 321 332 347 348 347 346 344 345 344 346 346 346 346 347 348 347 343 340 337 333 330 328 327 325 326 331 336 337 338 339 341
308 306 308 307 309 309 310 311 311 311 309 311 312 312 312 312 319 319 321 324 339 347 348 347 346 344 344 344 346 345 345 345 344 350 346 343 343 339 335 331 327 325 326 332 337 339 339 342 343
303 306 308 308 308 308 309 309 310 309 309 309 309 310 310 311 311 318 320 320 328 342 345 347 347 345 342 343 345 345 343 340 343 341 345 346 346 345 343 339 331 327 325 328 337 340 341 343 343
308 308 308 308 309 308 308 308 308 308 309 309 308 307 309 310 311 313 317 321 321 335 341 345 346 346 345 344 346 345 344 341 333 335 339 342 345 345 344 343 340 333 327 327 334 339 342 342 342
308 308 308 308 309 310 309 310 309 308 308 307 308 307 307 308 310 311 313 318 320 324 333 340 343 344 345 343 344 344 343 342 341 340 334 335 337 337 338 341 341 337 331 326 334 342 343 344 343
309 309 309 309 310 309 309 310 309 308 308 308 308 308 307 307 308 310 316 318 321 325 331 337 340 342 344 343 343 343 342 342 341 337 339 339 339 339 340 339 338 337 335 333 336 340 344 344 343
310 310 310 310 311 310 310 310 309 309 310 310 309 308 308 308 308 308 317 321 323 328 334 337 340 342 343 342 344 345 345 343 340 337 337 336 334 334 339 339 338 340 339 341 344 345 345 344 343
312 310 312 313 312 312 310 313 311 309 309 309 309 307 307 306 307 308 310 320 323 326 331 337 342 345 346 345 345 346 344 342 343 341 340 340 337 340 340 334 331 331 341 342 343 342 339 339 339
315 315 315 312 310 309 310 309 311 309 309 308 309 309 307 308 308 309 308 314 322 324 325 330 338 342 345 347 347 346 343 342 342 342 342 341 340 338 340 340 340 338 340 333 335 335 334 329 332
316 316 315 308 307 312 313 311 313 312 309 309 309 310 312 310 309 307 309 312 317 323 323 324 334 337 337 337 337 339 339 340 340 340 339 339 339 338 339 340 340 340 339 339 337 335 332 329 328
316 316 317 317 314 317 312 310 313 311 310 309 310 312 310 309 308 309 305 306 314 320 323 323 325 323 322 320 320 320 321 325 330 332 333 334 336 337 338 339 339 340 340 338 336 335 334 332 331
318 316 316 319 318 316 315 318 314 312 313 314 313 311 311 310 308 308 308 309 313 318 320 320 321 320 319 320 320 320 319 320 321 323 325 326 328 331 331 330 333 337 338 339 338 337 335 334 332
318 318 314 313 316 321 315 314 313 313 315 315 314 313 312 310 310 308 309 309 315 318 318 318 319 319 319 319 319 319 320 320 320 321 322 323 323 323 328 331 330 328 328 331 334 337 339 339 337
316 315 314 318 321 324 318 316 316 315 317 315 314 313 311 311 311 311 310 309 310 314 315 318 318 317 318 318 318 318 319 320 320 320 322 322 322 324 324 324 324 324 324 326 328 332 335 336 335
312 316 317 318 319 322 322 316 316 317 316 316 313 312 310 310 312 311 311 312 312 311 312 315 317 317 316 318 318 318 319 319 320 320 321 322 321 322 321 323 324 325 322 323 325 326 327 329 329
308 310 312 312 313 317 319 317 315 313 312 313 313 312 312 310 311 311 313 313 313 313 313 312 314 316 316 315 317 318 319 320 321 321 319 321 319 319 320 320 321 322 323 321 322 322 324 322 321

GFSSGP_925_thetae_081.txt.gz
Theta_e
320 320 322 322 325 324 325 325 324 328 327 326 323 340 344 343 345 346 349 348 348 353 355 349 345 344 347 348 347 347 348 347 342 337 338 341 338 337 335 337 338 336 336 334 328 322 318 318 322
319 320 322 323 325 325 327 324 326 328 327 324 322 330 338 342 345 350 350 348 349 354 355 353 343 343 346 348 348 348 348 346 342 342 344 342 339 337 335 336 335 334 332 327 324 321 317 317 322
317 321 325 325 324 325 325 325 326 327 326 327 328 329 333 336 333 348 348 349 349 353 354 353 342 341 343 346 347 347 347 345 344 345 345 342 339 336 336 335 333 331 325 323 322 318 314 314 322
316 321 323 326 326 325 322 325 326 327 327 325 326 330 327 325 327 341 351 350 350 352 352 348 341 339 340 341 344 346 346 345 345 345 344 341 337 335 333 331 330 325 322 320 318 314 313 313 315
317 321 325 327 326 325 324 325 325 326 326 326 325 327 328 326 347 352 352 351 349 350 352 350 341 338 337 337 338 342 344 345 345 344 342 338 335 334 331 329 325 321 320 318 315 315 314 313 315
320 320 324 325 325 325 324 324 324 324 324 325 325 325 328 326 348 353 352 351 349 350 352 353 341 338 337 336 336 336 339 342 343 341 337 335 334 332 329 326 321 319 318 316 316 317 317 317 316
320 322 321 322 323 323 323 323 324 323 324 324 323 325 325 325 329 351 353 351 349 349 352 353 351 341 337 335 334 334 334 337 338 337 335 334 333 330 326 323 320 319 318 316 316 317 318 318 319
317 320 320 321 320 321 321 322 321 322 322 321 321 326 324 322 331 348 351 351 349 348 350 352 352 349 347 345 335 333 332 333 336 337 336 335 332 327 324 321 320 318 318 317 317 317 317 318 318
313 320 319 319 320 320 318 320 319 319 319 319 320 320 320 322 332 345 348 351 349 348 351 352 351 351 348 346 344 335 334 332 333 337 337 335 338 332 326 323 320 319 318 318 317 317 317 317 317
316 318 318 317 318 319 318 318 318 317 318 318 319 320 319 321 336 339 346 347 348 348 349 350 352 350 349 346 347 345 344 341 341 344 344 343 341 340 338 332 320 319 319 319 318 318 317 318 329
313 316 315 315 317 317 317 317 317 317 318 318 318 319 319 318 320 339 342 344 345 346 347 349 352 351 349 347 348 347 346 345 344 346 346 345 343 340 337 337 334 333 325 332 325 327 328 330 329
314 313 315 315 315 316 315 315 314 315 316 316 317 317 318 318 319 320 336 344 344 347 347 349 350 350 349 348 347 347 346 346 343 343 340 344 343 340 339 337 337 338 335 335 332 332 325 328 331
312 312 312 313 312 312 312 313 314 314 315 316 316 316 317 318 319 319 324 338 346 346 348 348 349 350 349 349 348 346 346 346 345 344 343 336 339 340 340 339 336 334 335 333 329 324 327 335 336
310 311 312 312 313 312 313 314 313 314 315 316 316 317 317 318 318 319 321 330 346 347 348 348 349 350 349 351 349 346 346 347 347 345 344 340 333 331 337 338 335 334 324 325 324 326 334 338 338
311 312 311 312 313 313 313 314 314 315 314 315 316 317 318 318 320 324 323 326 341 348 349 349 349 350 349 349 350 348 347 346 346 345 342 339 336 336 333 332 331 327 327 323 323 328 335 336 338
311 311 313 312 311 312 311 314 314 313 314 315 315 316 317 317 317 318 321 322 331 347 349 349 349 349 349 349 349 349 348 347 346 345 344 338 335 337 336 338 333 329 328 329 335 337 340 341 342
311 311 312 313 312 312 312 314 314 315 315 315 315 315 315 316 318 318 318 319 320 324 349 349 350 349 349 349 348 348 348 348 348 347 346 345 344 335 338 340 339 334 332 335 336 339 340 343 345
312 312 312 313 314 313 313 314 314 314 314 315 315 315 315 316 316 317 317 317 319 321 335 347 348 349 348 348 348 347 347 347 347 347 346 346 344 344 340 342 341 341 340 337 337 338 343 344 345
311 312 313 314 314 313 315 315 315 315 315 316 316 317 316 316 317 315 315 315 317 319 330 344 347 347 347 346 346 345 345 346 346 345 346 345 343 341 340 342 342 342 342 340 336 335 342 344 344
312 313 314 314 314 313 316 316 316 315 315 316 316 316 317 317 317 318 316 316 319 318 322 331 344 348 347 346 346 345 345 345 345 344 343 340 342 342 341 344 341 339 341 340 338 336 341 345 344
314 314 314 315 315 316 316 316 316 315 315 315 315 316 317 317 317 318 318 317 322 323 326 331 339 345 346 345 346 346 345 344 344 344 343 341 340 340 339 340 340 339 338 340 336 339 341 343 342
315 313 314 316 318 318 316 319 317 316 316 316 315 316 317 317 317 316 319 319 321 325 325 330 336 342 344 345 345 345 344 345 344 343 342 340 338 338 336 337 340 342 342 344 344 342 342 343 342
315 317 318 318 318 318 317 318 316 316 316 316 316 316 316 316 316 318 318 317 317 320 326 328 335 341 344 344 345 345 346 345 345 344 343 342 341 337 335 337 341 340 339 335 337 340 334 329 330
317 318 319 317 317 318 317 318 317 316 316 316 315 315 315 317 317 318 317 316 316 317 323 327 333 340 344 346 346 346 346 346 344 345 344 344 344 345 343 340 337 334 328 332 334 331 329 329 327
319 319 318 317 318 318 316 317 316 316 315 316 317 317 317 318 318 318 318 319 317 315 319 325 328 335 338 344 347 347 346 345 344 344 343 343 342 342 342 339 335 332 328 332 338 335 330 327 326
319 317 316 318 314 314 314 316 314 316 318 317 317 317 317 318 318 318 317 317 318 317 315 322 326 330 333 333 335 335 335 336 336 338 336 337 338 339 340 340 342 341 341 341 338 336 332 328 334
319 317 318 322 316 317 313 314 316 317 319 318 318 317 318 317 317 318 319 317 316 320 319 319 322 327 327 326 326 325 326 326 325 325 325 330 330 332 333 337 339 340 342 342 341 340 338 337 337
318 317 319 318 318 316 313 318 318 318 320 318 317 317 317 317 317 317 317 318 316 315 320 320 321 323 323 322 321 320 319 320 321 321 322 323 325 325 330 333 333 333 334 337 340 340 341 342 340
318 319 319 317 317 318 317 314 318 318 318 317 316 316 315 315 315 316 317 316 317 317 316 320 319 318 319 322 322 323 324 324 320 320 321 322 322 323 328 328 328 330 332 333 334 333 333 333 334
312 313 314 317 315 319 318 315 312 318 316 315 316 316 314 313 313 313 314 314 315 316 317 317 319 320 319 317 319 321 323 323 324 323 321 321 321 322 324 326 327 327 327 328 328 327 327 327 326

GFSSGP_925_thetae_087.txt.gz
Theta_e
323 325 325 327 332 336 339 339 338 336 334 333 332 337 341 341 351 362 352 348 346 354 355 352 349 348 346 340 335 334 335 337 339 338 338 339 338 338 340 342 345 344 342 340 334 327 317 319 325
322 324 326 329 334 339 340 338 338 336 334 333 331 333 336 345 343 352 353 346 347 354 354 353 348 347 346 344 339 339 339 339 338 338 338 338 337 337 339 341 345 344 341 335 326 319 316 321 325
321 324 328 331 333 337 338 338 335 333 333 334 335 335 339 342 340 350 352 347 348 353 353 354 346 346 346 346 346 346 345 343 339 337 338 338 337 337 337 339 340 340 336 329 322 317 317 323 332
322 325 327 330 333 334 334 337 333 333 333 331 333 336 338 347 348 350 349 347 350 353 351 357 345 345 345 346 347 348 348 347 340 338 338 338 337 337 337 338 338 336 332 325 320 317 317 324 330
322 326 329 330 330 331 331 332 332 333 335 333 331 335 339 341 351 351 348 349 349 350 352 356 346 345 344 344 344 347 348 348 344 338 338 339 338 337 337 336 336 334 327 322 319 316 315 320 327
324 326 329 332 332 330 330 330 330 331 332 333 331 332 335 332 344 351 349 349 349 349 350 357 348 345 344 345 346 347 350 348 345 339 339 340 339 338 337 336 336 332 324 321 317 314 314 315 317
323 327 328 330 331 331 330 329 329 330 331 331 331 331 333 330 331 347 350 350 348 348 349 355 352 349 345 346 347 348 349 349 345 340 342 343 340 338 337 336 335 330 324 320 316 315 315 315 316
321 325 327 329 330 331 330 328 328 328 329 328 328 330 333 329 330 336 349 349 348 347 347 351 350 349 349 351 348 348 348 347 344 343 345 345 341 339 338 336 333 328 324 320 317 317 318 319 319
320 322 324 325 327 328 327 328 325 327 326 326 326 327 328 326 326 332 342 348 347 346 346 349 349 349 347 346 349 347 347 347 346 346 346 345 346 345 344 338 339 327 325 321 317 318 318 319 319
320 320 321 322 322 324 323 324 325 326 326 325 325 325 324 324 326 326 332 341 347 346 346 347 350 350 348 345 347 347 349 350 351 350 351 348 344 344 341 339 335 335 324 323 319 318 318 318 327
319 320 320 320 321 321 322 321 322 322 322 323 324 324 324 324 325 326 326 328 338 346 346 345 350 352 350 346 346 347 345 345 346 346 347 346 343 342 341 340 339 338 330 332 327 327 327 329 330
319 320 320 321 320 320 319 320 320 320 321 322 322 322 322 323 323 325 327 326 327 338 347 346 348 353 353 349 346 348 345 345 344 343 344 345 344 343 341 337 340 336 333 331 332 331 331 332 334
319 320 320 319 320 319 319 319 319 320 320 320 320 321 321 321 322 322 324 326 326 329 343 348 348 353 355 353 348 348 347 346 344 342 343 344 344 344 342 339 338 336 333 335 334 334 334 335 336
320 319 320 319 319 319 319 319 319 319 319 319 320 320 321 322 322 321 321 325 325 327 334 344 348 349 355 354 352 350 350 346 345 342 342 344 346 345 343 340 338 337 336 335 336 335 334 335 339
318 318 318 319 319 319 319 319 319 320 320 320 320 320 321 321 321 322 322 323 326 328 328 333 346 350 355 356 354 352 349 348 347 343 342 346 348 347 343 340 339 338 338 336 336 335 336 336 340
318 318 319 320 319 319 317 318 319 320 319 319 320 320 320 320 321 321 321 322 323 324 328 335 341 348 354 355 355 353 352 350 349 347 343 347 348 347 345 340 340 339 337 337 337 337 334 334 337
318 319 319 319 319 318 317 318 319 319 319 320 320 320 320 320 321 320 321 321 322 324 326 329 343 349 352 356 357 354 353 351 349 348 346 345 347 346 345 342 339 339 338 338 337 335 334 336 340
319 319 317 318 318 318 318 318 319 320 320 320 321 320 320 320 321 320 320 320 321 322 325 328 330 344 354 354 356 355 353 354 351 349 348 347 347 347 344 343 338 339 338 338 337 335 335 336 337
318 318 318 319 319 319 319 319 320 320 320 320 321 321 321 321 321 320 320 320 320 321 325 328 332 326 350 353 354 356 354 353 353 351 349 348 349 348 346 344 341 342 340 338 336 337 338 337 338
318 318 318 318 319 319 320 320 321 321 321 321 321 321 321 321 321 321 320 320 320 321 323 326 330 333 343 353 355 355 355 355 353 352 350 349 350 350 349 348 344 343 343 342 342 340 340 339 337
318 318 318 319 320 320 320 322 323 323 322 321 321 321 321 321 321 321 321 320 320 320 323 323 328 330 334 350 351 354 355 354 352 352 352 351 350 350 350 349 348 346 346 345 347 348 345 342 340
319 319 319 319 320 322 323 324 323 323 323 322 321 321 321 321 321 321 321 321 322 322 322 323 325 327 331 335 348 350 352 353 352 352 351 351 351 350 350 350 351 350 351 348 350 349 349 347 343
320 319 319 321 322 323 323 325 324 323 322 322 320 320 320 320 320 322 322 322 321 322 322 323 324 325 329 334 340 347 350 351 350 351 350 351 351 349 349 349 351 351 350 348 347 349 348 346 343
319 320 320 321 322 324 324 325 324 322 320 320 320 321 320 322 322 322 321 321 321 321 321 322 324 326 328 331 336 345 347 349 349 349 349 350 350 351 349 348 349 349 348 347 346 348 347 345 346
321 323 325 325 325 326 322 320 320 319 319 320 320 320 321 321 321 322 321 321 321 321 321 322 323 326 326 328 335 340 346 349 350 347 347 348 350 350 350 348 348 347 348 348 349 349 347 346 343
321 322 326 328 326 325 323 320 318 318 319 320 319 321 321 321 320 321 321 321 321 321 322 322 323 325 328 326 331 339 343 348 348 349 346 348 347 347 348 348 349 348 348 347 347 346 346 343 342
320 321 321 324 322 321 318 318 318 319 319 319 319 318 318 319 319 320 319 319 320 319 321 321 323 323 327 327 329 338 340 342 344 346 346 348 345 341 347 348 349 348 348 347 346 345 344 342 341
319 317 322 322 324 324 317 316 316 319 319 317 316 317 317 316 318 319 319 318 318 318 318 319 321 323 323 327 328 331 339 342 343 346 345 343 345 339 348 347 348 349 349 347 346 344 342 341 339
320 320 318 318 321 326 323 317 317 317 317 317 317 318 318 318 318 318 318 317 317 317 317 317 319 321 322 324 327 330 334 338 340 341 337 340 343 343 342 345 345 345 345 345 344 344 342 342 343
317 317 318 324 323 320 321 319 318 317 316 317 316 317 317 318 318 318 318 317 317 316 316 316 317 318 320 321 323 327 330 332 334 334 322 332 335 336 334 336 336 336 337 338 340 341 341 342 342

GFSSGP_925_thetae_090.txt.gz
Theta_e
320 324 326 328 331 335 339 339 337 340 337 334 333 334 337 347 354 367 351 351 356 357 354 348 349 347 344 337 334 332 333 336 339 337 338 338 339 341 342 341 341 342 341 339 335 328 317 321 325
319 323 325 328 332 338 339 337 339 338 334 333 332 333 333 345 350 353 350 352 356 357 354 351 349 347 343 337 335 333 335 337 339 337 337 338 338 340 342 344 344 343 340 335 327 319 318 323 328
319 323 326 329 333 336 339 340 340 335 334 334 334 335 341 348 346 354 349 352 356 356 356 352 348 347 344 338 335 335 337 338 339 337 337 339 338 339 340 342 344 343 338 330 322 317 319 326 326
322 325 325 328 332 334 335 337 339 336 334 333 334 338 345 348 350 352 347 350 355 354 354 350 348 347 345 343 339 339 339 340 339 338 338 338 338 338 339 339 339 337 333 326 320 316 319 327 334
322 324 327 328 329 332 333 334 337 334 335 333 332 341 341 349 350 349 348 350 352 352 356 351 347 347 346 346 345 346 344 345 340 338 338 338 338 338 338 339 337 335 330 324 320 317 317 325 329
323 324 327 330 331 330 331 333 332 332 333 334 333 335 335 339 350 349 349 349 349 351 358 354 345 346 346 346 346 347 347 348 345 339 338 339 339 339 337 336 334 333 328 322 319 315 315 317 322
322 325 326 328 331 332 331 330 330 330 331 332 332 332 332 333 336 349 348 348 348 350 359 357 347 346 346 345 345 345 346 347 348 342 338 339 340 340 338 336 335 332 326 322 318 315 314 314 316
322 324 325 328 330 330 332 332 330 329 330 330 329 331 332 329 330 338 348 348 348 348 356 356 353 353 348 347 348 349 350 348 348 344 339 340 341 340 338 337 335 332 326 324 320 316 316 316 316
321 323 325 326 328 329 330 331 330 328 327 328 328 328 327 327 326 329 340 347 347 347 348 353 352 352 352 353 349 348 350 352 349 345 341 343 343 341 340 336 336 330 324 323 320 318 318 318 319
320 322 322 323 325 325 325 325 328 327 327 329 328 327 326 325 325 327 329 340 347 346 347 352 350 351 350 348 351 347 350 350 348 347 345 346 347 347 346 343 339 338 325 323 321 318 318 318 319
319 320 320 321 322 323 322 323 323 324 324 327 327 326 326 326 326 327 327 326 329 346 345 347 350 350 349 347 349 347 351 352 352 352 352 348 348 346 345 343 339 334 331 322 321 318 318 318 324
319 319 320 320 321 321 321 322 321 321 322 322 323 323 323 324 325 325 326 327 328 330 345 346 351 351 350 349 350 349 348 349 351 351 352 351 348 344 345 343 340 337 335 324 331 328 325 326 329
319 320 320 320 320 320 321 320 319 319 321 321 321 321 321 322 323 323 323 324 327 327 327 344 353 352 352 351 350 350 347 347 347 347 348 349 346 347 345 341 342 341 336 332 330 333 331 331 334
320 320 320 320 320 320 320 319 319 319 320 320 321 320 321 322 323 323 322 322 325 328 327 332 350 353 354 352 351 351 350 347 346 346 345 346 348 344 345 342 338 341 334 335 331 334 336 335 336
320 319 320 320 320 320 320 319 319 320 320 320 320 321 321 322 322 324 323 324 321 323 326 328 329 351 354 355 350 352 352 349 348 346 345 345 343 345 347 342 343 339 336 334 336 335 336 336 335
319 319 319 320 319 319 319 319 320 321 321 320 320 320 321 322 321 321 322 322 323 325 324 326 332 336 356 357 356 350 353 350 349 348 345 344 342 347 347 345 341 339 340 338 340 338 337 335 336
319 318 319 319 320 320 319 319 320 321 320 320 321 321 321 322 325 321 321 321 322 324 325 327 327 338 348 356 358 357 352 353 353 351 346 346 345 345 351 345 342 340 339 339 338 338 336 337 337
319 319 319 320 320 320 318 318 319 320 319 320 321 321 322 322 324 323 322 321 321 320 322 323 324 326 331 354 357 358 356 354 354 352 351 345 349 347 348 347 343 342 340 339 338 337 337 335 335
319 319 320 319 319 319 319 320 320 320 321 321 321 322 323 324 324 322 321 320 321 321 324 325 327 328 329 333 353 357 358 356 355 354 350 349 349 350 346 347 344 343 340 341 340 340 337 335 336
318 318 320 319 319 319 319 320 320 321 321 322 324 323 323 323 323 325 323 323 324 323 323 328 329 330 331 335 342 353 357 357 354 355 353 351 349 348 348 345 345 343 343 339 340 339 339 341 338
319 319 318 318 319 320 320 321 322 322 323 324 323 323 322 324 325 326 326 324 326 326 324 325 326 328 331 334 331 346 350 353 353 353 352 351 352 350 349 347 345 343 342 342 339 343 339 340 339
318 318 319 320 320 320 321 323 324 323 324 324 324 324 322 324 324 324 326 326 324 323 323 324 325 327 329 328 332 334 345 352 352 351 353 353 351 352 351 350 348 345 346 343 344 339 343 341 343
319 320 320 320 322 322 322 323 324 324 324 324 323 322 322 322 323 324 324 323 322 322 323 323 323 322 324 328 330 332 336 344 349 352 351 351 351 351 350 352 351 349 350 346 347 345 349 345 343
320 320 321 322 322 324 323 324 324 324 323 322 322 321 321 321 321 321 322 322 323 322 322 323 323 324 324 324 329 332 338 338 347 348 350 350 350 350 351 352 352 352 349 351 348 350 349 350 348
320 322 324 327 326 325 325 326 325 322 321 321 321 320 320 321 321 322 322 322 322 322 322 322 323 325 325 326 327 331 332 338 344 346 348 348 348 350 351 352 352 352 353 350 350 350 351 350 349
322 323 325 330 329 326 324 327 324 320 320 321 320 321 321 320 319 320 321 321 319 320 321 321 322 323 324 324 327 329 331 336 340 346 346 346 347 347 349 349 350 351 352 351 350 349 349 349 346
321 321 322 325 324 325 323 322 320 320 320 321 321 320 319 319 318 319 319 320 319 319 320 320 320 321 322 325 325 328 329 331 338 341 345 344 346 346 343 342 342 341 346 348 349 349 350 349 347
320 320 324 322 327 326 322 321 320 321 320 319 318 317 318 318 319 319 320 320 319 319 319 319 320 320 321 321 324 324 327 331 333 338 343 343 344 342 335 334 330 326 340 343 346 348 347 346 343
319 320 320 320 327 327 323 321 319 319 318 318 317 317 317 317 318 318 319 318 318 318 318 318 318 318 318 319 321 323 324 326 330 333 338 341 336 326 323 328 330 327 335 340 342 344 348 345 345
319 319 323 327 323 322 324 322 321 319 317 317 317 317 317 318 318 318 318 318 318 317 317 317 317 317 316 317 317 321 321 323 326 328 330 332 326 323 324 324 326 326 329 328 331 337 346 346 345

GFSSGP_925_thetae_093.txt.gz
Theta_e
319 320 322 323 328 327 331 334 334 335 336 329 330 330 349 354 359 364 355 354 348 348 349 349 347 346 343 336 332 331 333 336 336 337 336 336 336 337 339 338 339 338 339 338 333 320 319 324 328
319 319 323 322 325 328 331 333 335 334 334 331 330 336 344 357 351 351 356 354 343 346 348 349 347 346 341 334 333 332 334 337 337 337 337 336 337 337 338 339 341 339 337 331 324 318 321 327 330
318 319 319 322 323 327 330 332 337 335 334 332 332 341 347 350 353 350 356 354 343 347 349 350 347 345 339 334 333 333 335 337 337 337 338 337 338 339 342 342 340 339 335 326 319 317 322 325 329
318 320 319 321 323 325 329 331 332 337 334 331 333 349 349 350 351 353 356 354 347 351 351 350 347 344 339 334 334 334 336 337 338 337 338 337 337 338 340 342 341 339 332 324 318 316 321 329 330
318 318 320 322 322 325 327 330 333 336 335 331 339 346 353 349 347 352 356 355 351 355 352 349 347 345 341 336 336 335 339 338 337 337 337 337 336 337 337 335 335 333 329 323 319 316 321 326 332
316 318 321 322 324 325 327 328 332 334 330 332 335 337 341 348 348 348 353 354 352 351 353 347 347 346 344 341 338 340 340 342 339 337 337 338 337 337 337 337 335 332 328 322 319 317 317 323 327
316 317 320 322 324 327 328 328 329 329 328 328 331 332 330 330 348 349 349 353 352 352 353 344 346 347 347 346 345 345 344 345 343 339 337 338 338 338 337 336 334 332 328 323 320 316 315 316 317
315 316 320 322 324 325 326 330 330 328 329 327 329 329 328 326 328 347 348 350 353 355 354 347 344 346 346 347 347 347 347 347 346 343 339 338 339 338 337 335 333 331 327 323 320 316 315 315 315
315 316 319 320 323 325 326 329 330 328 326 326 326 326 326 326 326 327 342 347 357 358 356 349 342 345 346 346 346 345 346 347 348 347 341 339 340 340 338 336 333 330 326 322 320 317 317 317 318
314 316 318 320 322 323 323 322 326 325 326 325 327 327 326 325 325 325 325 329 334 358 356 351 342 341 345 347 346 348 350 353 349 349 344 340 341 342 339 336 334 330 326 322 320 318 317 318 318
314 315 317 319 320 321 320 321 320 320 323 323 323 323 322 322 321 324 325 325 327 345 354 351 346 342 343 350 348 345 347 349 350 349 345 341 343 345 344 340 336 333 330 322 320 318 317 317 317
313 315 316 316 318 319 319 320 323 320 318 319 319 320 321 320 320 321 322 324 325 328 345 351 351 349 347 349 349 347 344 345 347 348 346 344 345 347 347 345 343 336 330 326 320 319 318 317 317
314 315 316 316 316 315 319 319 319 318 318 319 319 319 319 318 318 320 321 321 322 324 350 351 350 349 345 345 348 348 346 343 344 348 349 348 347 346 348 346 344 340 336 329 323 320 323 321 325
314 315 316 316 316 315 317 318 318 318 318 318 318 319 318 319 318 320 321 321 321 321 343 351 348 341 338 339 349 350 347 346 346 345 347 351 349 346 344 346 343 341 339 336 326 321 328 331 331
316 316 316 316 317 317 319 317 317 317 317 317 317 318 319 319 320 320 322 323 324 323 333 346 347 341 345 351 351 351 348 348 347 346 346 345 349 347 347 345 343 341 340 339 331 326 329 333 333
317 317 315 315 317 317 316 316 318 317 317 318 318 318 319 318 318 320 320 320 325 328 327 328 334 346 350 353 351 352 354 350 347 347 346 346 345 346 345 347 345 341 342 339 334 333 331 335 336
317 314 316 316 315 317 315 316 317 318 317 318 318 318 319 318 319 320 320 320 322 322 323 324 324 327 341 354 353 352 352 353 351 350 347 346 345 344 345 345 345 342 340 338 335 336 333 337 337
317 315 315 316 317 317 315 316 316 317 317 317 316 317 318 318 318 321 320 320 320 322 320 321 321 320 322 323 346 354 354 352 353 351 351 348 347 345 343 347 346 344 342 340 340 341 337 337 336
317 317 317 318 317 317 316 316 316 318 318 318 316 316 317 318 318 320 323 322 320 321 322 321 321 323 324 324 325 350 351 352 354 352 352 353 347 347 344 347 348 346 342 341 340 340 338 337 337
317 318 317 318 319 317 318 318 319 319 318 318 318 319 320 321 320 320 323 323 323 323 323 326 326 328 332 333 331 334 338 348 352 353 352 350 350 348 348 346 349 348 344 341 340 340 338 338 336
318 319 318 317 317 318 319 318 319 319 319 319 319 318 318 318 319 321 322 323 323 322 322 323 325 324 325 324 326 329 330 333 346 347 349 350 350 351 349 348 346 347 345 343 341 341 339 338 337
317 317 318 317 319 318 319 318 319 319 320 319 319 318 318 319 319 319 319 321 322 323 322 324 323 322 323 323 323 326 330 333 333 335 344 347 347 347 350 349 348 345 345 344 342 340 340 338 338
317 320 320 320 318 318 319 319 318 319 320 321 319 319 317 317 317 318 318 321 321 321 321 323 322 322 324 323 323 323 326 328 330 333 335 343 344 346 346 348 348 346 344 343 342 340 341 339 337
320 319 320 320 318 319 319 320 320 320 321 320 318 318 318 318 318 317 319 320 321 321 322 320 321 321 323 325 323 323 325 327 329 329 334 338 343 345 346 346 347 348 346 344 343 342 340 341 339
319 318 320 321 322 323 322 325 321 323 320 319 318 318 318 317 316 318 318 316 319 320 320 321 320 319 319 323 321 323 323 323 329 329 331 337 341 345 344 346 345 347 349 347 345 344 343 341 342
321 320 326 331 326 324 323 327 327 320 319 318 319 318 318 319 314 316 318 316 318 319 319 320 319 319 319 321 320 322 321 324 326 330 332 332 337 343 345 345 345 344 346 348 346 347 346 343 345
320 320 320 321 323 323 322 321 321 321 320 319 319 318 317 316 315 315 313 314 318 318 319 318 318 318 318 319 320 319 319 323 323 322 324 329 333 336 341 343 342 343 344 343 344 334 331 338 345
320 319 324 322 327 326 322 321 324 321 319 317 316 316 316 316 314 313 315 317 319 318 317 317 318 318 320 319 318 317 318 320 320 322 321 324 329 333 337 338 339 337 336 337 337 335 333 328 330
323 319 319 321 327 322 323 321 320 318 315 316 315 314 313 312 313 314 314 316 317 317 317 317 317 318 318 316 316 316 317 317 318 320 319 320 327 329 331 334 334 336 333 329 328 327 324 320 326
321 319 320 324 324 323 322 321 320 320 315 315 312 312 313 314 314 312 312 314 314 315 314 314 313 313 312 312 312 315 315 315 318 319 317 318 322 326 328 330 331 331 330 327 327 322 323 321 321

GFSSGP_925_thetae_096.txt.gz
Theta_e
318 318 319 321 324 323 328 331 332 332 333 330 339 352 355 352 354 353 353 352 347 348 348 347 346 344 337 331 330 332 336 336 335 334 333 334 336 338 338 339 338 336 335 335 323 319 323 328 329
318 318 320 319 323 325 326 328 330 330 332 330 340 349 353 355 355 357 357 356 346 348 348 346 346 343 336 331 331 333 336 336 336 335 334 334 336 338 338 337 336 337 335 329 318 320 324 328 330
318 318 317 319 319 324 327 329 329 329 331 333 339 347 348 357 355 354 356 355 351 350 348 346 346 343 335 332 332 334 336 336 336 335 334 334 335 336 335 337 337 335 330 322 317 321 326 329 331
317 316 315 320 321 323 326 328 326 329 332 333 347 352 349 349 350 355 353 351 350 351 347 346 346 341 334 332 333 334 336 336 336 336 335 334 336 336 338 338 337 335 327 320 317 320 325 327 330
317 312 318 319 320 322 324 325 325 328 332 337 344 353 352 350 354 355 352 348 347 350 347 346 346 340 335 333 333 335 336 337 336 336 336 335 335 338 341 341 340 335 327 321 317 319 326 331 331
314 313 318 321 321 323 323 324 324 331 329 341 350 346 347 355 356 355 350 345 346 347 347 346 345 340 335 334 333 336 337 338 337 336 336 336 335 336 337 337 336 333 327 322 318 317 322 326 329
313 313 317 319 321 323 325 328 327 330 327 331 331 333 332 343 355 354 353 348 342 339 343 346 346 344 339 336 336 336 339 339 338 337 337 336 335 335 334 334 333 331 327 322 319 317 316 320 323
311 312 317 317 321 322 322 327 328 327 328 330 328 328 327 325 349 354 353 351 346 346 340 343 345 345 343 340 338 340 339 342 341 338 337 338 337 335 334 333 333 331 328 322 320 316 315 315 316
312 312 316 316 318 320 323 327 329 329 326 325 327 325 325 325 335 346 353 355 355 353 344 344 345 345 345 345 345 346 345 345 344 342 339 337 338 338 336 333 332 331 328 323 320 317 316 316 316
309 312 314 315 317 320 321 323 325 324 323 324 325 324 324 323 325 341 351 356 357 356 351 346 346 345 345 345 345 346 347 347 347 346 342 340 338 339 338 336 333 330 328 324 321 319 317 317 318
310 312 314 316 315 318 320 321 324 321 320 321 319 320 321 320 320 321 330 353 357 357 354 349 346 345 344 344 344 342 343 345 347 348 347 342 339 340 340 339 336 333 329 325 322 320 317 317 318
310 311 312 314 315 319 320 318 322 324 321 318 318 318 318 317 319 320 319 324 338 357 356 352 347 344 344 343 341 340 342 344 344 346 348 346 341 340 342 341 338 335 331 326 322 320 318 317 317
309 311 312 313 314 313 316 320 322 322 325 319 318 318 317 317 317 319 320 319 325 340 355 353 348 343 341 340 343 344 344 344 343 344 346 347 344 341 343 344 343 339 334 329 325 321 319 318 317
310 311 313 312 313 312 314 315 316 318 318 318 318 317 317 318 318 318 318 321 320 339 344 352 348 344 345 347 348 347 345 343 343 341 343 346 345 343 344 346 346 343 340 333 328 324 320 319 318
311 311 312 313 312 313 313 315 316 317 317 317 317 315 316 317 319 319 321 321 325 330 347 350 349 348 348 347 347 349 348 347 345 343 342 343 346 346 345 345 346 347 344 341 337 332 326 321 323
312 312 312 313 314 315 314 315 316 316 316 316 316 315 316 317 317 318 319 323 326 336 349 350 350 349 348 343 349 349 349 349 347 346 346 346 343 343 344 347 346 346 345 343 340 337 334 325 324
313 312 313 314 313 315 315 315 316 316 316 315 315 315 316 316 316 318 319 319 323 326 331 339 343 344 344 341 342 351 353 350 347 347 347 347 345 346 345 344 345 345 344 343 341 339 336 330 330
315 315 314 315 315 314 314 314 314 317 315 315 315 315 316 316 316 318 319 318 321 321 322 325 332 339 342 348 351 353 352 351 351 350 348 346 346 346 347 347 346 345 345 344 341 341 339 334 331
315 316 315 315 315 314 315 315 314 314 316 316 315 315 315 315 316 318 321 320 323 324 325 327 330 331 331 330 330 329 338 348 349 348 348 349 348 346 346 346 346 344 344 343 342 340 338 337 335
317 316 315 315 316 315 313 313 315 315 315 314 315 314 314 316 319 321 322 321 322 322 323 322 322 323 324 326 328 329 327 327 328 336 344 343 344 345 347 347 345 346 346 343 342 341 339 339 338
316 315 316 316 316 316 316 316 317 317 318 317 315 316 315 319 319 319 319 320 322 323 322 322 322 322 322 322 322 322 321 321 322 323 326 328 332 342 342 345 347 345 346 345 343 342 341 338 338
315 316 318 319 316 316 317 318 317 318 317 318 317 317 317 317 317 317 316 319 323 323 324 323 321 322 323 323 322 323 324 325 323 323 323 323 323 324 330 340 343 346 346 346 345 342 340 340 338
315 319 319 319 316 316 317 316 316 317 319 318 316 316 315 315 315 315 316 319 320 320 323 321 321 321 322 324 323 323 323 323 322 322 325 325 326 326 328 331 341 342 343 345 345 344 342 340 340
318 317 315 316 315 317 317 317 317 317 318 318 317 316 316 315 315 315 317 318 319 321 320 320 320 319 320 320 323 322 321 322 323 323 324 326 327 327 331 336 340 341 341 343 344 344 343 340 340
315 314 316 318 320 320 322 321 318 319 318 317 316 317 316 315 315 315 316 315 317 319 319 319 319 319 318 318 318 318 319 321 320 320 323 325 322 323 329 332 337 340 342 341 342 343 342 341 340
319 316 318 324 325 323 319 325 324 318 317 317 318 317 315 314 312 313 314 314 316 318 318 318 319 318 318 318 318 320 319 319 319 322 322 321 321 320 322 327 332 338 339 341 340 339 341 340 340
319 318 318 320 321 321 320 321 320 319 319 318 317 316 315 314 311 310 312 313 312 316 317 317 318 318 317 317 317 319 320 318 318 320 320 320 320 319 318 321 327 331 335 338 338 339 339 339 339
319 319 321 319 325 324 322 322 323 319 319 317 316 315 313 313 312 310 310 312 313 313 313 314 313 312 312 313 313 313 313 314 316 320 320 319 319 317 317 319 321 326 330 333 336 337 337 337 336
321 321 318 320 324 322 321 321 318 317 314 313 312 312 310 308 308 309 308 310 312 312 312 312 311 311 310 310 309 309 309 309 310 312 315 318 320 318 316 318 321 325 327 331 334 334 332 332 329
320 319 317 322 321 320 318 318 319 317 316 312 310 311 310 310 308 307 307 310 311 311 310 310 309 309 308 308 307 307 307 307 307 308 309 310 311 314 320 320 320 323 324 326 329 331 328 325 323

GFSSGP_925_thetae_102.txt.gz
Theta_e
314 317 318 319 321 322 327 329 328 331 332 330 337 348 347 349 349 347 353 353 348 347 347 343 337 334 336 337 337 339 341 342 343 344 345 345 340 337 337 338 338 337 335 329 322 322 325 327 331
316 318 318 315 322 325 326 324 327 327 328 324 327 342 352 355 357 354 354 352 349 347 347 342 336 333 334 334 336 338 337 337 338 341 342 340 338 336 337 337 337 335 331 322 321 325 329 329 330
317 318 315 317 318 323 326 325 326 325 323 325 328 346 348 354 356 353 354 353 351 350 347 343 336 332 332 333 336 336 335 333 333 333 334 335 336 337 337 336 335 335 331 320 323 328 329 330 333
315 314 312 318 321 319 324 325 322 321 322 323 329 347 348 351 354 354 353 353 350 350 348 344 336 332 331 333 335 335 334 333 332 332 332 335 337 338 338 336 335 335 329 320 323 328 329 329 330
313 310 316 318 319 319 321 322 320 321 322 321 337 351 351 357 354 356 353 353 348 349 348 343 337 332 331 333 335 334 334 333 332 331 331 333 336 337 337 336 335 332 326 319 321 325 328 330 330
310 309 315 318 318 319 320 320 321 322 322 342 349 347 347 357 357 356 353 351 347 346 346 344 338 332 331 332 335 335 334 334 333 332 330 332 334 333 335 336 335 333 325 319 319 323 326 328 329
310 311 314 315 318 319 320 320 322 323 328 331 334 344 341 355 355 356 354 351 349 348 347 345 341 333 331 332 334 335 335 335 334 333 330 330 332 332 335 335 335 334 328 321 318 319 325 327 328
308 311 314 314 318 319 320 321 321 323 329 326 329 341 347 350 354 354 353 351 350 349 347 346 343 335 332 332 334 335 335 335 335 335 333 330 331 334 337 336 335 333 329 324 320 318 318 324 326
307 311 311 314 317 318 317 317 319 324 327 327 325 323 330 353 353 353 353 353 351 350 348 347 345 339 333 333 334 335 336 336 335 336 335 334 332 331 332 332 332 331 330 328 324 320 318 317 318
310 309 311 311 315 317 316 316 318 324 324 327 327 320 340 353 351 351 353 353 352 351 349 347 346 342 336 334 334 336 337 338 337 336 336 336 336 334 333 333 333 333 331 329 327 323 321 318 316
306 309 310 312 314 314 313 314 319 325 326 325 326 316 321 344 350 349 351 351 350 349 349 347 347 343 338 336 336 336 338 340 340 339 338 338 337 337 337 336 334 333 333 331 330 328 325 322 320
308 307 310 311 312 312 314 314 316 324 325 324 321 320 316 323 342 348 350 351 350 349 349 349 348 345 344 340 338 338 339 340 341 342 341 340 339 338 338 338 338 337 336 335 334 332 329 327 325
307 307 308 309 310 309 311 313 315 320 321 323 321 323 321 314 321 340 350 351 352 351 348 346 347 346 345 344 343 342 341 343 345 345 345 344 342 341 340 338 338 339 339 338 336 333 331 328 327
306 306 308 307 307 308 310 310 314 318 319 322 323 322 321 315 313 316 326 346 350 352 351 348 344 346 346 346 346 347 346 347 347 347 346 347 347 345 343 342 340 340 340 341 341 340 338 336 333
309 308 308 307 309 307 308 310 312 313 315 323 324 325 324 323 317 315 317 318 325 340 352 352 351 347 345 347 348 348 348 347 346 346 346 344 347 348 346 345 344 342 341 341 342 342 342 341 340
310 308 308 308 307 308 310 311 312 311 314 320 321 322 323 324 316 316 317 319 320 320 332 350 351 351 348 347 348 348 347 347 345 345 344 344 344 345 346 347 346 345 344 343 342 343 344 344 343
308 310 308 309 307 309 310 312 313 313 314 318 321 323 324 322 323 324 317 322 324 322 334 342 351 351 350 348 346 346 346 346 348 349 348 348 348 348 347 347 347 346 345 345 345 344 344 343 342
312 311 311 311 311 309 309 312 316 316 313 317 320 321 324 320 321 320 315 321 328 330 340 345 348 349 349 347 345 345 346 349 348 348 347 347 347 346 346 346 346 346 347 347 346 345 345 343 342
314 314 314 313 312 310 309 311 312 311 311 311 313 314 316 314 317 316 316 323 331 339 341 345 346 345 345 345 344 345 343 343 341 340 342 346 346 346 345 345 344 345 345 345 345 344 343 343 343
313 314 313 313 313 312 310 311 310 310 311 310 312 312 312 318 319 318 318 323 329 331 337 334 332 330 330 330 327 324 324 322 323 322 321 321 321 321 322 322 322 323 329 335 340 344 342 340 340
313 313 313 314 314 314 314 313 313 311 314 313 313 312 315 318 319 319 320 322 323 324 327 329 328 325 323 322 321 321 321 321 321 320 320 320 320 320 319 319 319 319 324 329 332 339 342 342 342
315 313 314 314 313 312 313 313 314 314 316 317 316 313 316 318 318 317 318 321 324 325 324 322 321 321 321 320 319 320 320 319 318 319 319 319 319 319 319 319 319 320 320 326 329 332 337 340 338
315 314 316 315 314 314 314 313 312 313 317 318 316 316 315 315 315 317 318 321 321 321 321 321 321 320 320 319 319 318 318 317 317 317 317 316 316 316 316 316 318 317 316 318 325 330 335 337 338
315 313 311 312 311 315 315 313 313 314 316 317 316 315 314 315 316 316 317 321 321 320 320 320 322 320 321 321 321 320 320 319 320 320 320 320 319 319 318 317 317 316 315 315 316 321 329 334 335
312 312 313 315 315 315 315 315 313 315 316 316 315 314 314 315 314 314 314 314 316 318 316 315 315 315 315 316 316 316 316 316 317 317 317 317 318 318 319 322 322 320 318 317 316 316 320 325 331
314 313 314 318 318 315 317 321 319 316 314 314 314 313 313 313 310 309 309 309 310 311 313 314 313 312 311 310 309 309 309 309 309 309 309 310 310 312 315 319 322 322 322 320 318 317 317 321 326
317 318 314 317 317 317 317 317 316 316 315 315 314 314 312 308 308 308 306 308 310 311 310 310 309 308 308 308 307 307 307 307 307 307 307 308 308 308 309 309 311 314 318 321 321 321 320 320 324
317 315 319 315 322 323 319 320 319 318 317 316 314 311 310 309 307 308 308 308 309 309 308 308 308 307 307 307 306 307 307 307 306 306 306 306 306 306 306 307 307 308 309 311 315 320 321 322 323
320 318 316 316 317 319 320 319 315 316 315 313 310 308 306 306 306 306 307 308 308 308 308 308 307 306 306 305 305 305 305 305 304 304 304 304 304 305 305 304 306 307 309 309 310 313 321 322 322
318 319 316 320 322 318 317 318 314 314 312 309 309 307 306 306 305 305 305 306 307 307 307 307 306 305 304 305 304 304 303 303 302 302 303 303 303 303 303 304 305 306 307 309 311 314 312 321 322

GFSSGP_925_thetae_105.txt.gz
Theta_e
313 316 318 322 327 329 335 335 332 336 336 332 330 336 347 351 351 353 355 354 353 354 355 348 341 342 345 346 346 346 346 345 344 341 343 340 336 334 336 336 337 343 345 339 331 325 326 326 326
315 317 319 323 328 332 335 331 334 333 331 327 329 341 350 355 357 358 355 355 353 355 355 353 339 340 343 344 345 345 345 345 345 345 344 341 337 335 336 337 338 341 337 329 324 324 327 329 335
317 317 322 324 326 328 332 330 331 326 325 326 329 336 349 356 357 356 355 355 354 354 354 352 338 338 340 341 342 343 343 344 344 344 342 340 337 335 337 337 335 333 330 322 323 327 329 329 334
316 319 320 324 325 324 327 329 325 326 327 326 328 336 350 355 355 355 355 354 353 353 352 346 336 335 336 337 339 340 340 340 341 340 338 337 336 336 337 336 333 333 329 323 325 328 330 330 335
314 319 323 324 324 323 324 324 324 325 326 327 338 343 353 358 358 357 355 354 352 353 352 346 334 333 333 335 337 336 334 333 333 333 333 334 335 336 336 334 333 334 329 321 324 329 330 330 330
318 318 321 321 323 321 322 323 323 323 324 331 346 349 352 358 359 357 355 354 352 352 353 351 334 332 332 334 336 334 333 332 332 331 331 333 335 336 336 334 333 333 327 321 322 325 328 330 331
316 318 316 318 320 322 322 322 323 323 324 335 337 349 346 358 357 357 355 353 352 352 353 351 346 333 331 334 335 334 334 333 332 330 330 332 334 335 335 333 333 331 327 321 318 322 325 328 329
315 317 315 317 318 319 321 322 323 324 324 328 328 335 339 355 357 356 355 353 353 352 352 351 349 345 343 342 335 335 334 334 333 332 330 331 334 334 333 333 334 334 331 325 320 318 320 325 328
312 314 314 315 317 318 320 320 321 322 328 329 328 323 327 352 355 355 354 353 353 352 352 352 351 348 346 345 343 336 336 335 335 334 332 332 341 340 340 340 337 336 334 331 326 322 319 318 320
316 314 314 315 316 317 318 319 321 322 324 327 327 325 350 354 354 353 353 353 352 352 352 352 352 349 347 346 347 347 346 346 345 345 344 344 345 345 344 342 336 334 332 331 330 328 325 323 329
311 314 314 315 316 317 316 318 318 321 323 324 328 323 329 351 354 352 351 350 351 351 351 351 351 351 347 344 346 347 348 348 347 346 344 345 344 342 341 343 341 341 338 341 339 340 337 337 335
312 312 313 314 315 317 317 317 317 319 321 323 324 323 324 328 347 354 352 351 351 351 351 352 352 351 350 346 346 346 346 347 347 347 346 346 345 345 345 345 344 343 343 342 341 339 335 327 326
311 311 311 313 314 314 314 315 315 316 318 321 322 326 325 324 323 332 350 353 352 351 351 351 352 352 351 348 347 347 346 347 347 348 347 347 347 346 346 346 345 345 344 344 344 343 341 340 339
311 311 311 311 312 313 314 314 314 314 315 316 320 322 325 326 326 324 325 349 353 353 351 350 351 352 351 350 349 348 347 347 348 347 348 348 347 345 347 347 346 345 344 344 343 344 344 343 342
313 313 315 312 311 311 312 313 313 314 315 317 323 325 327 328 327 327 326 320 340 350 353 353 351 352 352 351 351 350 350 349 349 349 349 350 348 347 348 348 347 347 346 344 345 345 344 344 344
315 312 317 317 313 311 312 311 313 315 316 316 318 320 325 328 327 327 324 320 319 318 339 353 352 351 351 351 350 351 351 351 351 351 350 349 348 345 344 346 347 348 348 347 346 346 346 345 344
314 318 316 316 313 313 312 313 315 316 316 317 320 322 324 327 329 329 327 321 319 322 320 339 348 351 350 348 347 348 347 347 347 348 349 350 350 349 348 349 350 348 348 348 347 348 346 346 347
318 315 315 316 315 313 313 315 316 316 316 318 321 320 322 325 328 328 327 319 319 324 326 337 344 350 350 350 347 347 347 347 347 349 349 349 349 349 349 349 349 347 349 349 348 347 348 347 346
316 317 318 318 317 314 315 315 316 316 319 319 321 320 324 327 329 327 321 318 321 328 335 344 346 348 348 347 346 348 349 346 349 350 349 347 347 347 347 348 347 346 344 344 345 346 346 344 344
316 317 318 318 316 315 316 316 317 316 317 321 319 322 324 326 326 322 320 319 322 332 339 343 345 345 345 345 344 343 340 335 328 324 324 323 322 323 322 325 332 332 331 335 335 336 336 336 338
317 317 318 317 317 317 316 318 317 317 316 316 317 320 321 324 323 322 321 324 325 331 333 333 332 336 338 336 329 325 321 324 323 321 321 321 321 321 320 321 322 327 330 327 332 332 334 333 333
318 317 317 318 318 319 318 318 320 319 317 317 318 319 319 320 322 323 324 325 326 329 329 327 324 322 321 321 320 320 322 322 318 316 316 317 317 316 316 316 317 317 323 324 326 328 331 333 332
318 317 318 319 319 319 320 319 320 319 319 320 321 320 321 323 323 323 325 325 325 324 322 321 321 320 320 319 318 320 321 320 318 319 319 318 318 317 318 319 323 321 324 323 326 329 330 327 329
317 318 318 318 319 320 319 319 319 320 320 322 321 321 321 322 325 326 325 324 322 321 321 320 320 320 320 320 320 320 320 320 322 322 321 321 320 320 319 320 321 323 325 328 327 328 329 328 327
317 320 321 321 321 320 319 320 320 320 321 320 322 322 322 324 325 324 324 323 322 319 318 317 317 316 316 316 315 314 313 313 314 315 316 315 316 317 319 318 319 323 325 326 326 327 328 327 326
318 320 320 321 320 320 321 322 321 321 320 319 321 322 323 323 321 321 320 319 318 316 316 316 315 313 312 311 310 309 308 311 311 311 311 311 312 312 314 314 316 318 319 323 326 326 325 325 326
319 319 318 322 321 321 321 322 322 320 320 321 321 322 322 319 318 316 315 315 315 314 313 312 311 311 311 310 310 310 310 310 310 310 310 310 311 311 311 311 312 313 313 315 317 320 323 324 325
320 319 324 322 325 323 322 323 320 323 322 322 321 321 319 316 316 316 315 314 312 311 311 311 310 310 309 309 308 308 309 309 308 308 309 309 309 309 309 309 310 310 310 311 313 314 317 319 322
320 322 322 324 325 326 323 322 322 323 323 322 320 318 317 317 316 315 314 312 310 310 310 310 309 308 307 307 307 308 308 307 307 307 307 307 307 307 307 307 307 307 308 309 311 312 313 315 318
321 322 323 326 326 324 324 323 319 320 321 320 317 315 315 315 314 313 312 311 310 310 309 309 308 307 306 306 306 306 306 306 306 306 306 306 306 306 306 306 306 307 307 307 307 308 309 311 315

GFSSGP_925_thetae_111.txt.gz
Theta_e
310 318 324 326 330 335 337 337 339 341 340 340 338 338 338 340 348 372 357 355 352 356 356 353 350 348 345 345 348 346 338 338 337 331 333 337 336 339 342 344 342 342 341 339 335 325 325 327 328
317 319 325 328 332 337 338 336 339 340 340 337 337 338 338 345 355 359 359 353 353 358 357 357 349 347 345 344 348 347 343 342 338 332 335 337 337 340 341 344 346 344 341 337 330 327 329 327 331
321 322 325 330 333 336 337 337 338 338 336 336 336 336 337 346 357 357 360 353 354 356 356 357 347 345 344 344 346 347 345 344 338 333 336 337 338 338 338 340 345 345 342 333 326 329 330 330 333
319 320 323 328 334 334 334 335 337 336 335 335 336 337 338 352 351 356 357 352 355 355 354 356 345 343 343 345 347 347 345 343 338 336 338 337 337 339 338 339 342 343 333 324 324 330 331 336 338
319 321 321 323 328 332 334 334 334 335 334 334 335 338 342 358 358 356 354 354 353 352 354 354 344 343 344 346 347 346 346 344 341 339 341 338 337 338 338 337 335 331 327 321 325 331 332 332 334
319 320 320 321 323 325 328 331 331 331 332 333 333 337 345 358 358 354 354 354 351 350 354 352 345 343 345 346 346 346 346 345 343 344 343 340 338 338 338 336 333 331 328 321 324 329 331 332 331
319 320 319 321 322 323 325 328 329 330 331 332 332 341 350 355 357 354 355 354 352 350 351 351 348 347 344 345 346 346 346 345 345 345 344 340 338 337 337 335 332 333 332 326 323 326 329 330 331
319 320 320 320 320 322 324 325 326 327 329 330 330 337 341 359 357 355 357 355 352 350 350 349 347 346 346 347 343 344 344 344 344 344 339 337 337 338 338 336 334 334 332 327 323 322 324 326 328
318 319 319 320 320 321 323 322 324 325 324 327 330 333 334 344 356 355 355 354 352 350 350 349 348 346 344 344 346 341 340 339 337 337 335 337 342 343 344 340 343 334 333 332 328 324 321 320 320
319 319 319 321 321 321 321 321 322 323 323 325 328 332 332 338 354 355 355 355 352 350 350 348 348 347 344 344 348 344 343 342 342 343 345 343 341 343 341 341 337 341 335 335 333 330 328 325 330
318 318 319 319 319 320 320 320 321 321 322 324 325 329 332 342 349 352 353 352 352 350 349 348 349 347 345 343 350 344 344 344 345 346 348 343 341 342 341 343 345 345 341 341 339 342 338 336 334
318 319 318 319 319 319 318 318 318 319 320 322 323 327 331 331 346 350 350 350 350 351 350 349 352 351 348 344 348 345 345 346 347 348 350 347 347 347 343 339 339 342 340 342 339 338 339 339 339
317 318 318 318 318 318 317 317 318 319 320 321 321 325 330 330 332 345 353 353 352 350 349 349 352 353 352 349 347 347 346 347 347 348 350 350 349 349 349 347 346 344 343 342 344 343 342 342 344
317 317 317 317 317 317 316 317 317 318 318 319 320 321 324 328 331 333 341 349 356 353 350 350 351 354 354 352 348 348 348 348 349 347 349 350 350 349 348 349 348 347 346 345 345 345 346 346 346
316 315 316 316 317 317 317 316 316 317 318 318 318 319 321 323 327 330 331 336 342 353 349 354 353 355 356 355 352 351 349 349 349 348 350 351 352 352 351 349 348 347 347 348 350 351 350 350 349
316 316 317 318 318 318 317 317 318 319 318 317 318 319 319 322 326 330 330 329 329 329 345 357 355 356 356 356 355 353 351 350 349 348 350 351 351 352 353 350 349 349 351 350 351 351 351 350 348
319 318 319 319 320 320 319 319 319 320 319 318 318 318 319 320 329 328 329 329 332 333 332 345 355 355 357 354 354 351 347 341 350 350 351 352 352 352 352 351 351 354 349 352 349 352 350 351 350
319 319 318 319 321 321 321 320 320 321 321 319 318 318 319 320 326 327 330 331 332 336 339 339 347 351 356 354 356 354 353 353 354 352 351 354 354 352 354 352 352 355 351 351 348 348 347 346 344
320 320 319 320 320 322 322 322 322 322 322 321 320 319 319 320 323 327 330 332 332 329 339 339 348 354 354 354 352 354 354 355 353 353 353 352 348 349 351 354 351 353 348 343 344 343 339 337 335
319 321 321 321 321 322 322 323 323 323 322 321 320 320 320 320 324 330 331 331 331 337 336 335 347 353 354 346 348 349 351 349 351 353 353 351 349 349 351 349 341 336 336 332 334 336 334 330 328
320 320 321 321 322 322 322 323 323 322 322 321 321 321 321 321 325 328 332 332 332 336 338 336 339 347 350 350 352 353 353 351 349 347 344 343 340 338 337 335 333 330 330 326 326 330 331 329 326
321 320 319 320 322 323 324 324 325 324 322 321 323 323 324 324 325 326 328 332 330 331 330 328 327 346 352 352 348 348 345 342 336 331 329 331 331 328 328 330 329 330 329 328 325 325 325 326 327
320 319 319 320 321 322 323 324 323 324 323 323 323 324 324 324 324 326 328 330 331 333 333 333 337 349 349 349 348 344 337 333 329 326 333 330 333 332 330 329 330 331 331 330 332 331 331 329 327
319 320 320 321 321 323 323 324 323 325 324 323 323 323 323 324 324 325 327 329 331 336 339 343 342 337 336 335 336 336 335 333 329 330 330 328 327 328 327 328 328 330 331 331 330 331 332 333 331
320 321 323 322 322 322 322 323 324 326 323 324 324 323 324 326 328 330 331 331 333 337 336 334 332 331 330 329 329 330 330 330 329 328 325 327 325 323 323 325 327 326 326 326 327 328 330 332 332
319 321 323 322 322 321 321 325 324 325 325 325 326 326 326 328 330 331 332 332 333 333 332 329 328 326 326 325 324 325 324 322 322 322 323 323 322 321 322 322 322 322 322 322 322 323 323 324 326
320 322 321 323 323 325 326 324 327 326 325 324 326 328 329 330 331 331 331 329 329 328 327 327 325 324 324 323 323 322 322 322 322 321 321 320 320 319 319 320 320 320 320 320 320 320 321 321 322
320 321 324 322 326 330 328 328 326 326 325 324 325 328 330 331 331 331 330 328 327 325 324 324 323 322 321 320 319 319 319 319 319 319 319 319 319 319 318 318 318 318 318 319 319 319 319 319 319
320 322 323 323 323 327 330 327 327 329 325 325 325 328 329 330 329 328 328 326 324 323 322 321 320 320 319 318 318 318 318 317 317 317 317 317 318 318 317 317 317 318 317 317 317 317 317 317 317
321 321 324 327 329 328 326 327 326 325 326 326 326 329 328 327 327 326 325 322 321 321 320 320 319 318 317 316 316 316 316 316 316 317 317 317 317 317 317 317 317 316 316 315 315 315 315 314 315

GFSSGP_925_thetae_114.txt.gz
Theta_e
309 312 317 324 330 331 336 336 335 337 342 340 339 339 338 338 361 371 356 355 357 359 353 346 345 346 347 346 345 339 333 334 334 330 334 335 337 339 338 339 340 340 342 341 334 325 326 327 332
315 316 319 326 331 334 336 335 335 336 340 339 338 337 337 355 360 357 354 355 358 359 353 349 346 345 345 345 346 343 336 336 335 331 335 335 337 339 342 342 344 342 340 336 325 326 327 329 332
311 320 322 326 331 334 335 336 336 337 338 338 337 336 337 357 355 361 353 358 357 358 356 352 349 347 346 345 346 346 340 340 336 331 335 335 337 338 343 346 346 343 339 334 324 329 329 332 336
315 320 323 324 330 333 334 334 335 338 338 336 336 337 337 347 353 360 355 358 358 357 358 351 348 346 345 344 345 346 343 343 337 333 336 335 336 337 339 342 346 344 339 327 324 329 331 332 334
317 320 320 322 326 329 333 334 334 336 337 335 335 336 340 354 354 358 353 356 357 354 359 349 346 344 343 343 346 347 344 344 337 335 337 336 337 337 338 339 342 340 328 321 323 328 330 332 335
319 320 320 320 321 324 328 331 332 333 335 333 334 334 341 357 355 355 353 355 354 355 359 349 345 343 342 344 347 347 345 343 339 337 340 338 337 338 339 338 336 331 327 321 322 328 330 330 330
318 319 319 320 321 323 325 327 327 330 333 332 333 334 355 356 354 353 354 353 351 355 357 353 348 344 344 346 347 346 346 344 342 340 343 340 338 338 339 338 335 332 330 323 322 325 329 330 329
318 319 318 319 320 321 324 325 326 327 330 331 331 332 339 358 355 352 352 353 351 353 353 351 352 349 346 346 347 346 347 345 344 344 344 341 338 338 338 337 333 332 331 327 323 322 324 326 327
318 318 319 319 320 320 322 322 325 328 326 327 329 331 334 349 346 349 345 346 351 351 351 349 349 350 350 352 348 347 346 346 345 345 344 340 339 337 339 336 336 332 332 329 326 323 321 320 320
318 318 317 319 320 321 322 322 323 323 323 324 325 329 331 335 339 337 336 350 352 351 351 348 348 348 346 346 349 347 348 346 345 344 338 337 342 343 345 342 339 342 334 332 331 329 326 325 323
318 319 319 319 320 321 321 321 322 322 322 324 324 326 330 332 339 350 352 352 352 351 352 349 349 347 345 345 345 347 346 345 341 343 343 339 341 344 342 344 341 337 337 334 333 332 331 328 332
317 318 318 319 320 320 319 320 320 321 321 323 324 325 327 332 338 344 349 350 353 351 351 350 349 347 345 349 345 345 345 344 345 345 347 341 344 344 342 345 343 343 342 338 340 340 341 342 340
317 318 319 319 319 319 320 319 319 319 320 321 321 323 324 332 332 332 340 356 349 351 352 349 350 349 346 349 349 345 346 345 347 347 348 347 346 346 344 343 342 346 343 341 342 341 342 344 340
317 318 318 319 319 319 318 318 318 318 319 320 320 321 322 325 331 331 333 345 350 345 345 343 337 350 349 351 350 346 347 347 347 349 350 351 350 351 349 348 349 348 348 346 344 344 344 344 344
316 316 317 317 318 318 318 317 317 318 319 319 319 320 321 322 325 330 332 336 352 345 343 336 340 338 352 351 353 348 349 349 348 350 351 348 351 351 349 351 347 346 345 345 345 347 348 347 346
317 316 316 317 317 317 317 316 318 318 319 318 318 320 320 321 322 324 327 335 346 345 340 339 344 342 340 351 353 350 352 349 350 350 353 351 350 350 351 350 350 350 350 350 351 351 350 351 346
318 316 316 316 318 318 317 316 318 319 320 320 320 320 320 321 322 322 325 331 333 347 345 345 332 332 332 350 347 352 351 350 339 347 346 349 352 351 350 349 351 350 349 351 348 348 349 350 349
318 319 319 319 319 320 319 320 320 321 321 321 320 319 320 321 321 322 327 331 334 335 350 346 341 342 350 341 333 338 347 338 339 342 336 337 347 342 336 344 345 347 347 346 346 349 348 346 345
317 319 320 319 320 321 321 322 322 322 321 323 323 322 321 321 321 321 329 332 341 342 343 350 353 353 348 347 349 352 352 354 353 347 334 337 345 347 341 334 331 345 347 348 344 343 339 335 333
317 319 320 321 321 321 322 323 323 323 323 324 324 323 322 321 322 323 330 335 340 343 349 347 353 352 353 350 350 350 348 351 350 351 354 351 346 346 349 348 347 342 336 334 330 333 335 332 331
317 318 320 322 321 321 322 323 324 323 324 323 322 321 322 323 323 324 335 335 334 341 345 347 352 352 350 349 349 348 350 348 348 352 352 352 350 349 340 342 339 330 330 328 326 331 333 334 329
318 319 320 322 321 322 323 324 328 326 325 323 322 323 323 323 323 324 333 337 335 341 335 333 339 347 350 346 349 337 349 346 344 340 338 335 333 331 330 331 329 330 330 329 327 327 328 330 328
319 320 320 320 321 322 322 323 325 325 325 324 324 324 325 327 323 325 326 335 335 339 339 334 335 337 348 346 352 348 347 340 332 332 330 331 330 331 330 330 331 332 332 331 333 332 332 333 336
320 320 321 320 320 322 322 322 324 326 326 325 325 323 325 325 327 327 334 335 334 334 335 339 343 343 343 343 348 341 335 335 333 335 331 328 331 329 328 329 330 330 330 330 329 331 331 333 334
319 322 322 322 322 322 321 322 325 327 325 324 324 324 325 328 332 331 334 334 336 336 344 344 339 339 336 335 333 332 331 330 328 327 327 326 325 324 325 324 324 326 326 326 327 326 326 326 329
320 323 322 324 322 321 321 323 323 327 326 325 324 325 326 329 332 332 333 334 338 340 339 337 334 332 328 327 327 325 325 323 324 323 324 323 322 322 322 321 321 322 323 323 323 323 323 323 323
320 321 321 323 325 325 322 323 326 325 325 324 326 326 329 330 333 335 334 336 337 335 333 332 329 328 327 326 324 323 323 323 323 323 322 322 321 321 321 320 319 319 319 320 321 321 321 322 323
321 321 323 322 327 327 325 325 328 328 327 325 327 329 330 332 334 334 333 333 332 330 329 327 326 325 324 323 322 322 321 321 321 321 321 321 320 320 320 320 319 319 320 320 320 320 320 320 320
319 321 321 325 326 332 334 334 330 329 330 329 327 330 332 333 333 333 331 330 327 326 325 324 323 322 321 320 320 320 320 319 319 319 319 319 319 319 319 319 319 319 319 319 319 319 318 318 318
321 321 324 327 329 325 328 331 330 330 329 329 329 330 331 332 331 330 329 326 325 324 323 322 320 320 319 318 318 318 318 318 318 318 318 318 318 318 318 318 318 318 318 317 317 316 317 317 316

GFSSGP_925_thetae_117.txt.gz
Theta_e
314 311 312 316 323 324 327 330 331 332 334 335 335 335 337 358 360 362 356 355 351 348 347 348 347 346 344 341 336 333 333 332 330 333 333 333 335 334 332 334 337 338 340 336 324 326 326 332 333
311 315 314 316 324 327 328 329 331 332 337 335 337 336 338 362 357 353 358 358 348 348 347 348 348 346 344 343 340 334 334 333 331 333 333 333 335 333 335 336 337 340 338 328 324 325 327 331 332
307 314 317 316 321 327 328 329 330 333 336 335 336 335 342 360 355 354 358 357 351 348 348 346 347 346 345 345 343 337 336 335 331 333 333 332 334 333 336 337 340 340 336 326 325 325 329 334 335
316 313 318 318 321 325 327 328 329 331 333 335 335 335 341 356 357 358 358 356 349 349 348 346 345 345 345 345 345 342 338 337 332 333 334 332 334 336 340 342 342 340 336 327 325 326 328 332 338
315 312 317 317 319 321 324 327 328 331 334 337 333 337 354 360 356 358 358 357 351 354 352 348 347 346 345 344 345 344 340 340 333 333 335 333 335 336 341 344 345 343 332 323 325 327 329 333 336
312 312 314 316 316 319 323 325 326 325 328 332 331 333 354 357 356 357 357 357 354 357 356 349 348 346 345 344 345 344 342 342 334 334 336 334 336 337 339 342 344 340 328 322 324 327 328 329 331
314 313 314 315 316 318 319 321 324 324 324 331 330 331 356 351 351 352 352 352 357 356 357 349 347 345 344 343 345 345 344 343 336 335 337 336 336 337 338 340 340 332 327 321 322 327 329 329 329
315 312 313 315 316 316 318 320 321 321 325 327 330 330 361 354 350 350 350 350 357 358 355 347 347 349 348 347 346 346 345 343 339 337 340 338 337 337 338 338 334 331 329 324 322 324 327 328 328
314 314 313 314 315 315 316 317 320 323 324 327 327 327 354 353 352 352 350 350 351 356 356 345 346 348 351 353 350 347 346 343 341 340 342 340 338 338 338 338 334 330 330 327 323 321 322 323 324
313 313 314 314 314 315 315 317 317 320 324 324 324 330 349 350 349 341 342 344 341 350 354 348 345 347 351 352 353 348 347 346 344 343 345 342 338 336 336 336 334 331 330 329 326 324 323 321 320
313 314 314 315 316 315 316 317 317 318 319 321 322 323 341 341 346 344 342 340 339 342 351 350 347 345 351 352 348 348 347 347 346 346 344 341 337 338 336 337 336 339 338 331 330 329 329 327 325
311 314 315 315 316 316 315 315 316 317 317 316 318 320 321 333 339 342 343 339 350 349 348 348 348 345 346 347 345 345 346 346 345 344 339 335 335 344 343 344 342 338 336 332 329 328 332 336 336
311 313 315 315 315 315 315 315 316 316 317 317 317 318 317 320 336 340 339 347 350 351 349 347 344 344 347 348 345 341 340 340 339 341 342 342 339 343 345 343 344 342 341 339 333 335 337 338 341
312 313 314 314 315 315 315 315 316 316 317 316 316 316 316 318 320 327 334 349 349 350 350 349 345 340 345 343 347 343 343 341 340 341 344 346 341 345 347 342 344 344 344 343 341 340 340 340 344
312 311 313 315 314 315 315 314 316 315 316 315 315 315 316 316 318 319 327 349 346 348 345 343 346 341 339 342 342 348 348 345 346 347 346 347 345 345 349 346 346 348 349 348 347 343 349 348 347
311 311 311 312 314 314 314 315 314 315 314 315 315 315 316 315 318 320 320 342 346 344 349 346 343 338 337 332 331 347 349 349 348 350 350 349 350 351 350 349 348 345 348 346 344 347 347 347 345
313 313 312 313 313 314 314 314 314 314 314 314 315 315 315 314 315 319 319 339 342 341 337 338 336 335 332 334 336 348 349 348 344 346 347 348 348 347 346 345 338 331 342 341 331 333 338 337 344
313 313 314 314 314 314 313 313 314 314 316 315 315 315 315 315 315 318 319 337 341 344 341 342 340 335 337 343 345 347 340 344 343 340 340 344 343 341 335 342 336 332 340 337 334 330 330 341 338
315 314 316 317 317 316 314 315 315 317 317 317 316 315 315 315 315 319 321 335 346 346 346 343 337 337 336 339 342 339 339 334 336 344 339 334 337 338 333 330 332 334 333 338 335 336 341 337 324
315 314 314 317 319 317 317 317 319 319 318 317 317 318 315 316 316 316 333 336 349 346 344 338 333 335 337 339 335 333 337 333 335 346 344 339 333 333 329 327 332 337 344 337 337 334 329 326 326
314 313 314 316 318 319 320 320 321 322 321 321 320 319 317 315 315 316 335 342 346 349 350 346 345 342 344 338 343 343 342 347 348 344 346 346 342 339 340 341 339 335 333 329 329 327 334 331 330
314 314 316 317 318 320 319 318 321 321 320 321 319 316 317 318 316 316 337 340 348 344 352 354 352 349 348 350 348 347 347 347 346 346 347 347 346 344 338 334 330 330 328 326 326 331 331 335 333
314 316 316 317 319 320 319 317 318 321 322 321 319 318 317 316 316 317 331 339 346 347 350 351 349 350 348 347 345 346 345 344 344 344 337 332 330 330 329 327 328 329 329 328 330 329 328 329 331
314 316 317 317 316 318 319 320 319 322 322 321 320 319 319 319 317 315 331 336 341 340 343 348 347 348 347 347 347 345 338 334 335 333 332 332 331 328 330 329 329 329 329 328 328 327 327 328 328
314 314 320 320 318 319 318 319 318 323 324 323 321 320 319 326 321 324 331 332 342 340 341 340 337 334 336 336 334 333 335 332 330 330 326 325 327 329 324 323 324 325 324 323 322 322 322 321 321
313 317 319 321 321 319 319 319 319 321 322 323 323 320 326 328 329 330 332 340 339 336 335 332 329 328 328 326 325 324 326 324 323 323 323 321 320 320 320 320 320 320 321 321 320 319 318 319 320
317 318 317 320 325 324 321 319 325 324 325 323 325 324 325 328 329 331 337 336 334 333 331 329 328 326 324 323 322 322 322 322 321 320 318 320 321 320 321 319 318 318 318 318 319 319 319 320 320
318 317 319 318 325 327 324 325 329 329 326 327 325 325 331 331 332 333 332 331 330 329 328 326 325 323 322 323 321 321 321 320 320 320 319 319 319 319 318 318 318 318 318 318 319 319 319 319 319
319 320 318 318 322 324 327 335 330 330 325 327 328 328 330 330 330 328 326 325 324 325 324 323 322 321 321 319 319 319 319 318 318 318 318 318 318 318 318 318 318 318 318 318 318 317 317 317 316
323 317 319 324 325 323 324 334 328 328 328 327 327 329 329 327 328 326 324 324 324 324 323 321 322 320 318 317 317 317 317 317 317 317 317 317 317 317 317 317 317 317 317 317 316 316 316 315 315

GFSSGP_925_thetae_120.txt.gz
Theta_e
314 313 311 315 322 320 324 326 328 329 330 332 333 335 355 355 354 353 354 352 347 345 346 347 345 344 340 335 332 331 331 330 332 331 331 333 332 328 331 335 336 337 336 329 332 326 332 332 332
313 311 314 312 322 325 325 324 327 327 328 330 334 337 359 363 354 357 356 355 346 345 346 346 346 344 340 335 333 332 332 330 333 331 330 333 331 329 332 334 334 336 332 325 326 329 332 332 333
308 312 313 313 317 324 326 326 327 327 327 328 333 334 358 360 354 357 357 353 347 347 346 346 345 344 340 337 334 333 333 331 333 332 330 332 329 328 330 332 336 336 329 324 325 328 331 332 333
314 311 314 317 318 321 325 326 327 327 327 328 332 334 352 353 352 355 357 351 348 348 347 347 346 345 341 339 335 334 334 332 333 333 331 333 332 334 335 336 338 336 329 325 325 328 333 334 335
313 308 317 317 317 318 321 323 324 324 324 326 328 355 360 356 358 358 356 352 349 348 348 347 346 345 344 343 339 336 336 333 332 334 331 333 332 337 338 340 341 339 334 326 327 327 331 335 336
310 307 312 316 315 319 319 320 321 321 323 324 328 347 357 348 358 358 355 350 349 347 347 347 347 347 346 345 342 337 337 336 332 335 333 333 334 337 342 344 344 342 335 328 329 328 329 332 336
311 308 311 313 315 316 317 318 318 318 320 322 326 350 354 351 351 357 356 353 352 349 347 346 347 348 347 346 345 341 339 338 333 334 335 333 333 333 337 340 343 342 331 325 326 329 329 329 329
311 309 313 312 315 314 315 317 317 316 319 320 327 350 359 350 350 356 356 354 351 352 350 348 348 352 354 354 348 344 341 340 334 335 336 334 334 334 335 335 338 336 329 323 323 327 328 328 328
311 310 310 312 313 314 314 315 316 318 321 324 325 330 353 348 348 350 352 356 356 357 355 349 347 346 347 350 352 348 344 342 336 336 338 337 336 335 337 337 337 333 331 329 325 324 325 326 326
309 311 311 312 313 313 313 314 314 316 317 322 327 354 351 348 350 350 349 350 356 355 354 353 351 348 346 349 353 349 347 344 340 338 341 340 338 336 336 336 337 334 332 332 329 325 322 322 321
308 313 313 313 313 313 314 315 314 316 317 318 316 346 352 350 346 349 349 343 346 354 353 352 352 352 352 352 354 348 346 345 343 342 342 343 341 339 339 339 338 336 333 332 330 328 326 324 323
308 311 313 313 313 315 315 314 314 315 316 316 316 325 342 345 345 341 338 345 342 349 350 351 352 352 352 349 347 346 346 346 345 344 344 344 341 338 337 336 336 335 335 336 334 330 329 328 328
307 308 311 312 312 313 313 313 314 314 315 316 315 316 318 330 339 340 340 349 345 346 347 349 349 349 347 350 348 348 347 344 341 342 343 342 337 333 339 343 340 342 340 339 338 336 333 331 333
308 309 309 310 311 312 313 314 313 315 315 315 315 314 314 320 328 335 344 350 347 346 346 348 345 344 341 340 340 344 340 342 343 341 337 335 338 333 341 343 344 344 344 343 343 343 342 338 340
309 309 309 310 311 311 313 313 315 314 314 315 314 313 313 314 316 325 347 349 349 347 345 345 344 340 340 338 341 343 341 340 342 342 338 339 344 342 342 345 344 343 343 342 340 340 340 342 343
309 308 309 309 309 311 312 314 315 313 312 313 313 313 313 313 315 325 345 349 350 348 345 344 343 340 338 338 339 343 340 346 345 344 344 346 347 347 347 346 345 340 341 339 338 336 333 336 337
310 311 308 309 309 311 311 314 313 314 313 312 312 312 312 312 312 324 344 347 349 347 344 343 344 342 339 339 339 343 346 348 346 346 348 348 347 346 345 344 343 344 337 334 333 336 334 334 333
313 311 311 312 313 310 311 312 312 313 312 313 311 311 311 312 313 315 344 345 348 345 343 342 340 341 340 340 339 345 347 346 347 347 345 341 344 344 335 334 338 337 337 335 336 336 331 332 330
314 313 312 312 313 313 312 312 311 312 311 311 311 311 311 311 313 314 340 341 341 342 341 342 341 338 335 336 340 344 345 345 340 339 338 340 341 340 342 341 340 334 334 334 335 333 331 331 330
315 314 314 313 314 314 314 313 313 313 312 312 313 313 312 311 312 315 340 342 340 339 339 337 336 335 334 335 342 340 339 335 338 337 341 341 334 335 337 336 333 330 333 334 335 332 332 332 336
315 315 314 313 314 314 315 316 316 315 314 314 314 314 314 312 312 316 338 343 342 341 341 340 339 336 336 335 339 337 337 336 333 337 343 339 335 332 333 331 328 335 336 339 339 341 338 332 330
316 315 315 315 314 314 316 318 317 317 318 318 317 316 315 312 313 319 337 344 344 343 339 336 338 338 336 339 337 338 337 338 334 341 342 341 343 335 334 334 341 332 334 331 331 332 331 332 332
316 315 315 315 314 313 315 316 315 318 319 318 317 314 313 314 313 322 338 346 346 344 341 336 336 336 334 341 341 345 344 346 346 346 343 343 345 343 341 338 334 331 330 329 329 328 326 328 330
316 314 314 313 314 315 315 317 317 317 320 320 318 316 314 313 312 329 339 344 343 349 349 346 344 340 341 343 344 343 338 342 343 342 341 338 333 332 330 330 330 329 329 328 327 326 326 325 323
316 313 313 315 314 316 315 316 316 318 320 319 317 316 316 315 312 329 339 338 341 341 342 344 346 344 346 346 344 342 340 339 337 331 329 332 332 328 328 328 329 328 326 323 321 321 320 319 318
315 313 312 317 317 316 318 317 316 317 318 321 318 317 323 323 320 331 338 338 338 332 330 331 332 328 329 329 332 332 332 332 327 325 324 324 323 322 321 321 320 319 318 317 316 316 317 317 318
316 312 312 318 322 319 318 318 323 325 325 326 324 327 325 332 336 340 335 333 330 327 327 327 326 324 324 323 324 323 322 322 321 320 320 320 320 320 319 318 317 316 316 316 317 317 318 318 319
317 314 316 320 325 324 322 328 329 328 328 331 330 329 330 334 334 333 331 328 326 326 325 324 323 323 322 321 320 320 320 319 319 318 318 318 318 318 317 317 317 317 317 317 317 317 318 318 318
317 315 317 318 321 321 325 328 327 328 326 332 330 329 328 327 326 325 324 324 322 323 322 322 321 320 319 319 318 318 317 317 317 317 317 317 317 317 317 316 317 317 317 317 317 316 316 315 316
320 321 316 319 320 320 321 323 328 327 330 328 330 329 328 327 326 325 323 321 319 315 317 316 315 316 316 316 316 316 315 315 316 315 315 316 315 315 315 315 316 315 314 314 314 314 314 315 314

GFSSGP_925_thetae_123.txt.gz
Theta_e
314 313 312 315 320 320 324 325 325 328 329 328 327 333 347 350 354 349 353 352 346 345 346 345 343 340 336 332 330 331 330 330 330 330 332 333 330 330 336 337 335 333 330 332 332 328 331 330 330
314 312 313 312 321 325 324 322 325 325 325 324 326 351 357 356 354 355 354 352 346 345 347 345 343 340 336 332 331 331 331 331 330 329 332 330 329 332 335 335 334 333 327 331 326 332 332 332 331
309 313 310 313 317 324 325 324 326 326 325 326 327 332 355 357 355 354 356 351 348 346 347 346 344 340 336 332 331 331 331 332 330 329 331 330 328 331 334 335 335 333 325 326 328 332 332 333 336
314 309 311 313 316 320 323 325 322 324 325 324 325 326 350 357 353 354 355 352 348 348 349 346 345 341 336 333 332 332 331 333 332 330 331 330 329 332 334 334 336 332 324 325 327 331 332 333 334
311 307 311 317 317 316 320 321 323 322 321 321 322 328 361 358 357 355 354 353 349 350 349 348 346 341 336 333 333 333 331 332 333 330 331 329 330 333 334 336 338 335 326 326 327 331 333 334 335
308 305 310 314 315 317 317 319 319 319 320 320 322 340 357 351 357 355 353 351 349 350 351 349 347 342 338 334 334 334 333 332 334 332 331 331 333 335 338 340 340 338 333 328 329 329 333 335 336
308 306 308 311 313 314 316 317 316 316 316 316 320 359 354 351 357 355 353 350 351 351 351 351 348 344 342 340 336 335 335 332 334 334 332 332 332 335 339 341 342 341 336 329 329 329 330 332 334
308 307 310 309 312 313 314 316 316 316 315 316 327 358 359 351 355 355 351 350 350 350 350 350 348 346 345 345 343 337 337 335 333 336 334 333 334 335 337 339 341 342 337 329 329 331 331 330 328
309 310 309 310 311 312 313 314 314 315 315 315 323 342 350 353 352 353 354 355 352 350 347 347 346 346 346 346 345 343 339 339 335 336 337 336 335 335 336 337 337 339 334 330 326 326 328 329 330
308 307 310 310 311 312 313 313 313 314 313 315 318 351 349 348 349 353 354 356 355 353 352 350 349 349 349 347 347 345 342 342 338 335 338 338 337 337 337 338 339 337 333 332 332 329 326 325 324
307 310 310 312 313 311 312 313 314 313 313 316 315 352 348 348 349 349 350 355 355 354 354 354 351 350 349 350 350 348 346 344 341 338 338 340 339 338 336 336 337 338 336 331 331 331 329 327 325
306 308 311 311 312 313 313 313 314 312 313 314 315 349 349 348 346 342 341 347 353 353 353 353 353 349 349 347 348 348 346 345 343 342 342 341 342 340 337 335 335 334 334 334 336 337 337 337 336
305 307 309 311 311 311 311 312 312 312 312 314 314 330 349 346 343 339 343 347 351 351 352 350 348 347 346 346 346 346 345 344 344 344 343 342 341 340 337 335 337 339 341 341 342 342 342 342 341
307 306 307 307 307 309 311 313 312 313 312 313 313 312 315 317 339 339 346 344 347 349 351 350 348 347 344 342 342 341 341 344 344 344 344 343 343 341 338 340 344 344 344 344 341 342 342 341 341
307 309 308 307 308 307 310 310 312 312 313 313 312 312 311 314 329 339 347 344 346 347 349 350 347 346 345 344 344 343 340 341 341 343 345 343 341 340 338 342 344 343 343 343 341 337 339 338 337
309 308 309 307 307 308 310 311 312 312 312 312 312 312 311 311 314 337 344 346 344 346 348 349 347 347 346 343 342 342 344 344 343 343 343 343 343 343 342 343 343 343 341 338 336 337 335 337 333
309 307 307 308 306 309 309 310 311 311 311 311 311 311 312 310 311 330 344 347 345 346 346 347 346 344 342 337 338 339 343 343 343 343 343 342 344 345 345 345 344 343 342 341 339 337 332 334 332
310 309 310 309 309 307 309 308 309 311 311 310 310 310 310 311 311 329 345 346 347 345 345 344 344 343 341 340 341 342 342 343 345 346 345 345 345 346 345 344 343 339 338 337 338 333 334 335 335
311 312 311 310 310 310 309 309 309 310 309 309 309 308 308 309 310 327 342 346 348 344 343 343 343 342 339 338 338 339 344 345 345 346 345 345 343 342 344 342 336 334 336 338 337 335 334 335 332
312 313 312 312 312 310 311 312 311 310 310 309 310 309 309 310 309 328 341 344 344 342 342 341 343 341 340 339 338 340 345 345 342 342 341 342 339 339 341 338 339 338 336 336 334 334 334 331 332
312 313 312 313 313 312 313 312 312 313 311 310 309 309 310 310 310 331 339 339 341 341 341 343 344 341 340 339 338 338 340 342 342 339 337 337 338 337 337 338 337 337 338 334 333 335 334 333 334
315 314 314 315 314 312 312 313 313 314 313 313 313 309 310 311 309 332 338 338 339 341 343 341 341 340 340 338 336 339 338 336 335 337 337 339 336 335 334 334 330 330 334 334 336 336 336 337 330
316 315 314 315 313 312 312 312 312 314 315 314 313 313 312 311 310 330 338 339 339 339 338 338 338 338 336 335 336 338 335 337 337 336 340 339 337 338 334 336 337 338 332 334 332 332 330 329 329
316 314 314 313 312 311 312 312 314 315 316 317 316 315 314 312 310 329 338 341 340 340 337 335 336 336 335 335 336 338 341 342 342 342 343 340 341 341 341 334 333 331 330 329 328 327 326 324 322
316 313 312 312 312 314 311 314 314 315 316 318 318 316 314 311 319 337 341 340 343 342 339 338 338 337 338 337 340 343 343 340 342 341 340 336 337 334 330 329 329 329 328 326 323 321 320 318 317
318 314 311 313 314 312 314 315 314 322 326 325 326 326 322 310 330 339 339 342 334 329 332 337 337 337 338 338 339 337 335 335 333 331 330 329 326 325 323 322 321 320 319 318 316 316 316 317 317
320 317 311 315 318 314 315 316 325 330 331 332 336 337 337 336 337 336 331 327 326 325 326 329 327 327 330 329 328 326 325 324 322 322 323 322 321 320 319 318 317 316 316 316 316 316 316 317 317
315 313 314 316 318 321 321 325 326 331 331 332 333 332 332 331 330 328 327 325 325 324 324 324 323 322 322 321 320 320 319 319 318 318 318 317 317 317 316 316 316 315 315 316 316 316 316 316 316
320 316 316 315 318 320 325 329 326 330 330 332 331 329 328 328 327 325 322 320 318 319 319 319 319 319 319 318 318 317 317 317 317 317 316 316 315 315 315 314 314 315 316 315 315 314 314 314 314
319 315 317 316 318 319 319 326 326 328 330 330 330 328 326 324 321 317 315 315 314 313 313 314 315 315 315 315 314 314 314 313 313 313 314 314 314 315 315 315 315 315 314 312 312 312 313 313 313

GFSSGP_925_thetae_126.txt.gz
Theta_e
311 314 312 315 318 319 324 325 323 327 328 324 324 328 337 348 352 351 353 352 347 346 346 345 343 337 331 330 330 330 331 332 336 340 343 342 336 326 332 338 339 339 338 338 331 327 328 328 326
314 312 312 312 318 322 322 322 324 324 325 323 325 332 349 355 355 354 352 352 348 345 346 345 342 337 331 330 330 330 330 330 331 333 336 335 329 331 337 338 336 332 331 335 327 331 335 333 331
311 313 308 314 317 323 324 322 323 324 323 325 326 325 346 358 355 353 355 351 348 346 347 346 341 337 331 331 331 331 331 329 329 331 332 331 331 337 338 337 336 330 335 331 335 337 336 333 334
313 310 309 311 316 318 322 324 322 322 322 323 322 324 338 357 356 354 353 351 350 349 348 345 341 338 332 331 331 332 332 330 329 331 330 330 333 337 338 338 339 331 330 329 336 336 335 336 337
309 305 308 315 314 314 318 320 321 321 320 320 321 322 338 358 356 354 353 352 349 350 348 346 343 337 332 331 331 332 333 331 329 330 330 329 332 336 337 338 338 330 327 329 332 333 334 335 336
307 304 308 309 312 315 315 317 318 319 318 318 318 322 353 353 356 354 353 352 350 349 349 347 343 338 333 332 332 331 333 333 330 330 330 328 329 332 333 338 337 335 329 328 329 332 335 336 338
306 305 306 308 309 310 314 315 316 317 315 316 317 333 346 350 356 354 353 353 349 348 349 348 345 339 334 333 333 332 332 334 332 331 331 329 331 332 334 337 338 338 334 328 328 328 330 331 334
305 305 308 307 310 310 312 314 315 314 315 315 326 333 344 350 355 352 352 353 351 349 348 347 345 340 336 334 334 334 333 333 335 333 333 333 333 334 337 338 340 341 339 328 325 327 328 328 328
306 308 307 307 310 310 312 313 314 314 314 314 317 340 344 351 354 352 353 353 355 354 350 348 345 343 341 338 335 335 335 333 334 335 333 333 333 335 337 339 341 341 339 329 324 322 324 327 328
308 307 307 308 309 311 312 312 313 314 313 314 316 340 348 350 352 353 353 350 352 353 355 353 350 346 345 344 342 338 337 336 334 335 336 334 333 333 333 334 335 335 333 329 329 329 329 330 329
306 308 308 310 311 311 311 312 312 313 312 312 315 343 347 348 352 353 353 352 351 351 352 353 353 350 348 346 346 343 340 340 336 334 337 337 336 335 334 333 333 333 333 334 335 336 336 333 332
306 306 309 309 311 313 313 313 312 311 311 312 313 328 347 348 347 347 352 354 352 350 350 350 352 353 349 346 346 345 343 342 340 336 336 338 339 337 336 335 335 337 338 337 336 335 337 337 336
304 305 307 309 310 309 310 310 310 310 311 311 312 333 348 346 342 341 348 353 352 352 350 350 352 351 348 347 346 345 344 343 342 340 338 339 340 340 338 337 336 337 337 337 336 337 339 340 341
307 306 307 306 307 308 311 311 310 311 311 311 311 311 343 347 342 343 346 350 352 352 354 354 351 349 348 347 345 344 344 344 344 342 341 341 342 342 340 336 336 337 338 341 342 342 342 342 340
307 309 307 305 306 305 307 308 309 310 311 311 312 310 311 331 338 343 345 349 353 353 352 352 350 349 347 347 345 344 345 346 345 345 345 344 344 344 341 337 342 343 343 342 341 341 340 338 336
309 309 310 307 306 305 307 307 309 309 310 311 311 310 310 310 331 340 344 347 350 350 352 352 350 349 348 347 346 346 346 346 346 347 346 346 345 344 340 337 342 343 342 342 339 337 335 334 333
307 306 308 309 305 308 306 308 309 309 309 310 310 311 310 309 310 332 343 343 344 347 350 351 350 349 348 347 346 346 345 345 344 343 342 342 344 341 341 339 342 343 341 339 338 339 339 337 336
310 309 307 309 308 306 306 306 307 308 309 309 309 309 310 310 310 313 339 344 343 343 346 348 348 347 347 347 345 344 341 343 342 342 342 342 341 341 342 342 342 343 342 340 340 335 337 337 335
310 309 310 307 308 307 308 307 307 307 307 307 307 308 308 308 309 312 338 345 343 343 344 346 347 346 345 343 339 341 342 342 343 344 344 344 344 344 343 343 342 342 341 339 337 337 334 335 334
314 310 310 311 310 309 310 309 309 309 308 308 307 307 307 308 307 313 340 344 345 343 344 344 345 345 344 342 339 340 341 343 344 345 345 345 343 342 342 339 337 337 335 336 337 337 334 333 333
315 312 311 313 312 311 312 311 311 311 310 309 308 308 307 308 307 322 338 343 345 344 344 344 344 343 341 341 338 338 340 343 342 342 343 341 340 339 339 338 339 338 339 337 336 333 333 334 333
315 311 312 313 313 313 311 311 311 311 312 312 311 308 307 307 307 322 336 340 343 343 341 341 340 340 340 339 338 337 338 340 340 340 339 339 337 337 337 337 334 333 333 335 334 333 336 334 333
312 311 313 314 312 312 312 310 309 312 314 313 312 309 308 307 308 323 335 337 340 340 340 339 339 338 337 338 338 336 337 337 337 337 339 338 338 336 333 332 330 331 335 334 334 333 331 333 334
313 313 313 312 310 313 312 310 309 312 314 314 313 312 311 310 308 319 332 336 338 339 338 338 337 337 337 337 337 336 337 337 337 337 336 335 337 335 335 334 339 337 330 331 332 330 329 327 326
315 312 311 313 312 315 309 310 309 312 319 319 318 316 311 312 311 330 336 336 336 335 335 335 336 336 335 335 335 335 337 339 339 339 339 338 336 336 334 331 331 330 329 328 327 325 322 320 318
316 313 310 314 314 311 311 312 313 328 330 333 332 322 327 331 334 337 340 339 337 335 333 333 334 334 336 336 337 338 339 337 336 335 332 329 328 327 326 326 325 323 321 319 318 316 316 316 316
317 316 310 312 313 311 312 315 325 331 331 334 335 334 334 334 331 331 329 328 326 324 324 327 328 326 326 327 325 325 325 326 326 325 324 322 321 320 319 319 318 317 316 316 315 315 316 316 316
318 314 314 313 319 314 317 318 317 331 331 331 331 330 329 331 329 326 324 322 321 320 319 320 319 318 318 318 318 318 318 318 318 318 318 317 317 317 316 316 315 315 315 315 315 315 315 315 315
322 319 316 313 313 318 326 327 326 330 331 330 332 330 327 326 323 321 319 317 317 317 317 317 318 318 321 317 316 316 316 316 315 315 315 315 315 314 314 314 314 314 315 314 313 312 312 312 312
321 317 315 316 317 316 320 328 328 330 331 331 330 327 322 320 318 316 316 314 314 313 314 315 317 317 314 313 313 313 313 312 312 312 312 313 313 313 314 314 314 313 313 312 311 311 311 311 312

GFSSGP_925_thetae_129.txt.gz
Theta_e
311 314 313 317 324 327 332 332 328 330 330 328 327 330 338 342 351 354 355 355 351 356 357 349 344 334 335 340 343 344 345 345 345 345 344 341 337 328 327 336 342 345 346 341 331 329 331 329 326
314 312 313 319 326 331 332 329 330 331 328 328 329 329 342 352 356 357 355 354 353 356 357 354 342 332 333 335 335 336 339 342 344 345 344 341 333 326 337 340 342 343 342 338 332 329 328 327 327
312 314 315 318 322 331 332 328 329 329 327 328 328 326 340 354 356 356 355 354 355 356 356 353 339 332 332 331 331 332 332 334 338 341 341 336 329 336 339 340 338 337 343 335 337 335 333 332 331
312 316 316 317 323 325 330 329 327 327 325 325 325 329 327 357 357 356 355 354 355 355 355 346 337 332 331 330 331 331 330 330 332 335 335 331 333 338 338 336 335 341 340 344 341 338 335 335 339
310 313 314 316 317 319 321 326 325 327 325 325 323 327 325 359 356 356 355 354 353 354 354 349 337 332 331 331 332 331 330 329 330 332 331 331 335 337 336 336 332 333 334 338 336 335 336 337 336
312 312 313 313 315 316 318 320 322 324 323 322 323 323 329 358 357 356 355 354 353 354 354 352 339 333 331 331 332 332 330 329 330 330 330 331 334 336 336 337 333 329 330 332 333 334 334 335 337
311 312 312 312 312 313 314 318 320 321 322 322 321 323 327 353 357 356 355 354 353 354 353 352 347 335 331 331 332 333 332 330 329 330 329 329 332 333 333 336 335 332 328 329 330 332 335 336 336
312 313 312 311 311 312 313 315 317 319 320 319 319 323 328 354 356 355 355 355 354 354 353 353 351 346 343 333 331 333 333 332 330 329 327 327 328 331 335 337 338 337 332 326 326 328 329 330 332
310 312 311 311 311 311 314 315 315 316 317 317 318 329 345 354 354 356 356 355 354 354 354 353 352 349 346 345 338 332 333 334 332 331 330 330 341 339 335 339 337 339 338 328 324 327 329 331 331
313 314 313 312 312 312 312 313 315 316 317 317 318 319 345 353 356 356 355 354 353 353 354 353 353 350 347 346 346 344 344 342 341 341 337 342 343 344 343 338 336 336 337 331 330 327 326 327 330
312 314 313 311 312 313 313 313 314 315 315 317 317 318 339 352 355 356 355 353 352 352 353 353 353 350 348 346 348 347 346 346 346 346 345 344 343 343 343 343 341 342 337 340 337 335 337 333 334
311 312 312 312 312 314 313 313 314 314 315 316 316 316 335 346 356 357 355 352 352 352 352 352 352 350 351 350 348 347 347 347 345 345 345 344 343 344 344 342 343 344 343 343 341 338 338 333 332
311 312 311 312 312 313 313 313 314 314 315 315 315 316 318 340 353 355 355 353 352 352 353 353 352 351 351 352 350 350 348 347 346 345 345 345 344 345 344 344 343 342 342 342 341 339 340 341 342
313 311 311 311 312 312 312 312 313 314 315 315 315 316 317 334 352 351 354 355 353 352 352 352 352 352 354 352 350 350 349 348 348 346 346 346 345 345 344 344 342 342 342 341 341 341 343 344 344
313 311 310 311 311 311 311 311 312 313 313 314 316 316 317 325 350 351 351 356 354 352 351 351 350 353 355 351 351 350 350 349 348 348 348 346 345 344 342 343 342 342 342 339 343 344 343 342 339
314 313 315 314 310 310 310 314 312 313 313 314 314 315 317 317 347 349 349 353 355 355 352 351 352 353 354 351 350 349 348 349 349 349 348 348 344 343 343 343 342 342 343 342 342 341 341 341 339
313 316 316 315 312 312 310 312 313 313 313 314 316 317 317 318 318 335 346 349 353 354 354 352 352 352 354 351 348 347 346 348 349 349 349 348 346 344 345 344 340 340 342 342 340 340 338 340 341
318 314 312 314 313 313 313 311 313 312 312 314 316 317 317 318 319 317 334 345 349 352 353 354 352 352 351 347 347 345 345 346 346 347 344 342 343 345 344 343 341 340 341 340 339 340 339 337 339
317 315 315 313 313 313 314 314 312 313 313 313 315 316 317 317 318 317 320 342 345 347 349 351 350 349 345 346 344 345 345 344 343 342 342 342 343 344 342 341 341 341 340 340 339 339 337 337 338
317 315 315 314 313 312 314 314 314 313 314 315 316 317 317 317 317 317 321 338 344 345 346 347 348 346 345 346 344 344 343 342 341 342 343 343 343 342 342 341 341 340 339 340 338 337 338 338 337
319 318 314 314 314 313 314 315 316 315 315 315 316 317 318 318 319 318 324 334 341 345 345 346 346 344 343 342 340 340 340 341 341 342 341 340 341 342 341 341 338 338 337 338 337 338 339 337 337
321 318 315 314 314 315 315 317 317 317 317 316 317 317 318 318 318 319 325 334 340 342 345 346 345 342 340 339 340 340 342 342 342 340 340 340 340 339 340 340 338 339 337 338 339 338 337 337 338
319 318 317 315 315 316 316 315 316 316 317 317 319 319 319 319 318 317 325 332 337 342 345 346 343 339 338 339 340 339 339 339 338 339 340 338 337 337 337 337 336 334 334 334 336 336 337 337 337
317 317 318 317 316 317 316 316 317 316 317 317 319 320 320 319 317 318 323 331 337 343 342 339 337 336 338 340 340 340 340 340 340 340 339 339 336 336 336 334 334 333 336 335 336 335 333 332 332
316 317 317 318 317 318 317 317 317 317 321 324 326 323 318 318 316 321 331 335 339 337 336 336 336 335 338 339 339 340 340 340 341 341 340 337 336 334 334 335 335 333 330 329 329 327 325 324 324
317 315 317 318 318 318 315 317 317 324 335 334 329 329 330 327 329 333 336 337 336 335 335 336 333 331 333 333 331 331 334 336 335 334 336 334 333 330 328 327 327 325 323 322 320 321 321 319 320
316 316 316 318 317 317 316 318 333 333 335 334 334 336 337 336 334 335 334 330 329 329 332 330 327 326 326 325 324 323 323 324 324 324 324 324 323 322 321 320 319 318 317 316 316 319 318 318 319
316 316 317 317 318 318 318 319 324 335 335 332 332 332 332 329 329 327 325 323 324 325 325 324 324 321 320 319 318 318 317 318 317 317 318 319 317 318 318 318 318 318 318 318 317 318 317 317 316
319 318 317 317 319 320 322 320 331 334 333 332 331 330 327 325 323 322 321 321 321 322 322 321 320 319 318 316 316 315 314 315 315 314 314 316 315 315 316 316 316 316 316 316 316 316 315 315 315
319 319 319 319 321 321 321 335 330 331 330 331 328 325 323 321 320 319 319 319 321 321 320 318 317 317 315 314 315 313 313 311 310 310 309 310 310 310 310 311 311 312 312 312 312 312 313 313 313

GFSSGP_925_thetae_132.txt.gz
Theta_e
317 318 316 318 329 333 335 334 334 333 332 333 333 334 340 343 348 363 358 355 350 356 358 350 342 339 342 344 349 348 345 343 336 336 335 336 336 330 328 338 346 348 344 337 342 343 340 334 328
319 315 315 323 331 336 335 334 334 334 333 332 333 334 339 349 353 359 358 353 353 357 358 353 340 338 343 346 349 346 345 344 341 341 339 337 335 327 332 337 345 347 345 337 329 331 331 327 326
318 315 319 325 330 335 336 334 333 333 333 332 333 332 337 349 357 358 358 353 355 357 357 354 338 337 343 346 345 345 345 345 344 344 342 339 331 328 338 341 343 344 343 335 334 333 330 328 328
314 316 318 324 330 331 333 334 332 332 332 331 331 333 332 344 348 357 355 353 356 357 356 354 337 334 337 342 344 343 342 343 344 344 342 338 328 336 338 338 336 341 342 343 340 335 334 332 333
313 317 317 319 325 329 331 331 333 332 332 331 330 333 332 343 357 358 354 354 355 356 355 352 336 332 334 336 338 336 336 338 341 343 340 332 331 337 337 335 332 340 339 341 337 335 334 336 340
315 316 316 318 320 323 327 327 330 332 333 333 328 331 333 353 354 359 354 353 354 354 355 352 337 332 332 333 333 332 332 333 334 334 334 329 334 336 335 335 331 334 334 336 335 335 337 338 337
315 315 315 316 318 319 321 324 325 327 329 330 328 328 333 344 354 359 354 353 353 352 354 352 346 339 332 333 332 331 330 329 330 331 330 330 333 335 335 335 329 329 329 333 333 334 335 336 338
317 316 316 316 316 317 318 319 320 322 325 327 326 328 330 352 355 357 356 354 353 352 352 351 347 344 343 342 332 332 330 329 330 329 329 330 333 335 334 335 331 327 328 329 332 334 335 336 336
316 317 317 317 316 317 317 316 318 319 319 321 323 326 336 343 352 357 358 356 353 353 351 351 349 345 342 343 342 335 332 331 331 332 330 333 338 340 339 340 338 334 330 328 330 331 331 332 332
317 319 320 319 319 317 317 317 318 318 318 319 321 322 334 342 350 353 359 357 355 353 352 351 351 347 344 343 345 344 344 342 341 340 340 338 339 340 341 341 343 339 338 332 327 326 327 328 335
318 321 322 320 318 317 317 317 317 317 318 319 319 321 328 337 347 350 354 357 356 354 353 352 353 350 346 345 346 344 345 344 344 344 343 341 342 342 341 343 343 345 342 342 336 336 333 331 333
318 319 320 321 319 317 317 317 317 317 318 319 320 321 321 333 339 349 351 355 356 354 353 353 354 353 349 347 348 346 346 346 346 347 347 345 345 344 342 341 340 341 341 340 340 339 337 337 336
319 318 318 318 318 318 317 317 317 317 318 318 318 318 319 321 331 349 351 353 356 354 353 354 354 354 352 349 349 349 348 348 348 348 348 347 346 345 344 343 342 342 340 341 342 339 338 338 337
317 317 317 316 317 317 317 317 317 317 317 317 317 318 319 321 324 348 355 355 356 355 354 355 355 355 354 353 352 351 350 350 349 347 347 348 347 347 346 346 345 342 341 340 339 339 339 339 338
316 316 316 317 316 316 316 317 317 318 317 317 318 318 319 321 322 347 355 356 357 356 356 356 355 355 354 355 356 353 352 352 350 348 349 349 349 349 349 347 345 342 342 342 342 341 342 343 343
318 317 318 317 317 317 316 317 317 318 317 317 318 318 318 320 322 345 355 358 358 356 356 357 355 355 355 355 355 352 352 352 350 349 349 350 350 349 349 347 345 343 343 343 342 342 343 345 345
319 320 319 319 318 317 317 317 318 316 318 318 319 319 318 320 322 341 353 356 359 359 357 357 355 354 354 353 355 352 353 352 350 350 349 350 350 350 349 347 346 346 344 344 345 346 345 344 344
321 320 320 321 319 317 317 317 318 317 317 319 319 319 319 320 322 323 344 346 352 357 360 358 356 354 354 352 352 351 351 351 351 350 350 350 351 351 351 348 347 347 343 344 346 345 345 343 340
320 321 321 320 320 318 318 319 318 318 317 318 319 320 320 320 322 322 323 334 345 354 358 360 358 354 351 350 350 351 351 350 349 349 350 350 349 350 351 349 347 346 344 347 343 341 340 341 339
319 320 321 320 318 317 319 319 319 319 318 318 319 319 320 320 322 323 323 329 342 349 355 357 358 352 349 350 351 349 350 348 348 347 348 348 349 349 349 348 346 346 344 341 339 339 340 340 341
320 321 320 320 319 318 318 320 320 319 319 319 319 319 320 320 321 323 324 325 335 343 349 354 356 350 349 350 348 347 348 348 347 347 347 346 346 347 345 345 344 343 340 341 342 340 340 341 340
321 319 319 317 318 320 318 321 322 320 320 320 320 319 319 320 321 323 323 326 331 337 343 350 353 349 347 346 347 349 348 347 346 346 344 344 343 343 344 344 343 341 340 339 342 342 342 341 339
320 319 319 319 318 319 319 319 322 321 321 321 320 320 320 321 321 322 322 322 327 331 339 348 351 345 342 343 347 348 348 347 346 345 346 345 344 344 343 344 341 342 342 341 342 342 341 338 340
319 320 320 320 319 321 321 320 322 322 321 322 321 320 320 321 321 321 321 322 327 333 342 349 342 342 340 344 346 346 347 345 344 344 343 344 342 342 342 341 341 341 340 339 340 340 339 340 339
319 321 326 325 321 321 320 321 321 322 321 321 321 321 321 322 322 322 322 326 331 342 344 343 340 340 343 345 343 343 344 345 345 345 343 342 342 340 341 340 340 340 339 338 338 337 336 335 333
321 323 324 325 324 322 320 321 321 320 325 330 330 327 325 324 324 323 326 332 341 339 338 338 339 340 340 338 338 340 342 341 339 339 340 338 338 335 335 336 336 334 332 331 330 330 329 328 328
321 325 321 320 321 322 321 322 327 325 329 331 333 332 328 325 325 330 335 339 337 337 336 336 336 336 334 334 333 333 333 332 331 330 330 330 329 329 328 329 328 327 326 326 326 325 326 325 324
321 320 323 320 323 323 321 322 324 329 331 334 338 337 335 335 335 334 334 334 334 335 336 336 335 333 331 330 329 328 327 327 326 325 325 324 324 324 324 324 324 324 323 323 323 322 322 322 321
321 321 319 321 321 324 323 326 330 330 334 336 333 332 330 329 329 329 329 330 332 333 332 331 328 327 326 324 323 322 321 320 319 318 318 319 319 319 319 319 320 320 320 320 320 320 320 319 319
317 321 321 320 323 322 323 337 334 334 335 331 330 328 326 325 326 326 327 329 330 328 327 326 325 324 323 321 319 317 315 314 313 313 313 314 314 315 314 314 314 315 315 315 315 315 315 315 315

GFSSGP_925_thetae_135.txt.gz
Theta_e
311 319 321 322 329 333 335 334 333 336 334 335 335 336 339 343 355 371 356 355 351 355 355 351 346 343 342 344 350 350 345 342 333 332 333 336 336 333 340 345 346 342 341 349 344 341 340 335 330
320 320 319 326 331 335 336 335 334 335 334 334 334 336 336 342 355 358 357 353 353 357 357 355 344 341 341 344 349 349 345 340 333 334 334 337 335 330 339 346 347 345 339 340 344 343 340 332 327
322 319 321 327 332 333 336 336 334 335 334 333 334 335 341 351 357 357 359 352 355 358 357 356 342 340 340 344 349 348 344 339 335 336 336 337 335 329 338 342 345 345 344 337 335 337 333 327 327
318 318 320 326 329 332 333 335 336 335 335 334 334 334 336 341 346 358 359 353 356 358 355 355 341 339 342 346 348 346 344 342 339 340 339 338 332 329 337 342 344 344 342 340 338 335 331 328 330
316 318 319 323 325 329 332 333 335 335 335 334 333 334 336 346 346 357 354 354 356 355 355 354 340 340 343 347 347 345 345 344 343 344 341 338 328 334 340 341 339 340 340 339 337 334 332 331 334
317 318 318 320 322 324 327 331 333 334 335 334 333 333 336 348 347 358 353 355 355 354 356 353 342 339 343 345 345 345 345 344 344 344 341 336 328 336 337 334 331 335 334 337 336 334 332 336 340
318 318 317 319 320 322 324 326 330 332 334 335 334 333 336 343 349 357 354 354 355 354 356 352 346 343 340 341 341 342 343 341 341 341 339 332 330 336 335 333 329 331 332 336 336 335 337 338 338
320 320 318 319 319 320 323 324 326 328 329 332 333 332 333 350 349 354 355 354 354 354 353 351 347 344 344 344 339 338 338 337 337 337 335 330 334 337 335 334 330 329 331 336 335 334 335 337 337
321 322 321 319 320 320 322 322 322 324 324 326 329 331 337 348 348 350 356 354 354 354 352 349 347 344 342 342 343 336 335 334 334 336 334 335 341 342 342 339 340 329 332 333 333 334 335 336 336
322 323 324 323 322 321 322 321 320 320 320 321 323 326 332 341 346 349 353 357 355 354 353 350 348 346 343 343 346 343 342 341 341 341 343 340 339 341 340 339 342 337 334 332 331 332 332 332 337
324 323 324 324 325 323 322 321 320 320 320 321 321 325 327 334 343 346 349 356 355 354 353 351 350 347 344 344 348 344 345 343 343 342 343 339 338 341 339 341 344 345 342 343 338 337 336 334 334
323 322 322 323 324 323 322 321 321 320 320 322 322 322 324 331 338 344 346 353 356 355 353 352 353 350 346 345 347 345 346 346 346 346 345 341 343 344 342 340 343 343 342 343 342 340 338 335 334
322 322 322 321 321 323 322 321 322 322 321 321 321 322 323 324 333 337 343 346 357 356 354 354 355 352 349 349 348 346 347 347 348 348 349 346 347 346 346 343 342 341 340 341 341 340 340 340 340
321 322 322 322 321 321 321 321 321 322 322 321 320 320 321 322 324 329 343 346 354 357 356 355 357 356 353 351 350 349 349 349 349 349 349 350 349 348 348 346 345 344 342 341 340 341 340 339 339
320 320 321 321 321 320 320 320 321 321 321 321 321 320 320 321 323 324 339 347 351 356 358 357 357 358 356 354 353 353 351 351 350 349 349 351 351 350 350 348 346 345 343 343 343 342 340 340 339
320 320 320 320 320 320 320 320 321 321 321 321 321 321 321 320 322 323 331 348 349 353 358 358 358 358 358 357 356 354 352 351 351 350 350 350 350 350 352 348 346 345 345 344 343 342 341 340 340
321 322 321 321 321 320 320 320 320 321 321 321 321 322 321 321 322 324 330 349 351 355 359 359 359 358 358 358 359 356 354 354 351 351 349 351 349 350 350 349 346 347 346 345 344 344 344 347 347
323 323 323 324 322 321 321 321 322 321 321 322 322 322 322 321 321 323 338 350 358 359 359 360 360 359 356 356 357 355 355 354 352 353 354 354 352 351 349 350 349 349 348 346 344 346 349 349 345
322 323 324 323 324 323 322 322 321 321 321 321 322 323 323 323 321 323 340 351 358 361 361 358 359 359 356 354 357 354 353 352 353 353 351 352 352 351 350 350 349 350 349 346 346 348 344 342 339
322 322 324 324 323 324 323 322 322 322 322 321 322 323 323 323 321 324 330 349 349 354 357 360 360 359 356 354 354 353 353 353 351 351 351 351 350 350 349 350 349 348 348 346 345 342 341 340 337
321 323 323 324 323 323 323 323 324 323 322 322 322 322 323 323 322 324 326 331 339 349 355 358 361 360 354 352 354 353 353 351 351 350 351 350 349 349 349 348 348 349 347 343 340 342 343 342 341
321 320 321 323 324 325 322 323 323 324 323 323 322 322 323 323 323 324 326 328 336 342 349 354 358 355 352 350 352 351 351 352 350 350 348 348 348 347 347 347 348 348 344 341 342 341 341 341 343
317 319 320 321 323 323 323 324 324 324 324 324 324 323 323 323 323 323 325 326 329 336 343 350 355 354 351 349 348 351 351 349 347 346 348 349 347 346 346 344 345 345 342 339 338 342 342 341 340
317 319 321 321 322 323 322 323 324 326 325 325 324 323 323 323 323 323 324 324 327 332 340 349 353 349 348 348 349 352 350 347 345 345 346 345 345 345 344 344 342 343 343 342 341 341 341 342 341
318 321 327 325 325 325 322 323 323 324 325 325 324 324 323 323 324 324 323 324 324 327 341 352 347 345 346 347 348 350 349 347 347 346 344 344 343 342 343 341 342 341 341 341 341 342 340 340 339
318 322 325 331 325 324 322 323 324 324 325 325 325 324 324 323 324 324 324 324 323 345 348 346 345 344 347 347 347 347 347 346 345 344 343 342 342 340 338 338 338 338 337 337 336 336 336 334 333
318 325 323 322 322 323 321 323 323 323 326 328 329 325 324 324 324 324 324 325 345 345 343 342 343 344 342 343 342 344 343 340 339 339 337 335 334 332 332 332 332 331 331 331 331 330 330 330 329
317 320 324 323 325 323 322 324 324 325 326 328 329 335 338 330 328 330 340 345 341 339 340 339 339 339 339 339 339 338 337 335 334 333 332 331 330 329 328 328 328 328 327 327 327 326 326 326 326
318 320 321 322 325 325 325 323 325 327 327 331 342 338 336 337 339 340 340 337 337 337 338 338 338 337 335 334 332 330 329 328 327 327 326 325 324 323 322 322 321 322 321 321 322 322 322 321 320
319 323 321 325 328 326 324 339 336 328 331 338 333 332 332 334 336 336 336 336 336 335 335 334 332 331 329 327 324 323 321 321 320 319 319 318 319 318 317 317 317 317 317 317 317 317 317 317 317

GFSSGP_925_thetae_138.txt.gz
Theta_e
310 314 318 324 327 329 333 333 332 332 336 335 336 337 338 350 359 370 346 349 351 356 355 348 345 344 345 349 350 346 341 339 333 332 332 333 333 334 341 344 340 339 343 345 345 342 338 334 329
320 319 322 326 330 332 334 333 333 333 335 335 334 334 335 358 356 353 353 352 352 356 354 351 346 343 343 347 350 347 343 340 333 332 333 335 334 335 344 349 344 341 345 350 345 342 339 332 327
316 323 323 326 330 333 334 333 334 334 335 334 334 334 336 360 354 356 354 355 356 357 355 353 345 342 341 343 349 349 345 340 333 333 333 335 333 335 347 350 347 344 340 342 344 342 337 328 328
316 322 322 324 328 330 331 333 334 335 335 334 334 334 337 343 357 360 353 358 357 357 356 352 344 341 340 343 349 348 345 338 334 336 335 335 332 331 341 343 345 346 343 338 333 331 331 328 329
318 319 319 320 323 327 329 331 332 333 336 335 334 334 339 345 354 360 354 358 358 356 358 351 343 340 341 345 349 347 344 338 337 338 337 337 331 329 336 339 342 341 339 336 333 331 330 328 331
319 317 316 318 320 322 326 329 331 332 334 335 334 333 340 345 355 356 353 357 357 355 358 349 342 341 342 346 348 346 344 342 340 341 340 338 329 330 338 339 336 335 338 334 336 333 332 329 331
320 317 316 317 319 321 323 325 327 330 333 335 335 333 336 345 353 355 353 356 355 356 357 352 347 343 345 348 347 345 345 344 343 344 342 338 328 335 337 333 331 332 335 336 335 332 332 332 338
323 320 317 317 318 319 322 324 325 326 329 334 335 334 334 348 350 355 354 355 354 357 355 351 351 346 346 347 346 345 345 345 345 344 342 336 330 336 336 334 332 334 334 337 335 334 335 337 338
324 322 322 319 318 319 321 322 325 326 326 331 333 334 342 348 348 355 354 355 355 356 353 349 348 347 348 350 345 344 343 343 344 343 339 333 334 337 340 336 340 329 332 334 336 335 334 335 336
326 326 322 321 321 321 321 322 322 323 323 324 328 329 336 346 345 351 355 355 355 355 353 349 346 344 343 344 344 341 343 341 340 340 337 336 341 343 344 342 340 341 330 331 332 332 333 334 335
326 327 324 323 324 324 323 322 323 322 321 322 323 324 329 341 345 346 351 354 354 354 353 349 347 344 342 343 343 343 343 343 341 342 342 340 339 343 339 342 339 339 338 335 334 329 328 332 335
323 324 325 323 324 325 325 325 323 322 321 322 322 323 325 332 335 342 346 351 354 354 354 350 348 345 343 348 343 345 345 344 343 343 343 337 340 342 340 341 342 344 343 340 343 342 340 337 334
320 320 323 324 323 322 323 324 324 323 322 322 322 323 323 328 332 339 343 346 356 355 354 352 350 347 347 348 346 345 347 346 346 346 344 342 342 346 344 343 344 345 342 344 343 343 343 339 338
322 321 321 323 323 322 322 322 323 322 323 322 321 322 323 323 330 335 341 345 348 356 358 354 352 348 348 353 348 346 348 347 348 349 348 347 346 349 347 346 345 343 344 342 345 343 342 342 341
321 323 322 323 323 323 323 322 322 322 322 323 322 322 322 323 324 328 333 342 347 354 349 335 355 351 349 352 350 346 349 350 349 350 351 350 347 351 349 349 347 346 345 343 343 342 342 341 341
322 322 324 322 323 323 323 323 322 322 322 322 323 322 322 322 323 323 325 336 344 356 351 347 358 358 353 356 356 351 353 350 351 349 351 351 350 348 352 349 348 348 346 345 344 344 343 342 341
321 323 324 323 322 323 322 324 322 322 323 323 324 323 322 322 323 323 324 329 346 353 361 359 360 360 358 355 357 354 353 351 352 350 350 351 351 350 349 351 348 347 347 346 345 346 347 345 345
321 321 321 322 322 322 322 322 322 322 322 323 324 323 323 324 324 323 325 324 348 353 361 361 360 360 359 358 358 357 356 355 354 351 351 351 352 350 348 348 350 349 349 348 348 346 345 345 345
321 320 320 321 323 322 324 323 322 323 323 322 324 323 324 325 324 323 323 324 350 357 362 362 359 358 360 358 360 358 356 355 353 354 354 355 353 352 351 349 348 348 349 349 347 344 343 343 338
322 321 322 322 323 324 325 325 324 323 324 323 324 325 325 325 326 325 326 327 354 364 360 359 358 358 359 355 359 356 354 353 353 353 352 352 352 351 350 350 350 349 350 348 346 343 340 338 338
320 321 323 322 323 324 325 326 325 323 324 324 323 325 325 325 327 327 327 338 362 356 353 349 354 357 357 354 356 353 354 354 352 352 352 351 351 350 349 348 347 347 347 347 344 339 333 337 334
317 319 321 322 324 326 325 326 328 324 326 326 325 324 325 326 327 327 330 343 354 356 346 331 335 354 356 353 354 356 355 352 353 352 351 350 350 350 348 348 346 345 344 344 339 338 336 331 337
316 318 320 321 323 326 325 324 324 326 326 326 326 325 325 325 326 325 331 341 342 350 356 353 354 356 354 352 355 353 353 352 351 351 348 348 348 346 347 345 344 342 344 343 338 335 337 339 339
315 316 319 321 323 326 325 325 325 324 326 327 327 325 324 324 325 325 330 333 338 344 352 353 357 356 353 353 352 352 352 350 351 348 348 348 346 344 345 344 343 341 340 340 340 340 340 341 339
318 316 320 324 324 324 324 325 325 326 326 327 327 326 325 325 326 326 328 330 333 340 352 355 353 352 350 349 351 352 351 347 347 347 346 346 345 343 344 341 341 341 341 339 340 339 338 338 336
318 318 320 328 328 322 323 326 325 326 326 327 327 327 326 326 325 326 325 329 329 336 353 350 349 348 348 347 350 351 349 348 347 347 346 345 343 342 340 339 338 336 335 335 334 334 333 333 332
315 318 318 322 324 323 324 323 322 324 327 328 327 327 326 326 325 327 326 329 343 353 350 349 347 347 349 347 346 347 347 346 343 342 341 338 336 336 334 334 333 332 331 330 329 330 328 329 329
317 317 323 325 327 325 324 324 323 325 327 329 338 332 328 326 326 327 340 350 348 346 346 346 345 343 343 342 340 339 338 337 336 334 333 332 331 331 330 329 329 328 327 327 326 326 325 324 323
319 317 320 324 325 330 326 325 325 327 329 337 341 341 344 344 345 346 345 343 342 341 342 340 340 339 340 337 335 334 332 330 329 328 327 325 324 323 322 321 321 321 321 320 320 320 320 319 318
318 320 323 324 326 327 328 334 340 331 337 341 337 338 341 342 342 342 341 340 340 339 339 339 335 333 331 329 326 325 324 322 321 320 319 319 318 317 316 317 316 316 315 315 315 315 315 316 317

GFSSGP_925_thetae_141.txt.gz
Theta_e
317 310 313 318 322 320 323 326 327 329 329 331 333 332 348 347 351 361 343 346 353 349 346 345 346 347 349 351 346 342 338 335 331 331 332 331 331 332 334 334 335 338 340 340 340 338 335 333 327
311 317 319 318 323 325 326 326 328 329 330 330 332 333 357 358 350 344 344 353 350 349 347 345 345 346 347 350 346 342 339 335 332 331 332 331 330 336 337 338 339 344 343 341 339 337 335 330 325
310 316 318 319 320 327 328 327 328 329 330 333 333 332 354 356 347 344 349 356 353 350 349 346 344 344 345 347 348 343 342 336 332 332 332 331 329 338 343 341 341 341 347 341 337 338 336 327 324
318 315 320 317 322 324 326 327 328 329 330 331 332 336 343 351 347 353 355 354 351 351 349 346 344 342 343 346 348 345 342 336 333 333 334 333 329 338 346 344 344 341 337 335 337 336 332 326 325
317 312 317 317 318 320 324 327 328 328 328 329 333 333 349 358 356 355 355 356 351 355 352 346 343 341 341 345 348 346 343 336 334 335 334 334 329 336 342 341 342 343 340 335 330 329 327 325 326
314 311 312 319 316 318 319 321 323 325 327 329 331 335 347 358 355 357 357 356 353 354 355 346 343 340 341 344 347 346 343 336 336 337 336 335 328 330 336 339 341 340 339 333 331 329 327 326 329
316 313 311 311 312 315 317 319 321 322 323 324 330 332 346 357 356 358 358 357 355 356 355 345 343 341 342 345 347 346 342 338 338 339 338 336 328 329 336 339 336 336 338 334 334 332 331 329 329
318 318 316 312 313 313 314 317 320 322 322 324 327 332 345 355 354 356 357 356 357 356 354 344 343 344 347 348 348 345 343 341 341 342 340 336 328 333 338 335 332 333 333 334 335 333 331 330 334
321 321 321 318 313 312 314 314 317 321 322 323 324 335 349 355 353 354 354 357 357 356 353 344 343 344 347 348 347 345 345 343 343 343 341 336 329 335 336 333 331 329 330 333 335 333 333 334 336
322 322 322 319 317 316 315 315 316 318 318 322 326 345 348 354 353 353 354 355 356 353 352 345 344 345 348 349 346 345 345 344 343 342 340 334 330 333 335 334 338 338 328 329 331 333 333 332 332
321 325 322 322 321 320 319 320 321 321 317 319 321 324 345 343 349 352 354 354 356 352 349 347 345 347 348 348 344 344 342 341 341 340 336 332 337 341 338 343 340 338 337 332 328 327 326 326 326
316 321 324 323 323 322 321 321 321 321 319 318 319 321 333 342 341 345 352 353 355 351 349 347 345 344 346 343 342 341 339 338 337 337 336 331 340 343 341 342 341 340 340 337 333 335 339 339 333
315 316 321 323 323 322 321 321 320 320 321 318 319 319 319 331 337 340 346 353 354 352 349 347 345 340 343 343 339 338 338 338 336 341 341 332 339 342 342 338 342 342 344 341 341 341 341 342 341
317 317 317 317 319 321 322 321 319 320 320 321 319 319 319 317 326 333 338 340 355 353 349 346 345 344 348 343 341 341 343 341 342 342 342 341 338 340 344 343 345 348 345 343 343 343 344 345 344
315 316 319 318 317 318 320 321 320 319 319 321 320 317 320 319 324 329 334 337 355 352 350 349 345 344 351 348 343 345 346 345 345 345 346 345 342 345 350 346 346 343 345 345 345 344 342 341 340
317 317 318 319 319 319 319 322 321 319 319 319 320 320 319 318 320 325 328 329 353 349 351 347 341 336 343 351 347 345 348 347 347 348 347 347 345 347 353 349 350 348 348 346 344 344 343 343 342
318 319 319 319 320 320 320 321 321 320 318 318 318 319 319 317 319 320 322 322 349 345 342 338 337 338 343 349 351 345 353 349 348 351 351 349 349 348 351 348 348 348 350 346 345 345 345 345 345
321 318 319 320 320 321 321 321 320 320 320 318 317 318 318 318 317 319 321 321 346 344 340 337 338 340 342 353 355 349 352 350 352 350 351 351 351 349 348 348 348 349 348 348 348 347 345 344 342
320 319 318 319 320 321 321 320 318 320 320 318 318 317 318 318 318 320 321 321 348 340 337 337 339 338 338 348 352 353 353 355 353 351 351 354 353 351 349 348 347 348 347 348 347 345 344 341 340
321 322 320 318 318 320 320 320 319 318 319 319 317 318 318 317 318 320 321 321 361 357 349 340 341 344 349 354 352 353 355 355 353 354 353 352 351 351 351 349 348 348 350 349 348 345 342 339 337
321 322 321 321 320 318 319 320 320 320 319 318 318 318 319 319 319 319 319 321 362 361 359 357 358 355 356 354 354 357 354 354 353 352 351 352 352 350 349 350 348 347 347 347 345 342 340 334 336
314 316 320 321 321 322 320 322 321 321 320 320 319 317 318 318 319 318 320 326 357 355 356 356 357 357 357 356 355 355 353 352 352 350 350 351 350 350 349 347 348 345 344 343 342 339 338 338 331
312 313 315 319 320 320 321 323 321 322 320 320 319 318 317 319 319 319 320 343 350 353 352 350 351 351 354 355 354 353 354 353 351 352 350 351 350 349 347 345 343 343 341 343 342 335 333 336 337
314 313 313 316 318 321 321 322 323 323 322 321 321 320 319 318 319 319 321 349 351 349 340 331 343 354 353 353 354 352 353 351 351 351 350 347 347 345 344 344 342 341 340 340 340 341 340 338 338
317 314 314 319 320 321 320 323 322 321 322 322 322 321 319 319 317 318 334 339 352 348 345 346 350 353 353 352 352 353 350 348 351 350 348 347 344 344 344 342 341 341 340 339 339 337 336 336 335
318 317 314 328 329 321 320 324 322 321 321 321 322 321 319 319 317 321 329 333 349 353 354 354 353 352 352 350 351 349 347 348 349 347 346 344 343 342 340 338 336 334 332 332 332 333 331 329 330
321 321 316 321 324 323 320 320 322 321 325 332 326 322 320 318 318 318 325 328 350 351 350 350 351 350 349 349 348 347 345 344 342 342 340 338 338 335 333 333 332 330 329 328 327 327 326 324 322
320 317 316 316 326 327 320 320 320 321 335 342 338 322 320 319 318 331 334 348 348 348 347 347 346 344 344 342 338 337 336 335 334 333 331 330 330 329 327 326 324 323 322 321 320 319 319 318 317
320 320 316 315 324 324 321 319 319 321 340 344 343 335 328 341 346 346 345 345 344 344 342 341 339 337 334 333 331 331 329 329 329 327 325 323 322 320 319 318 318 316 315 315 315 315 315 315 315
319 323 317 321 325 325 328 328 333 337 339 342 343 343 343 343 342 341 340 340 340 339 336 333 330 327 325 324 325 323 325 324 322 320 319 317 316 314 313 313 313 314 315 314 313 312 311 311 310